<?xml version="1.0" encoding="UTF-8" standalone="no" ?>
<gpx xmlns="http://www.topografix.com/GPX/1/1" xmlns:xsi="http://www.w3.org/2001/XMLSchema-instance" xsi:schemaLocation="http://www.topografix.com/GPX/1/1 http://www.topografix.com/GPX/1/1/gpx.xsd" version="1.1" creator="VisuGPX - https://www.visugpx.com">
  <metadata>
    <name>La grande Moucherolle</name>
    <desc><![CDATA[Rando grande et petite moucherolle par le lac et le col des 2 soeurs ]]></desc>
  </metadata>
  <trk>
    <name><![CDATA[09-AOU-12 14:44:23]]></name>
    <trkseg>
      <trkpt lat="45.01928" lon="5.53091">
        <ele>1239.76</ele>
        <time>2012-08-09T05:16:32Z</time>
      </trkpt>
      <trkpt lat="45.01929" lon="5.53091">
        <ele>1239.28</ele>
        <time>2012-08-09T05:16:49Z</time>
      </trkpt>
      <trkpt lat="45.01931" lon="5.53092">
        <ele>1237.83</ele>
        <time>2012-08-09T05:17:10Z</time>
      </trkpt>
      <trkpt lat="45.01928" lon="5.53095">
        <ele>1239.76</ele>
        <time>2012-08-09T05:17:27Z</time>
      </trkpt>
      <trkpt lat="45.01928" lon="5.53092">
        <ele>1239.76</ele>
        <time>2012-08-09T05:17:47Z</time>
      </trkpt>
      <trkpt lat="45.01928" lon="5.53089">
        <ele>1238.8</ele>
        <time>2012-08-09T05:18:03Z</time>
      </trkpt>
      <trkpt lat="45.01917" lon="5.53068">
        <ele>1237.35</ele>
        <time>2012-08-09T05:18:17Z</time>
      </trkpt>
      <trkpt lat="45.01908" lon="5.53058">
        <ele>1236.39</ele>
        <time>2012-08-09T05:18:32Z</time>
      </trkpt>
      <trkpt lat="45.01903" lon="5.53053">
        <ele>1238.32</ele>
        <time>2012-08-09T05:18:43Z</time>
      </trkpt>
      <trkpt lat="45.019" lon="5.53047">
        <ele>1237.35</ele>
        <time>2012-08-09T05:18:47Z</time>
      </trkpt>
      <trkpt lat="45.01895" lon="5.53047">
        <ele>1234.47</ele>
        <time>2012-08-09T05:18:54Z</time>
      </trkpt>
      <trkpt lat="45.0188" lon="5.53027">
        <ele>1234.47</ele>
        <time>2012-08-09T05:19:09Z</time>
      </trkpt>
      <trkpt lat="45.01863" lon="5.53019">
        <ele>1236.87</ele>
        <time>2012-08-09T05:19:23Z</time>
      </trkpt>
      <trkpt lat="45.01842" lon="5.53019">
        <ele>1238.32</ele>
        <time>2012-08-09T05:19:40Z</time>
      </trkpt>
      <trkpt lat="45.01823" lon="5.53007">
        <ele>1240.72</ele>
        <time>2012-08-09T05:19:58Z</time>
      </trkpt>
      <trkpt lat="45.01808" lon="5.53001">
        <ele>1243.12</ele>
        <time>2012-08-09T05:20:10Z</time>
      </trkpt>
      <trkpt lat="45.01795" lon="5.53007">
        <ele>1239.76</ele>
        <time>2012-08-09T05:20:22Z</time>
      </trkpt>
      <trkpt lat="45.01788" lon="5.53008">
        <ele>1239.28</ele>
        <time>2012-08-09T05:20:27Z</time>
      </trkpt>
      <trkpt lat="45.01783" lon="5.53006">
        <ele>1239.76</ele>
        <time>2012-08-09T05:20:32Z</time>
      </trkpt>
      <trkpt lat="45.01778" lon="5.5301">
        <ele>1238.32</ele>
        <time>2012-08-09T05:20:50Z</time>
      </trkpt>
      <trkpt lat="45.0178" lon="5.5301">
        <ele>1243.12</ele>
        <time>2012-08-09T05:21:31Z</time>
      </trkpt>
      <trkpt lat="45.01778" lon="5.53007">
        <ele>1249.85</ele>
        <time>2012-08-09T05:22:10Z</time>
      </trkpt>
      <trkpt lat="45.01774" lon="5.53009">
        <ele>1250.33</ele>
        <time>2012-08-09T05:22:18Z</time>
      </trkpt>
      <trkpt lat="45.01763" lon="5.53009">
        <ele>1249.37</ele>
        <time>2012-08-09T05:22:31Z</time>
      </trkpt>
      <trkpt lat="45.01758" lon="5.53007">
        <ele>1249.37</ele>
        <time>2012-08-09T05:22:35Z</time>
      </trkpt>
      <trkpt lat="45.0174" lon="5.53013">
        <ele>1249.37</ele>
        <time>2012-08-09T05:22:52Z</time>
      </trkpt>
      <trkpt lat="45.01737" lon="5.53013">
        <ele>1249.37</ele>
        <time>2012-08-09T05:22:54Z</time>
      </trkpt>
      <trkpt lat="45.0172" lon="5.53013">
        <ele>1248.89</ele>
        <time>2012-08-09T05:23:09Z</time>
      </trkpt>
      <trkpt lat="45.01708" lon="5.53023">
        <ele>1251.29</ele>
        <time>2012-08-09T05:23:24Z</time>
      </trkpt>
      <trkpt lat="45.01693" lon="5.53032">
        <ele>1257.06</ele>
        <time>2012-08-09T05:23:40Z</time>
      </trkpt>
      <trkpt lat="45.0169" lon="5.53033">
        <ele>1257.54</ele>
        <time>2012-08-09T05:23:43Z</time>
      </trkpt>
      <trkpt lat="45.01674" lon="5.53037">
        <ele>1262.35</ele>
        <time>2012-08-09T05:24:02Z</time>
      </trkpt>
      <trkpt lat="45.01664" lon="5.53039">
        <ele>1264.27</ele>
        <time>2012-08-09T05:24:16Z</time>
      </trkpt>
      <trkpt lat="45.01656" lon="5.5304">
        <ele>1266.19</ele>
        <time>2012-08-09T05:24:28Z</time>
      </trkpt>
      <trkpt lat="45.0164" lon="5.53043">
        <ele>1268.12</ele>
        <time>2012-08-09T05:24:42Z</time>
      </trkpt>
      <trkpt lat="45.01623" lon="5.53043">
        <ele>1270.04</ele>
        <time>2012-08-09T05:24:58Z</time>
      </trkpt>
      <trkpt lat="45.01609" lon="5.5304">
        <ele>1271</ele>
        <time>2012-08-09T05:25:15Z</time>
      </trkpt>
      <trkpt lat="45.01591" lon="5.53042">
        <ele>1275.33</ele>
        <time>2012-08-09T05:25:32Z</time>
      </trkpt>
      <trkpt lat="45.01578" lon="5.53043">
        <ele>1279.65</ele>
        <time>2012-08-09T05:25:47Z</time>
      </trkpt>
      <trkpt lat="45.01567" lon="5.5305">
        <ele>1281.09</ele>
        <time>2012-08-09T05:26:02Z</time>
      </trkpt>
      <trkpt lat="45.01549" lon="5.53054">
        <ele>1280.61</ele>
        <time>2012-08-09T05:26:22Z</time>
      </trkpt>
      <trkpt lat="45.01539" lon="5.5306">
        <ele>1283.98</ele>
        <time>2012-08-09T05:26:36Z</time>
      </trkpt>
      <trkpt lat="45.01528" lon="5.53069">
        <ele>1287.82</ele>
        <time>2012-08-09T05:26:51Z</time>
      </trkpt>
      <trkpt lat="45.01514" lon="5.53078">
        <ele>1289.75</ele>
        <time>2012-08-09T05:27:06Z</time>
      </trkpt>
      <trkpt lat="45.01502" lon="5.53088">
        <ele>1294.07</ele>
        <time>2012-08-09T05:27:22Z</time>
      </trkpt>
      <trkpt lat="45.01491" lon="5.53096">
        <ele>1297.92</ele>
        <time>2012-08-09T05:27:36Z</time>
      </trkpt>
      <trkpt lat="45.01477" lon="5.53106">
        <ele>1299.84</ele>
        <time>2012-08-09T05:27:52Z</time>
      </trkpt>
      <trkpt lat="45.01472" lon="5.53115">
        <ele>1304.17</ele>
        <time>2012-08-09T05:28:05Z</time>
      </trkpt>
      <trkpt lat="45.01462" lon="5.53127">
        <ele>1305.13</ele>
        <time>2012-08-09T05:28:19Z</time>
      </trkpt>
      <trkpt lat="45.01451" lon="5.53132">
        <ele>1305.61</ele>
        <time>2012-08-09T05:28:33Z</time>
      </trkpt>
      <trkpt lat="45.0144" lon="5.53135">
        <ele>1307.53</ele>
        <time>2012-08-09T05:28:46Z</time>
      </trkpt>
      <trkpt lat="45.01426" lon="5.53144">
        <ele>1311.38</ele>
        <time>2012-08-09T05:29:02Z</time>
      </trkpt>
      <trkpt lat="45.01415" lon="5.53144">
        <ele>1313.78</ele>
        <time>2012-08-09T05:29:20Z</time>
      </trkpt>
      <trkpt lat="45.01405" lon="5.53149">
        <ele>1315.22</ele>
        <time>2012-08-09T05:29:34Z</time>
      </trkpt>
      <trkpt lat="45.01392" lon="5.53155">
        <ele>1317.14</ele>
        <time>2012-08-09T05:29:49Z</time>
      </trkpt>
      <trkpt lat="45.01375" lon="5.53161">
        <ele>1321.47</ele>
        <time>2012-08-09T05:30:04Z</time>
      </trkpt>
      <trkpt lat="45.0136" lon="5.53161">
        <ele>1322.91</ele>
        <time>2012-08-09T05:30:18Z</time>
      </trkpt>
      <trkpt lat="45.01347" lon="5.53161">
        <ele>1323.87</ele>
        <time>2012-08-09T05:30:31Z</time>
      </trkpt>
      <trkpt lat="45.01333" lon="5.53163">
        <ele>1324.35</ele>
        <time>2012-08-09T05:30:45Z</time>
      </trkpt>
      <trkpt lat="45.01319" lon="5.53163">
        <ele>1326.76</ele>
        <time>2012-08-09T05:31:00Z</time>
      </trkpt>
      <trkpt lat="45.01317" lon="5.53163">
        <ele>1326.76</ele>
        <time>2012-08-09T05:31:02Z</time>
      </trkpt>
      <trkpt lat="45.01299" lon="5.53161">
        <ele>1326.76</ele>
        <time>2012-08-09T05:31:18Z</time>
      </trkpt>
      <trkpt lat="45.01283" lon="5.53163">
        <ele>1328.68</ele>
        <time>2012-08-09T05:31:32Z</time>
      </trkpt>
      <trkpt lat="45.01268" lon="5.53156">
        <ele>1340.22</ele>
        <time>2012-08-09T05:31:46Z</time>
      </trkpt>
      <trkpt lat="45.01255" lon="5.53144">
        <ele>1346.46</ele>
        <time>2012-08-09T05:32:02Z</time>
      </trkpt>
      <trkpt lat="45.01238" lon="5.53147">
        <ele>1350.79</ele>
        <time>2012-08-09T05:32:20Z</time>
      </trkpt>
      <trkpt lat="45.01227" lon="5.53166">
        <ele>1352.23</ele>
        <time>2012-08-09T05:32:36Z</time>
      </trkpt>
      <trkpt lat="45.01219" lon="5.53182">
        <ele>1355.12</ele>
        <time>2012-08-09T05:32:53Z</time>
      </trkpt>
      <trkpt lat="45.0121" lon="5.53193">
        <ele>1355.12</ele>
        <time>2012-08-09T05:33:09Z</time>
      </trkpt>
      <trkpt lat="45.01195" lon="5.5321">
        <ele>1356.08</ele>
        <time>2012-08-09T05:33:30Z</time>
      </trkpt>
      <trkpt lat="45.01177" lon="5.53213">
        <ele>1360.88</ele>
        <time>2012-08-09T05:33:50Z</time>
      </trkpt>
      <trkpt lat="45.01163" lon="5.53215">
        <ele>1367.61</ele>
        <time>2012-08-09T05:34:08Z</time>
      </trkpt>
      <trkpt lat="45.01154" lon="5.53217">
        <ele>1369.05</ele>
        <time>2012-08-09T05:34:28Z</time>
      </trkpt>
      <trkpt lat="45.01142" lon="5.53217">
        <ele>1370.02</ele>
        <time>2012-08-09T05:34:43Z</time>
      </trkpt>
      <trkpt lat="45.01126" lon="5.53215">
        <ele>1370.98</ele>
        <time>2012-08-09T05:35:01Z</time>
      </trkpt>
      <trkpt lat="45.01115" lon="5.53228">
        <ele>1375.78</ele>
        <time>2012-08-09T05:35:20Z</time>
      </trkpt>
      <trkpt lat="45.01102" lon="5.53236">
        <ele>1377.23</ele>
        <time>2012-08-09T05:35:38Z</time>
      </trkpt>
      <trkpt lat="45.01089" lon="5.53246">
        <ele>1377.71</ele>
        <time>2012-08-09T05:35:57Z</time>
      </trkpt>
      <trkpt lat="45.01076" lon="5.53259">
        <ele>1379.15</ele>
        <time>2012-08-09T05:36:13Z</time>
      </trkpt>
      <trkpt lat="45.01065" lon="5.53272">
        <ele>1380.59</ele>
        <time>2012-08-09T05:36:30Z</time>
      </trkpt>
      <trkpt lat="45.01056" lon="5.53286">
        <ele>1378.19</ele>
        <time>2012-08-09T05:36:46Z</time>
      </trkpt>
      <trkpt lat="45.01049" lon="5.53302">
        <ele>1374.82</ele>
        <time>2012-08-09T05:37:01Z</time>
      </trkpt>
      <trkpt lat="45.0104" lon="5.53316">
        <ele>1375.3</ele>
        <time>2012-08-09T05:37:17Z</time>
      </trkpt>
      <trkpt lat="45.01029" lon="5.53323">
        <ele>1377.23</ele>
        <time>2012-08-09T05:37:31Z</time>
      </trkpt>
      <trkpt lat="45.01021" lon="5.5333">
        <ele>1381.55</ele>
        <time>2012-08-09T05:37:44Z</time>
      </trkpt>
      <trkpt lat="45.0101" lon="5.53339">
        <ele>1385.88</ele>
        <time>2012-08-09T05:38:00Z</time>
      </trkpt>
      <trkpt lat="45.00997" lon="5.53344">
        <ele>1389.72</ele>
        <time>2012-08-09T05:38:15Z</time>
      </trkpt>
      <trkpt lat="45.00995" lon="5.53344">
        <ele>1390.2</ele>
        <time>2012-08-09T05:38:16Z</time>
      </trkpt>
      <trkpt lat="45.00986" lon="5.53349">
        <ele>1395.01</ele>
        <time>2012-08-09T05:38:30Z</time>
      </trkpt>
      <trkpt lat="45.00986" lon="5.53347">
        <ele>1400.3</ele>
        <time>2012-08-09T05:38:45Z</time>
      </trkpt>
      <trkpt lat="45.00992" lon="5.53349">
        <ele>1407.03</ele>
        <time>2012-08-09T05:39:09Z</time>
      </trkpt>
      <trkpt lat="45.00989" lon="5.53348">
        <ele>1409.43</ele>
        <time>2012-08-09T05:39:38Z</time>
      </trkpt>
      <trkpt lat="45.00984" lon="5.5335">
        <ele>1411.35</ele>
        <time>2012-08-09T05:40:01Z</time>
      </trkpt>
      <trkpt lat="45.00986" lon="5.5335">
        <ele>1416.16</ele>
        <time>2012-08-09T05:40:26Z</time>
      </trkpt>
      <trkpt lat="45.00981" lon="5.53349">
        <ele>1420.49</ele>
        <time>2012-08-09T05:40:49Z</time>
      </trkpt>
      <trkpt lat="45.0097" lon="5.5335">
        <ele>1421.45</ele>
        <time>2012-08-09T05:41:05Z</time>
      </trkpt>
      <trkpt lat="45.00956" lon="5.53352">
        <ele>1422.41</ele>
        <time>2012-08-09T05:41:23Z</time>
      </trkpt>
      <trkpt lat="45.00944" lon="5.53357">
        <ele>1423.37</ele>
        <time>2012-08-09T05:41:41Z</time>
      </trkpt>
      <trkpt lat="45.00931" lon="5.53362">
        <ele>1424.81</ele>
        <time>2012-08-09T05:41:56Z</time>
      </trkpt>
      <trkpt lat="45.00921" lon="5.53363">
        <ele>1425.77</ele>
        <time>2012-08-09T05:42:12Z</time>
      </trkpt>
      <trkpt lat="45.00908" lon="5.53368">
        <ele>1426.25</ele>
        <time>2012-08-09T05:42:28Z</time>
      </trkpt>
      <trkpt lat="45.00905" lon="5.5338">
        <ele>1428.18</ele>
        <time>2012-08-09T05:42:42Z</time>
      </trkpt>
      <trkpt lat="45.0091" lon="5.534">
        <ele>1430.1</ele>
        <time>2012-08-09T05:43:01Z</time>
      </trkpt>
      <trkpt lat="45.00913" lon="5.53411">
        <ele>1432.02</ele>
        <time>2012-08-09T05:43:10Z</time>
      </trkpt>
      <trkpt lat="45.00915" lon="5.53418">
        <ele>1432.98</ele>
        <time>2012-08-09T05:43:16Z</time>
      </trkpt>
      <trkpt lat="45.0092" lon="5.53434">
        <ele>1437.31</ele>
        <time>2012-08-09T05:43:32Z</time>
      </trkpt>
      <trkpt lat="45.00922" lon="5.5344">
        <ele>1438.75</ele>
        <time>2012-08-09T05:43:38Z</time>
      </trkpt>
      <trkpt lat="45.00924" lon="5.53443">
        <ele>1439.71</ele>
        <time>2012-08-09T05:43:40Z</time>
      </trkpt>
      <trkpt lat="45.00927" lon="5.53449">
        <ele>1441.63</ele>
        <time>2012-08-09T05:43:44Z</time>
      </trkpt>
      <trkpt lat="45.00936" lon="5.53461">
        <ele>1445</ele>
        <time>2012-08-09T05:43:55Z</time>
      </trkpt>
      <trkpt lat="45.00947" lon="5.53477">
        <ele>1447.4</ele>
        <time>2012-08-09T05:44:08Z</time>
      </trkpt>
      <trkpt lat="45.0095" lon="5.53481">
        <ele>1448.36</ele>
        <time>2012-08-09T05:44:12Z</time>
      </trkpt>
      <trkpt lat="45.00954" lon="5.53485">
        <ele>1449.32</ele>
        <time>2012-08-09T05:44:16Z</time>
      </trkpt>
      <trkpt lat="45.00967" lon="5.53497">
        <ele>1452.21</ele>
        <time>2012-08-09T05:44:31Z</time>
      </trkpt>
      <trkpt lat="45.00976" lon="5.535">
        <ele>1453.65</ele>
        <time>2012-08-09T05:44:44Z</time>
      </trkpt>
      <trkpt lat="45.0099" lon="5.53501">
        <ele>1454.13</ele>
        <time>2012-08-09T05:44:58Z</time>
      </trkpt>
      <trkpt lat="45.01" lon="5.53504">
        <ele>1457.5</ele>
        <time>2012-08-09T05:45:10Z</time>
      </trkpt>
      <trkpt lat="45.01012" lon="5.53508">
        <ele>1460.38</ele>
        <time>2012-08-09T05:45:24Z</time>
      </trkpt>
      <trkpt lat="45.01015" lon="5.5351">
        <ele>1460.86</ele>
        <time>2012-08-09T05:45:27Z</time>
      </trkpt>
      <trkpt lat="45.01028" lon="5.53515">
        <ele>1465.67</ele>
        <time>2012-08-09T05:45:42Z</time>
      </trkpt>
      <trkpt lat="45.01039" lon="5.53523">
        <ele>1469.51</ele>
        <time>2012-08-09T05:45:55Z</time>
      </trkpt>
      <trkpt lat="45.01042" lon="5.53525">
        <ele>1470.47</ele>
        <time>2012-08-09T05:45:59Z</time>
      </trkpt>
      <trkpt lat="45.01053" lon="5.53534">
        <ele>1471.92</ele>
        <time>2012-08-09T05:46:12Z</time>
      </trkpt>
      <trkpt lat="45.01057" lon="5.53539">
        <ele>1473.36</ele>
        <time>2012-08-09T05:46:19Z</time>
      </trkpt>
      <trkpt lat="45.01068" lon="5.53548">
        <ele>1475.28</ele>
        <time>2012-08-09T05:46:32Z</time>
      </trkpt>
      <trkpt lat="45.01074" lon="5.53552">
        <ele>1475.28</ele>
        <time>2012-08-09T05:46:40Z</time>
      </trkpt>
      <trkpt lat="45.01084" lon="5.53558">
        <ele>1476.72</ele>
        <time>2012-08-09T05:46:50Z</time>
      </trkpt>
      <trkpt lat="45.01086" lon="5.5356">
        <ele>1477.2</ele>
        <time>2012-08-09T05:46:52Z</time>
      </trkpt>
      <trkpt lat="45.01089" lon="5.53562">
        <ele>1478.16</ele>
        <time>2012-08-09T05:46:55Z</time>
      </trkpt>
      <trkpt lat="45.01094" lon="5.53567">
        <ele>1478.65</ele>
        <time>2012-08-09T05:47:00Z</time>
      </trkpt>
      <trkpt lat="45.01103" lon="5.53576">
        <ele>1479.61</ele>
        <time>2012-08-09T05:47:14Z</time>
      </trkpt>
      <trkpt lat="45.01114" lon="5.53587">
        <ele>1480.09</ele>
        <time>2012-08-09T05:47:26Z</time>
      </trkpt>
      <trkpt lat="45.01123" lon="5.536">
        <ele>1481.05</ele>
        <time>2012-08-09T05:47:38Z</time>
      </trkpt>
      <trkpt lat="45.0113" lon="5.53612">
        <ele>1481.53</ele>
        <time>2012-08-09T05:47:50Z</time>
      </trkpt>
      <trkpt lat="45.01133" lon="5.53617">
        <ele>1481.53</ele>
        <time>2012-08-09T05:47:55Z</time>
      </trkpt>
      <trkpt lat="45.01142" lon="5.5363">
        <ele>1482.49</ele>
        <time>2012-08-09T05:48:09Z</time>
      </trkpt>
      <trkpt lat="45.01142" lon="5.53631">
        <ele>1482.49</ele>
        <time>2012-08-09T05:48:10Z</time>
      </trkpt>
      <trkpt lat="45.01151" lon="5.53645">
        <ele>1483.45</ele>
        <time>2012-08-09T05:48:23Z</time>
      </trkpt>
      <trkpt lat="45.01157" lon="5.53656">
        <ele>1483.93</ele>
        <time>2012-08-09T05:48:34Z</time>
      </trkpt>
      <trkpt lat="45.01159" lon="5.53656">
        <ele>1484.41</ele>
        <time>2012-08-09T05:48:35Z</time>
      </trkpt>
      <trkpt lat="45.01168" lon="5.53666">
        <ele>1484.89</ele>
        <time>2012-08-09T05:48:48Z</time>
      </trkpt>
      <trkpt lat="45.01169" lon="5.53668">
        <ele>1484.89</ele>
        <time>2012-08-09T05:48:52Z</time>
      </trkpt>
      <trkpt lat="45.01173" lon="5.53673">
        <ele>1485.37</ele>
        <time>2012-08-09T05:48:56Z</time>
      </trkpt>
      <trkpt lat="45.01175" lon="5.53676">
        <ele>1485.37</ele>
        <time>2012-08-09T05:48:59Z</time>
      </trkpt>
      <trkpt lat="45.01189" lon="5.53687">
        <ele>1486.82</ele>
        <time>2012-08-09T05:49:13Z</time>
      </trkpt>
      <trkpt lat="45.01201" lon="5.53701">
        <ele>1487.78</ele>
        <time>2012-08-09T05:49:28Z</time>
      </trkpt>
      <trkpt lat="45.01203" lon="5.53702">
        <ele>1487.78</ele>
        <time>2012-08-09T05:49:29Z</time>
      </trkpt>
      <trkpt lat="45.01218" lon="5.53712">
        <ele>1489.22</ele>
        <time>2012-08-09T05:49:44Z</time>
      </trkpt>
      <trkpt lat="45.01219" lon="5.53712">
        <ele>1489.22</ele>
        <time>2012-08-09T05:49:45Z</time>
      </trkpt>
      <trkpt lat="45.01227" lon="5.53717">
        <ele>1489.7</ele>
        <time>2012-08-09T05:49:52Z</time>
      </trkpt>
      <trkpt lat="45.01241" lon="5.53728">
        <ele>1490.66</ele>
        <time>2012-08-09T05:50:08Z</time>
      </trkpt>
      <trkpt lat="45.01255" lon="5.53743">
        <ele>1494.51</ele>
        <time>2012-08-09T05:50:21Z</time>
      </trkpt>
      <trkpt lat="45.01263" lon="5.53757">
        <ele>1504.6</ele>
        <time>2012-08-09T05:50:34Z</time>
      </trkpt>
      <trkpt lat="45.01268" lon="5.53759">
        <ele>1505.08</ele>
        <time>2012-08-09T05:50:48Z</time>
      </trkpt>
      <trkpt lat="45.0127" lon="5.53762">
        <ele>1506.04</ele>
        <time>2012-08-09T05:50:55Z</time>
      </trkpt>
      <trkpt lat="45.0127" lon="5.53766">
        <ele>1507</ele>
        <time>2012-08-09T05:50:59Z</time>
      </trkpt>
      <trkpt lat="45.01275" lon="5.5378">
        <ele>1506.52</ele>
        <time>2012-08-09T05:51:09Z</time>
      </trkpt>
      <trkpt lat="45.01279" lon="5.5379">
        <ele>1508.45</ele>
        <time>2012-08-09T05:51:18Z</time>
      </trkpt>
      <trkpt lat="45.01282" lon="5.53795">
        <ele>1509.89</ele>
        <time>2012-08-09T05:51:23Z</time>
      </trkpt>
      <trkpt lat="45.01284" lon="5.53798">
        <ele>1509.41</ele>
        <time>2012-08-09T05:51:25Z</time>
      </trkpt>
      <trkpt lat="45.01289" lon="5.53807">
        <ele>1512.77</ele>
        <time>2012-08-09T05:51:32Z</time>
      </trkpt>
      <trkpt lat="45.01296" lon="5.53818">
        <ele>1513.73</ele>
        <time>2012-08-09T05:51:41Z</time>
      </trkpt>
      <trkpt lat="45.01303" lon="5.53829">
        <ele>1516.14</ele>
        <time>2012-08-09T05:51:52Z</time>
      </trkpt>
      <trkpt lat="45.01308" lon="5.5384">
        <ele>1519.02</ele>
        <time>2012-08-09T05:52:04Z</time>
      </trkpt>
      <trkpt lat="45.0131" lon="5.53855">
        <ele>1519.98</ele>
        <time>2012-08-09T05:52:16Z</time>
      </trkpt>
      <trkpt lat="45.01306" lon="5.53874">
        <ele>1522.39</ele>
        <time>2012-08-09T05:52:30Z</time>
      </trkpt>
      <trkpt lat="45.01308" lon="5.53876">
        <ele>1523.83</ele>
        <time>2012-08-09T05:52:42Z</time>
      </trkpt>
      <trkpt lat="45.013" lon="5.53891">
        <ele>1524.79</ele>
        <time>2012-08-09T05:52:54Z</time>
      </trkpt>
      <trkpt lat="45.01298" lon="5.53897">
        <ele>1525.27</ele>
        <time>2012-08-09T05:52:59Z</time>
      </trkpt>
      <trkpt lat="45.01294" lon="5.53908">
        <ele>1525.75</ele>
        <time>2012-08-09T05:53:06Z</time>
      </trkpt>
      <trkpt lat="45.01287" lon="5.53927">
        <ele>1526.71</ele>
        <time>2012-08-09T05:53:19Z</time>
      </trkpt>
      <trkpt lat="45.01277" lon="5.53937">
        <ele>1527.67</ele>
        <time>2012-08-09T05:53:32Z</time>
      </trkpt>
      <trkpt lat="45.01266" lon="5.53957">
        <ele>1529.59</ele>
        <time>2012-08-09T05:53:49Z</time>
      </trkpt>
      <trkpt lat="45.01257" lon="5.53973">
        <ele>1530.56</ele>
        <time>2012-08-09T05:54:02Z</time>
      </trkpt>
      <trkpt lat="45.01249" lon="5.53988">
        <ele>1531.04</ele>
        <time>2012-08-09T05:54:14Z</time>
      </trkpt>
      <trkpt lat="45.0124" lon="5.5401">
        <ele>1532.48</ele>
        <time>2012-08-09T05:54:28Z</time>
      </trkpt>
      <trkpt lat="45.01236" lon="5.54019">
        <ele>1532.96</ele>
        <time>2012-08-09T05:54:34Z</time>
      </trkpt>
      <trkpt lat="45.01226" lon="5.54037">
        <ele>1533.92</ele>
        <time>2012-08-09T05:54:48Z</time>
      </trkpt>
      <trkpt lat="45.01218" lon="5.54057">
        <ele>1534.88</ele>
        <time>2012-08-09T05:55:02Z</time>
      </trkpt>
      <trkpt lat="45.01217" lon="5.5406">
        <ele>1534.88</ele>
        <time>2012-08-09T05:55:04Z</time>
      </trkpt>
      <trkpt lat="45.0121" lon="5.54064">
        <ele>1535.36</ele>
        <time>2012-08-09T05:55:10Z</time>
      </trkpt>
      <trkpt lat="45.01206" lon="5.54048">
        <ele>1537.29</ele>
        <time>2012-08-09T05:55:25Z</time>
      </trkpt>
      <trkpt lat="45.01211" lon="5.54043">
        <ele>1539.21</ele>
        <time>2012-08-09T05:55:40Z</time>
      </trkpt>
      <trkpt lat="45.01212" lon="5.54033">
        <ele>1540.65</ele>
        <time>2012-08-09T05:55:53Z</time>
      </trkpt>
      <trkpt lat="45.01213" lon="5.54026">
        <ele>1542.09</ele>
        <time>2012-08-09T05:55:59Z</time>
      </trkpt>
      <trkpt lat="45.01216" lon="5.54016">
        <ele>1542.57</ele>
        <time>2012-08-09T05:56:06Z</time>
      </trkpt>
      <trkpt lat="45.01216" lon="5.54014">
        <ele>1543.05</ele>
        <time>2012-08-09T05:56:07Z</time>
      </trkpt>
      <trkpt lat="45.01222" lon="5.53999">
        <ele>1549.78</ele>
        <time>2012-08-09T05:56:17Z</time>
      </trkpt>
      <trkpt lat="45.01223" lon="5.53994">
        <ele>1551.71</ele>
        <time>2012-08-09T05:56:21Z</time>
      </trkpt>
      <trkpt lat="45.01224" lon="5.5398">
        <ele>1554.11</ele>
        <time>2012-08-09T05:56:30Z</time>
      </trkpt>
      <trkpt lat="45.01221" lon="5.53962">
        <ele>1552.19</ele>
        <time>2012-08-09T05:56:44Z</time>
      </trkpt>
      <trkpt lat="45.01216" lon="5.53957">
        <ele>1553.15</ele>
        <time>2012-08-09T05:56:56Z</time>
      </trkpt>
      <trkpt lat="45.0121" lon="5.53956">
        <ele>1554.11</ele>
        <time>2012-08-09T05:57:11Z</time>
      </trkpt>
      <trkpt lat="45.01209" lon="5.53958">
        <ele>1553.63</ele>
        <time>2012-08-09T05:57:26Z</time>
      </trkpt>
      <trkpt lat="45.01207" lon="5.53956">
        <ele>1556.51</ele>
        <time>2012-08-09T05:57:51Z</time>
      </trkpt>
      <trkpt lat="45.01207" lon="5.53957">
        <ele>1558.92</ele>
        <time>2012-08-09T05:58:13Z</time>
      </trkpt>
      <trkpt lat="45.01205" lon="5.53956">
        <ele>1558.43</ele>
        <time>2012-08-09T05:58:15Z</time>
      </trkpt>
      <trkpt lat="45.01183" lon="5.53954">
        <ele>1556.51</ele>
        <time>2012-08-09T05:58:33Z</time>
      </trkpt>
      <trkpt lat="45.01167" lon="5.53964">
        <ele>1558.92</ele>
        <time>2012-08-09T05:58:49Z</time>
      </trkpt>
      <trkpt lat="45.01156" lon="5.53973">
        <ele>1563.24</ele>
        <time>2012-08-09T05:59:03Z</time>
      </trkpt>
      <trkpt lat="45.01145" lon="5.53984">
        <ele>1569.49</ele>
        <time>2012-08-09T05:59:18Z</time>
      </trkpt>
      <trkpt lat="45.01136" lon="5.53996">
        <ele>1573.33</ele>
        <time>2012-08-09T05:59:31Z</time>
      </trkpt>
      <trkpt lat="45.01132" lon="5.54003">
        <ele>1575.74</ele>
        <time>2012-08-09T05:59:39Z</time>
      </trkpt>
      <trkpt lat="45.01126" lon="5.54022">
        <ele>1579.1</ele>
        <time>2012-08-09T05:59:53Z</time>
      </trkpt>
      <trkpt lat="45.01127" lon="5.54042">
        <ele>1581.99</ele>
        <time>2012-08-09T06:00:06Z</time>
      </trkpt>
      <trkpt lat="45.01127" lon="5.54062">
        <ele>1585.35</ele>
        <time>2012-08-09T06:00:18Z</time>
      </trkpt>
      <trkpt lat="45.01118" lon="5.54079">
        <ele>1589.68</ele>
        <time>2012-08-09T06:00:32Z</time>
      </trkpt>
      <trkpt lat="45.01111" lon="5.54095">
        <ele>1592.56</ele>
        <time>2012-08-09T06:00:46Z</time>
      </trkpt>
      <trkpt lat="45.01106" lon="5.54106">
        <ele>1593.52</ele>
        <time>2012-08-09T06:00:54Z</time>
      </trkpt>
      <trkpt lat="45.01104" lon="5.54109">
        <ele>1593.04</ele>
        <time>2012-08-09T06:00:56Z</time>
      </trkpt>
      <trkpt lat="45.01094" lon="5.54129">
        <ele>1592.08</ele>
        <time>2012-08-09T06:01:11Z</time>
      </trkpt>
      <trkpt lat="45.01085" lon="5.54147">
        <ele>1595.93</ele>
        <time>2012-08-09T06:01:26Z</time>
      </trkpt>
      <trkpt lat="45.01076" lon="5.54167">
        <ele>1599.29</ele>
        <time>2012-08-09T06:01:41Z</time>
      </trkpt>
      <trkpt lat="45.01069" lon="5.54184">
        <ele>1602.66</ele>
        <time>2012-08-09T06:01:54Z</time>
      </trkpt>
      <trkpt lat="45.01064" lon="5.54194">
        <ele>1603.62</ele>
        <time>2012-08-09T06:02:01Z</time>
      </trkpt>
      <trkpt lat="45.01059" lon="5.54215">
        <ele>1602.17</ele>
        <time>2012-08-09T06:02:14Z</time>
      </trkpt>
      <trkpt lat="45.01054" lon="5.54239">
        <ele>1604.58</ele>
        <time>2012-08-09T06:02:27Z</time>
      </trkpt>
      <trkpt lat="45.01053" lon="5.5425">
        <ele>1604.58</ele>
        <time>2012-08-09T06:02:34Z</time>
      </trkpt>
      <trkpt lat="45.01047" lon="5.54271">
        <ele>1606.98</ele>
        <time>2012-08-09T06:02:49Z</time>
      </trkpt>
      <trkpt lat="45.01047" lon="5.54278">
        <ele>1606.98</ele>
        <time>2012-08-09T06:03:06Z</time>
      </trkpt>
      <trkpt lat="45.01045" lon="5.54284">
        <ele>1603.62</ele>
        <time>2012-08-09T06:03:21Z</time>
      </trkpt>
      <trkpt lat="45.01047" lon="5.54288">
        <ele>1602.66</ele>
        <time>2012-08-09T06:03:41Z</time>
      </trkpt>
      <trkpt lat="45.01045" lon="5.54288">
        <ele>1601.21</ele>
        <time>2012-08-09T06:03:57Z</time>
      </trkpt>
      <trkpt lat="45.01046" lon="5.54288">
        <ele>1601.21</ele>
        <time>2012-08-09T06:04:22Z</time>
      </trkpt>
      <trkpt lat="45.01047" lon="5.54292">
        <ele>1601.69</ele>
        <time>2012-08-09T06:04:44Z</time>
      </trkpt>
      <trkpt lat="45.01071" lon="5.54299">
        <ele>1602.66</ele>
        <time>2012-08-09T06:05:01Z</time>
      </trkpt>
      <trkpt lat="45.01093" lon="5.54307">
        <ele>1603.14</ele>
        <time>2012-08-09T06:05:20Z</time>
      </trkpt>
      <trkpt lat="45.01109" lon="5.54309">
        <ele>1600.73</ele>
        <time>2012-08-09T06:05:34Z</time>
      </trkpt>
      <trkpt lat="45.01127" lon="5.54312">
        <ele>1599.77</ele>
        <time>2012-08-09T06:05:49Z</time>
      </trkpt>
      <trkpt lat="45.01136" lon="5.54316">
        <ele>1600.25</ele>
        <time>2012-08-09T06:05:57Z</time>
      </trkpt>
      <trkpt lat="45.01139" lon="5.5432">
        <ele>1600.73</ele>
        <time>2012-08-09T06:06:01Z</time>
      </trkpt>
      <trkpt lat="45.01146" lon="5.54325">
        <ele>1601.69</ele>
        <time>2012-08-09T06:06:09Z</time>
      </trkpt>
      <trkpt lat="45.01152" lon="5.54339">
        <ele>1604.1</ele>
        <time>2012-08-09T06:06:20Z</time>
      </trkpt>
      <trkpt lat="45.01151" lon="5.54351">
        <ele>1605.06</ele>
        <time>2012-08-09T06:06:27Z</time>
      </trkpt>
      <trkpt lat="45.01151" lon="5.54356">
        <ele>1605.06</ele>
        <time>2012-08-09T06:06:30Z</time>
      </trkpt>
      <trkpt lat="45.0115" lon="5.54362">
        <ele>1606.02</ele>
        <time>2012-08-09T06:06:35Z</time>
      </trkpt>
      <trkpt lat="45.01152" lon="5.54374">
        <ele>1606.5</ele>
        <time>2012-08-09T06:06:42Z</time>
      </trkpt>
      <trkpt lat="45.01153" lon="5.5439">
        <ele>1607.94</ele>
        <time>2012-08-09T06:06:50Z</time>
      </trkpt>
      <trkpt lat="45.01152" lon="5.54404">
        <ele>1607.46</ele>
        <time>2012-08-09T06:06:58Z</time>
      </trkpt>
      <trkpt lat="45.01151" lon="5.54408">
        <ele>1606.98</ele>
        <time>2012-08-09T06:07:01Z</time>
      </trkpt>
      <trkpt lat="45.01151" lon="5.54422">
        <ele>1606.02</ele>
        <time>2012-08-09T06:07:09Z</time>
      </trkpt>
      <trkpt lat="45.01152" lon="5.54433">
        <ele>1605.06</ele>
        <time>2012-08-09T06:07:16Z</time>
      </trkpt>
      <trkpt lat="45.01154" lon="5.54439">
        <ele>1604.58</ele>
        <time>2012-08-09T06:07:20Z</time>
      </trkpt>
      <trkpt lat="45.01155" lon="5.54458">
        <ele>1601.69</ele>
        <time>2012-08-09T06:07:33Z</time>
      </trkpt>
      <trkpt lat="45.01154" lon="5.54472">
        <ele>1601.21</ele>
        <time>2012-08-09T06:07:41Z</time>
      </trkpt>
      <trkpt lat="45.01153" lon="5.54478">
        <ele>1601.21</ele>
        <time>2012-08-09T06:07:44Z</time>
      </trkpt>
      <trkpt lat="45.01152" lon="5.54485">
        <ele>1600.25</ele>
        <time>2012-08-09T06:07:48Z</time>
      </trkpt>
      <trkpt lat="45.01157" lon="5.54503">
        <ele>1598.81</ele>
        <time>2012-08-09T06:08:00Z</time>
      </trkpt>
      <trkpt lat="45.01177" lon="5.54514">
        <ele>1606.02</ele>
        <time>2012-08-09T06:08:13Z</time>
      </trkpt>
      <trkpt lat="45.01195" lon="5.54514">
        <ele>1614.19</ele>
        <time>2012-08-09T06:08:22Z</time>
      </trkpt>
      <trkpt lat="45.01206" lon="5.54508">
        <ele>1618.52</ele>
        <time>2012-08-09T06:08:31Z</time>
      </trkpt>
      <trkpt lat="45.01225" lon="5.54519">
        <ele>1618.52</ele>
        <time>2012-08-09T06:08:47Z</time>
      </trkpt>
      <trkpt lat="45.01241" lon="5.54537">
        <ele>1616.59</ele>
        <time>2012-08-09T06:09:03Z</time>
      </trkpt>
      <trkpt lat="45.01252" lon="5.54547">
        <ele>1617.56</ele>
        <time>2012-08-09T06:09:13Z</time>
      </trkpt>
      <trkpt lat="45.01256" lon="5.54552">
        <ele>1618.04</ele>
        <time>2012-08-09T06:09:18Z</time>
      </trkpt>
      <trkpt lat="45.0127" lon="5.54569">
        <ele>1617.56</ele>
        <time>2012-08-09T06:09:32Z</time>
      </trkpt>
      <trkpt lat="45.01275" lon="5.54582">
        <ele>1617.56</ele>
        <time>2012-08-09T06:09:40Z</time>
      </trkpt>
      <trkpt lat="45.01276" lon="5.54599">
        <ele>1620.92</ele>
        <time>2012-08-09T06:09:48Z</time>
      </trkpt>
      <trkpt lat="45.01279" lon="5.54624">
        <ele>1623.8</ele>
        <time>2012-08-09T06:10:02Z</time>
      </trkpt>
      <trkpt lat="45.01283" lon="5.54643">
        <ele>1625.73</ele>
        <time>2012-08-09T06:10:13Z</time>
      </trkpt>
      <trkpt lat="45.01286" lon="5.54659">
        <ele>1625.25</ele>
        <time>2012-08-09T06:10:22Z</time>
      </trkpt>
      <trkpt lat="45.01286" lon="5.54672">
        <ele>1626.21</ele>
        <time>2012-08-09T06:10:29Z</time>
      </trkpt>
      <trkpt lat="45.0129" lon="5.54682">
        <ele>1625.73</ele>
        <time>2012-08-09T06:10:35Z</time>
      </trkpt>
      <trkpt lat="45.0129" lon="5.54691">
        <ele>1627.17</ele>
        <time>2012-08-09T06:10:40Z</time>
      </trkpt>
      <trkpt lat="45.01295" lon="5.54711">
        <ele>1629.57</ele>
        <time>2012-08-09T06:10:52Z</time>
      </trkpt>
      <trkpt lat="45.01302" lon="5.54727">
        <ele>1632.94</ele>
        <time>2012-08-09T06:11:05Z</time>
      </trkpt>
      <trkpt lat="45.01311" lon="5.54744">
        <ele>1638.22</ele>
        <time>2012-08-09T06:11:19Z</time>
      </trkpt>
      <trkpt lat="45.01314" lon="5.54757">
        <ele>1640.15</ele>
        <time>2012-08-09T06:11:28Z</time>
      </trkpt>
      <trkpt lat="45.01315" lon="5.54776">
        <ele>1639.19</ele>
        <time>2012-08-09T06:11:41Z</time>
      </trkpt>
      <trkpt lat="45.01316" lon="5.54779">
        <ele>1639.19</ele>
        <time>2012-08-09T06:11:43Z</time>
      </trkpt>
      <trkpt lat="45.01317" lon="5.54789">
        <ele>1640.63</ele>
        <time>2012-08-09T06:11:49Z</time>
      </trkpt>
      <trkpt lat="45.01322" lon="5.54811">
        <ele>1643.03</ele>
        <time>2012-08-09T06:12:02Z</time>
      </trkpt>
      <trkpt lat="45.01322" lon="5.54812">
        <ele>1642.55</ele>
        <time>2012-08-09T06:12:03Z</time>
      </trkpt>
      <trkpt lat="45.01325" lon="5.54819">
        <ele>1641.59</ele>
        <time>2012-08-09T06:12:08Z</time>
      </trkpt>
      <trkpt lat="45.01328" lon="5.54842">
        <ele>1638.22</ele>
        <time>2012-08-09T06:12:22Z</time>
      </trkpt>
      <trkpt lat="45.01328" lon="5.54843">
        <ele>1638.22</ele>
        <time>2012-08-09T06:12:23Z</time>
      </trkpt>
      <trkpt lat="45.01329" lon="5.54863">
        <ele>1637.74</ele>
        <time>2012-08-09T06:12:35Z</time>
      </trkpt>
      <trkpt lat="45.01329" lon="5.54866">
        <ele>1637.26</ele>
        <time>2012-08-09T06:12:37Z</time>
      </trkpt>
      <trkpt lat="45.01331" lon="5.54885">
        <ele>1637.26</ele>
        <time>2012-08-09T06:12:49Z</time>
      </trkpt>
      <trkpt lat="45.01334" lon="5.54903">
        <ele>1638.7</ele>
        <time>2012-08-09T06:12:59Z</time>
      </trkpt>
      <trkpt lat="45.01341" lon="5.54913">
        <ele>1641.59</ele>
        <time>2012-08-09T06:13:07Z</time>
      </trkpt>
      <trkpt lat="45.01344" lon="5.54924">
        <ele>1643.03</ele>
        <time>2012-08-09T06:13:13Z</time>
      </trkpt>
      <trkpt lat="45.01344" lon="5.54927">
        <ele>1643.99</ele>
        <time>2012-08-09T06:13:15Z</time>
      </trkpt>
      <trkpt lat="45.01345" lon="5.54948">
        <ele>1646.88</ele>
        <time>2012-08-09T06:13:28Z</time>
      </trkpt>
      <trkpt lat="45.01345" lon="5.54957">
        <ele>1647.84</ele>
        <time>2012-08-09T06:13:33Z</time>
      </trkpt>
      <trkpt lat="45.01347" lon="5.54967">
        <ele>1649.28</ele>
        <time>2012-08-09T06:13:38Z</time>
      </trkpt>
      <trkpt lat="45.01348" lon="5.54979">
        <ele>1651.68</ele>
        <time>2012-08-09T06:13:45Z</time>
      </trkpt>
      <trkpt lat="45.01349" lon="5.54992">
        <ele>1655.53</ele>
        <time>2012-08-09T06:13:53Z</time>
      </trkpt>
      <trkpt lat="45.01349" lon="5.5501">
        <ele>1659.85</ele>
        <time>2012-08-09T06:14:05Z</time>
      </trkpt>
      <trkpt lat="45.01349" lon="5.55032">
        <ele>1665.62</ele>
        <time>2012-08-09T06:14:20Z</time>
      </trkpt>
      <trkpt lat="45.01348" lon="5.55039">
        <ele>1667.54</ele>
        <time>2012-08-09T06:14:25Z</time>
      </trkpt>
      <trkpt lat="45.01349" lon="5.55062">
        <ele>1671.39</ele>
        <time>2012-08-09T06:14:39Z</time>
      </trkpt>
      <trkpt lat="45.01349" lon="5.55063">
        <ele>1671.39</ele>
        <time>2012-08-09T06:14:40Z</time>
      </trkpt>
      <trkpt lat="45.01352" lon="5.55074">
        <ele>1669.47</ele>
        <time>2012-08-09T06:14:54Z</time>
      </trkpt>
      <trkpt lat="45.01353" lon="5.55077">
        <ele>1668.02</ele>
        <time>2012-08-09T06:15:05Z</time>
      </trkpt>
      <trkpt lat="45.01354" lon="5.55087">
        <ele>1666.58</ele>
        <time>2012-08-09T06:15:15Z</time>
      </trkpt>
      <trkpt lat="45.01354" lon="5.55094">
        <ele>1667.06</ele>
        <time>2012-08-09T06:15:19Z</time>
      </trkpt>
      <trkpt lat="45.01356" lon="5.55105">
        <ele>1668.99</ele>
        <time>2012-08-09T06:15:27Z</time>
      </trkpt>
      <trkpt lat="45.01363" lon="5.55136">
        <ele>1670.43</ele>
        <time>2012-08-09T06:15:47Z</time>
      </trkpt>
      <trkpt lat="45.01372" lon="5.55149">
        <ele>1669.47</ele>
        <time>2012-08-09T06:16:04Z</time>
      </trkpt>
      <trkpt lat="45.01373" lon="5.55157">
        <ele>1669.47</ele>
        <time>2012-08-09T06:16:08Z</time>
      </trkpt>
      <trkpt lat="45.01375" lon="5.55161">
        <ele>1669.47</ele>
        <time>2012-08-09T06:16:10Z</time>
      </trkpt>
      <trkpt lat="45.01376" lon="5.55173">
        <ele>1669.95</ele>
        <time>2012-08-09T06:16:17Z</time>
      </trkpt>
      <trkpt lat="45.01377" lon="5.55178">
        <ele>1669.95</ele>
        <time>2012-08-09T06:16:20Z</time>
      </trkpt>
      <trkpt lat="45.01379" lon="5.55196">
        <ele>1669.47</ele>
        <time>2012-08-09T06:16:31Z</time>
      </trkpt>
      <trkpt lat="45.0138" lon="5.55213">
        <ele>1669.95</ele>
        <time>2012-08-09T06:16:42Z</time>
      </trkpt>
      <trkpt lat="45.01384" lon="5.55232">
        <ele>1672.83</ele>
        <time>2012-08-09T06:16:55Z</time>
      </trkpt>
      <trkpt lat="45.01387" lon="5.55239">
        <ele>1674.27</ele>
        <time>2012-08-09T06:17:01Z</time>
      </trkpt>
      <trkpt lat="45.01394" lon="5.55254">
        <ele>1677.16</ele>
        <time>2012-08-09T06:17:13Z</time>
      </trkpt>
      <trkpt lat="45.01396" lon="5.55259">
        <ele>1677.64</ele>
        <time>2012-08-09T06:17:17Z</time>
      </trkpt>
      <trkpt lat="45.01397" lon="5.55263">
        <ele>1679.08</ele>
        <time>2012-08-09T06:17:20Z</time>
      </trkpt>
      <trkpt lat="45.01401" lon="5.55272">
        <ele>1681</ele>
        <time>2012-08-09T06:17:27Z</time>
      </trkpt>
      <trkpt lat="45.01402" lon="5.55277">
        <ele>1681.48</ele>
        <time>2012-08-09T06:17:30Z</time>
      </trkpt>
      <trkpt lat="45.01403" lon="5.5528">
        <ele>1681.96</ele>
        <time>2012-08-09T06:17:32Z</time>
      </trkpt>
      <trkpt lat="45.01407" lon="5.55301">
        <ele>1685.81</ele>
        <time>2012-08-09T06:17:47Z</time>
      </trkpt>
      <trkpt lat="45.01409" lon="5.5532">
        <ele>1690.14</ele>
        <time>2012-08-09T06:18:02Z</time>
      </trkpt>
      <trkpt lat="45.01411" lon="5.55336">
        <ele>1691.58</ele>
        <time>2012-08-09T06:18:15Z</time>
      </trkpt>
      <trkpt lat="45.01413" lon="5.55353">
        <ele>1693.5</ele>
        <time>2012-08-09T06:18:28Z</time>
      </trkpt>
      <trkpt lat="45.01415" lon="5.55367">
        <ele>1696.86</ele>
        <time>2012-08-09T06:18:40Z</time>
      </trkpt>
      <trkpt lat="45.01418" lon="5.55383">
        <ele>1702.15</ele>
        <time>2012-08-09T06:18:54Z</time>
      </trkpt>
      <trkpt lat="45.0142" lon="5.55401">
        <ele>1706.96</ele>
        <time>2012-08-09T06:19:08Z</time>
      </trkpt>
      <trkpt lat="45.01421" lon="5.55402">
        <ele>1707.44</ele>
        <time>2012-08-09T06:19:09Z</time>
      </trkpt>
      <trkpt lat="45.01422" lon="5.55421">
        <ele>1709.84</ele>
        <time>2012-08-09T06:19:23Z</time>
      </trkpt>
      <trkpt lat="45.01422" lon="5.55428">
        <ele>1710.8</ele>
        <time>2012-08-09T06:19:28Z</time>
      </trkpt>
      <trkpt lat="45.01423" lon="5.55436">
        <ele>1711.76</ele>
        <time>2012-08-09T06:19:34Z</time>
      </trkpt>
      <trkpt lat="45.0142" lon="5.55446">
        <ele>1711.76</ele>
        <time>2012-08-09T06:19:40Z</time>
      </trkpt>
      <trkpt lat="45.01418" lon="5.55449">
        <ele>1712.25</ele>
        <time>2012-08-09T06:19:43Z</time>
      </trkpt>
      <trkpt lat="45.01417" lon="5.55458">
        <ele>1714.17</ele>
        <time>2012-08-09T06:19:58Z</time>
      </trkpt>
      <trkpt lat="45.01414" lon="5.55456">
        <ele>1712.73</ele>
        <time>2012-08-09T06:20:17Z</time>
      </trkpt>
      <trkpt lat="45.01415" lon="5.55453">
        <ele>1711.76</ele>
        <time>2012-08-09T06:20:37Z</time>
      </trkpt>
      <trkpt lat="45.01415" lon="5.55451">
        <ele>1709.36</ele>
        <time>2012-08-09T06:20:54Z</time>
      </trkpt>
      <trkpt lat="45.01413" lon="5.55456">
        <ele>1710.32</ele>
        <time>2012-08-09T06:21:05Z</time>
      </trkpt>
      <trkpt lat="45.01406" lon="5.55474">
        <ele>1709.36</ele>
        <time>2012-08-09T06:21:13Z</time>
      </trkpt>
      <trkpt lat="45.014" lon="5.55484">
        <ele>1709.36</ele>
        <time>2012-08-09T06:21:19Z</time>
      </trkpt>
      <trkpt lat="45.01398" lon="5.55487">
        <ele>1709.84</ele>
        <time>2012-08-09T06:21:22Z</time>
      </trkpt>
      <trkpt lat="45.01387" lon="5.55508">
        <ele>1713.21</ele>
        <time>2012-08-09T06:21:38Z</time>
      </trkpt>
      <trkpt lat="45.01386" lon="5.55513">
        <ele>1714.17</ele>
        <time>2012-08-09T06:21:41Z</time>
      </trkpt>
      <trkpt lat="45.01385" lon="5.55517">
        <ele>1714.65</ele>
        <time>2012-08-09T06:21:44Z</time>
      </trkpt>
      <trkpt lat="45.0138" lon="5.55539">
        <ele>1718.49</ele>
        <time>2012-08-09T06:21:58Z</time>
      </trkpt>
      <trkpt lat="45.01379" lon="5.55554">
        <ele>1719.46</ele>
        <time>2012-08-09T06:22:06Z</time>
      </trkpt>
      <trkpt lat="45.01379" lon="5.55559">
        <ele>1719.94</ele>
        <time>2012-08-09T06:22:10Z</time>
      </trkpt>
      <trkpt lat="45.01379" lon="5.55588">
        <ele>1721.86</ele>
        <time>2012-08-09T06:22:26Z</time>
      </trkpt>
      <trkpt lat="45.01379" lon="5.55594">
        <ele>1722.82</ele>
        <time>2012-08-09T06:22:30Z</time>
      </trkpt>
      <trkpt lat="45.01383" lon="5.55614">
        <ele>1725.7</ele>
        <time>2012-08-09T06:22:43Z</time>
      </trkpt>
      <trkpt lat="45.01384" lon="5.5562">
        <ele>1726.67</ele>
        <time>2012-08-09T06:22:47Z</time>
      </trkpt>
      <trkpt lat="45.01393" lon="5.55638">
        <ele>1728.59</ele>
        <time>2012-08-09T06:23:01Z</time>
      </trkpt>
      <trkpt lat="45.01403" lon="5.55649">
        <ele>1729.55</ele>
        <time>2012-08-09T06:23:13Z</time>
      </trkpt>
      <trkpt lat="45.01421" lon="5.55651">
        <ele>1729.07</ele>
        <time>2012-08-09T06:23:26Z</time>
      </trkpt>
      <trkpt lat="45.01428" lon="5.55655">
        <ele>1728.59</ele>
        <time>2012-08-09T06:23:43Z</time>
      </trkpt>
      <trkpt lat="45.01427" lon="5.5566">
        <ele>1730.03</ele>
        <time>2012-08-09T06:24:00Z</time>
      </trkpt>
      <trkpt lat="45.01431" lon="5.55663">
        <ele>1732.43</ele>
        <time>2012-08-09T06:24:07Z</time>
      </trkpt>
      <trkpt lat="45.01445" lon="5.55665">
        <ele>1733.88</ele>
        <time>2012-08-09T06:24:19Z</time>
      </trkpt>
      <trkpt lat="45.01455" lon="5.55668">
        <ele>1734.36</ele>
        <time>2012-08-09T06:24:34Z</time>
      </trkpt>
      <trkpt lat="45.01461" lon="5.55668">
        <ele>1733.88</ele>
        <time>2012-08-09T06:24:47Z</time>
      </trkpt>
      <trkpt lat="45.01461" lon="5.5567">
        <ele>1733.39</ele>
        <time>2012-08-09T06:24:52Z</time>
      </trkpt>
      <trkpt lat="45.01468" lon="5.55678">
        <ele>1736.28</ele>
        <time>2012-08-09T06:24:59Z</time>
      </trkpt>
      <trkpt lat="45.01461" lon="5.55696">
        <ele>1735.8</ele>
        <time>2012-08-09T06:25:15Z</time>
      </trkpt>
      <trkpt lat="45.01451" lon="5.55715">
        <ele>1737.24</ele>
        <time>2012-08-09T06:25:31Z</time>
      </trkpt>
      <trkpt lat="45.01442" lon="5.55731">
        <ele>1738.68</ele>
        <time>2012-08-09T06:25:45Z</time>
      </trkpt>
      <trkpt lat="45.01435" lon="5.55747">
        <ele>1740.12</ele>
        <time>2012-08-09T06:25:59Z</time>
      </trkpt>
      <trkpt lat="45.01426" lon="5.55766">
        <ele>1744.45</ele>
        <time>2012-08-09T06:26:15Z</time>
      </trkpt>
      <trkpt lat="45.01424" lon="5.55771">
        <ele>1743.97</ele>
        <time>2012-08-09T06:26:21Z</time>
      </trkpt>
      <trkpt lat="45.01415" lon="5.55792">
        <ele>1747.33</ele>
        <time>2012-08-09T06:26:36Z</time>
      </trkpt>
      <trkpt lat="45.01409" lon="5.55811">
        <ele>1749.74</ele>
        <time>2012-08-09T06:26:52Z</time>
      </trkpt>
      <trkpt lat="45.01404" lon="5.55826">
        <ele>1752.14</ele>
        <time>2012-08-09T06:27:05Z</time>
      </trkpt>
      <trkpt lat="45.014" lon="5.55842">
        <ele>1755.5</ele>
        <time>2012-08-09T06:27:19Z</time>
      </trkpt>
      <trkpt lat="45.01398" lon="5.55857">
        <ele>1758.87</ele>
        <time>2012-08-09T06:27:33Z</time>
      </trkpt>
      <trkpt lat="45.01397" lon="5.55875">
        <ele>1762.71</ele>
        <time>2012-08-09T06:27:50Z</time>
      </trkpt>
      <trkpt lat="45.01396" lon="5.5588">
        <ele>1767.52</ele>
        <time>2012-08-09T06:28:05Z</time>
      </trkpt>
      <trkpt lat="45.01396" lon="5.5589">
        <ele>1768</ele>
        <time>2012-08-09T06:28:16Z</time>
      </trkpt>
      <trkpt lat="45.01392" lon="5.55911">
        <ele>1769.44</ele>
        <time>2012-08-09T06:28:32Z</time>
      </trkpt>
      <trkpt lat="45.0139" lon="5.55915">
        <ele>1772.81</ele>
        <time>2012-08-09T06:28:47Z</time>
      </trkpt>
      <trkpt lat="45.01389" lon="5.55911">
        <ele>1773.77</ele>
        <time>2012-08-09T06:29:08Z</time>
      </trkpt>
      <trkpt lat="45.01391" lon="5.55914">
        <ele>1773.77</ele>
        <time>2012-08-09T06:29:35Z</time>
      </trkpt>
      <trkpt lat="45.01392" lon="5.55912">
        <ele>1772.33</ele>
        <time>2012-08-09T06:30:00Z</time>
      </trkpt>
      <trkpt lat="45.01391" lon="5.55915">
        <ele>1771.85</ele>
        <time>2012-08-09T06:30:14Z</time>
      </trkpt>
      <trkpt lat="45.01388" lon="5.5592">
        <ele>1771.85</ele>
        <time>2012-08-09T06:30:18Z</time>
      </trkpt>
      <trkpt lat="45.01378" lon="5.55938">
        <ele>1775.69</ele>
        <time>2012-08-09T06:30:33Z</time>
      </trkpt>
      <trkpt lat="45.01368" lon="5.55954">
        <ele>1778.1</ele>
        <time>2012-08-09T06:30:46Z</time>
      </trkpt>
      <trkpt lat="45.0136" lon="5.55971">
        <ele>1779.06</ele>
        <time>2012-08-09T06:30:58Z</time>
      </trkpt>
      <trkpt lat="45.01355" lon="5.55986">
        <ele>1780.02</ele>
        <time>2012-08-09T06:31:12Z</time>
      </trkpt>
      <trkpt lat="45.01349" lon="5.56005">
        <ele>1783.38</ele>
        <time>2012-08-09T06:31:29Z</time>
      </trkpt>
      <trkpt lat="45.01349" lon="5.56019">
        <ele>1785.79</ele>
        <time>2012-08-09T06:31:42Z</time>
      </trkpt>
      <trkpt lat="45.01352" lon="5.56035">
        <ele>1789.15</ele>
        <time>2012-08-09T06:31:55Z</time>
      </trkpt>
      <trkpt lat="45.01353" lon="5.56048">
        <ele>1793</ele>
        <time>2012-08-09T06:32:09Z</time>
      </trkpt>
      <trkpt lat="45.01352" lon="5.56062">
        <ele>1795.4</ele>
        <time>2012-08-09T06:32:23Z</time>
      </trkpt>
      <trkpt lat="45.01353" lon="5.56076">
        <ele>1800.21</ele>
        <time>2012-08-09T06:32:36Z</time>
      </trkpt>
      <trkpt lat="45.0135" lon="5.5609">
        <ele>1805.49</ele>
        <time>2012-08-09T06:32:51Z</time>
      </trkpt>
      <trkpt lat="45.01347" lon="5.56104">
        <ele>1808.86</ele>
        <time>2012-08-09T06:33:03Z</time>
      </trkpt>
      <trkpt lat="45.01345" lon="5.56117">
        <ele>1811.26</ele>
        <time>2012-08-09T06:33:15Z</time>
      </trkpt>
      <trkpt lat="45.0134" lon="5.56133">
        <ele>1815.11</ele>
        <time>2012-08-09T06:33:29Z</time>
      </trkpt>
      <trkpt lat="45.01335" lon="5.56149">
        <ele>1818.47</ele>
        <time>2012-08-09T06:33:43Z</time>
      </trkpt>
      <trkpt lat="45.01329" lon="5.56164">
        <ele>1820.87</ele>
        <time>2012-08-09T06:33:55Z</time>
      </trkpt>
      <trkpt lat="45.01322" lon="5.56186">
        <ele>1822.8</ele>
        <time>2012-08-09T06:34:10Z</time>
      </trkpt>
      <trkpt lat="45.01319" lon="5.56188">
        <ele>1823.28</ele>
        <time>2012-08-09T06:34:24Z</time>
      </trkpt>
      <trkpt lat="45.01316" lon="5.5619">
        <ele>1826.16</ele>
        <time>2012-08-09T06:34:49Z</time>
      </trkpt>
      <trkpt lat="45.01319" lon="5.56185">
        <ele>1825.2</ele>
        <time>2012-08-09T06:35:05Z</time>
      </trkpt>
      <trkpt lat="45.01321" lon="5.56183">
        <ele>1827.6</ele>
        <time>2012-08-09T06:35:26Z</time>
      </trkpt>
      <trkpt lat="45.01323" lon="5.56184">
        <ele>1824.72</ele>
        <time>2012-08-09T06:35:52Z</time>
      </trkpt>
      <trkpt lat="45.01322" lon="5.56184">
        <ele>1829.05</ele>
        <time>2012-08-09T06:36:25Z</time>
      </trkpt>
      <trkpt lat="45.01321" lon="5.56187">
        <ele>1829.05</ele>
        <time>2012-08-09T06:36:26Z</time>
      </trkpt>
      <trkpt lat="45.01313" lon="5.56213">
        <ele>1828.08</ele>
        <time>2012-08-09T06:36:38Z</time>
      </trkpt>
      <trkpt lat="45.01301" lon="5.56249">
        <ele>1823.28</ele>
        <time>2012-08-09T06:36:58Z</time>
      </trkpt>
      <trkpt lat="45.01297" lon="5.56265">
        <ele>1822.32</ele>
        <time>2012-08-09T06:37:08Z</time>
      </trkpt>
      <trkpt lat="45.01293" lon="5.56273">
        <ele>1821.84</ele>
        <time>2012-08-09T06:37:13Z</time>
      </trkpt>
      <trkpt lat="45.01285" lon="5.56298">
        <ele>1824.24</ele>
        <time>2012-08-09T06:37:29Z</time>
      </trkpt>
      <trkpt lat="45.01279" lon="5.56319">
        <ele>1826.16</ele>
        <time>2012-08-09T06:37:47Z</time>
      </trkpt>
      <trkpt lat="45.01277" lon="5.56336">
        <ele>1828.56</ele>
        <time>2012-08-09T06:38:00Z</time>
      </trkpt>
      <trkpt lat="45.01274" lon="5.56347">
        <ele>1830.97</ele>
        <time>2012-08-09T06:38:09Z</time>
      </trkpt>
      <trkpt lat="45.01274" lon="5.56351">
        <ele>1831.93</ele>
        <time>2012-08-09T06:38:12Z</time>
      </trkpt>
      <trkpt lat="45.01274" lon="5.56354">
        <ele>1832.41</ele>
        <time>2012-08-09T06:38:14Z</time>
      </trkpt>
      <trkpt lat="45.01276" lon="5.56375">
        <ele>1835.29</ele>
        <time>2012-08-09T06:38:28Z</time>
      </trkpt>
      <trkpt lat="45.01276" lon="5.56383">
        <ele>1835.77</ele>
        <time>2012-08-09T06:38:34Z</time>
      </trkpt>
      <trkpt lat="45.01276" lon="5.56388">
        <ele>1836.26</ele>
        <time>2012-08-09T06:38:37Z</time>
      </trkpt>
      <trkpt lat="45.01279" lon="5.564">
        <ele>1839.14</ele>
        <time>2012-08-09T06:38:52Z</time>
      </trkpt>
      <trkpt lat="45.0128" lon="5.56418">
        <ele>1839.62</ele>
        <time>2012-08-09T06:39:05Z</time>
      </trkpt>
      <trkpt lat="45.01281" lon="5.56434">
        <ele>1842.5</ele>
        <time>2012-08-09T06:39:17Z</time>
      </trkpt>
      <trkpt lat="45.01281" lon="5.56453">
        <ele>1846.83</ele>
        <time>2012-08-09T06:39:31Z</time>
      </trkpt>
      <trkpt lat="45.01277" lon="5.56471">
        <ele>1853.08</ele>
        <time>2012-08-09T06:39:46Z</time>
      </trkpt>
      <trkpt lat="45.01273" lon="5.56487">
        <ele>1856.92</ele>
        <time>2012-08-09T06:40:00Z</time>
      </trkpt>
      <trkpt lat="45.01271" lon="5.56504">
        <ele>1859.81</ele>
        <time>2012-08-09T06:40:14Z</time>
      </trkpt>
      <trkpt lat="45.0127" lon="5.56506">
        <ele>1860.77</ele>
        <time>2012-08-09T06:40:16Z</time>
      </trkpt>
      <trkpt lat="45.01262" lon="5.56524">
        <ele>1863.17</ele>
        <time>2012-08-09T06:40:31Z</time>
      </trkpt>
      <trkpt lat="45.0126" lon="5.56528">
        <ele>1863.17</ele>
        <time>2012-08-09T06:40:33Z</time>
      </trkpt>
      <trkpt lat="45.01253" lon="5.56548">
        <ele>1866.06</ele>
        <time>2012-08-09T06:40:47Z</time>
      </trkpt>
      <trkpt lat="45.01248" lon="5.56559">
        <ele>1867.02</ele>
        <time>2012-08-09T06:40:56Z</time>
      </trkpt>
      <trkpt lat="45.01239" lon="5.5658">
        <ele>1868.94</ele>
        <time>2012-08-09T06:41:12Z</time>
      </trkpt>
      <trkpt lat="45.01227" lon="5.56602">
        <ele>1870.86</ele>
        <time>2012-08-09T06:41:30Z</time>
      </trkpt>
      <trkpt lat="45.01211" lon="5.56624">
        <ele>1869.42</ele>
        <time>2012-08-09T06:41:49Z</time>
      </trkpt>
      <trkpt lat="45.01208" lon="5.56628">
        <ele>1869.42</ele>
        <time>2012-08-09T06:41:53Z</time>
      </trkpt>
      <trkpt lat="45.01204" lon="5.56632">
        <ele>1867.02</ele>
        <time>2012-08-09T06:42:11Z</time>
      </trkpt>
      <trkpt lat="45.01201" lon="5.56631">
        <ele>1866.54</ele>
        <time>2012-08-09T06:42:29Z</time>
      </trkpt>
      <trkpt lat="45.01205" lon="5.56628">
        <ele>1866.06</ele>
        <time>2012-08-09T06:42:53Z</time>
      </trkpt>
      <trkpt lat="45.01195" lon="5.56642">
        <ele>1867.98</ele>
        <time>2012-08-09T06:43:18Z</time>
      </trkpt>
      <trkpt lat="45.01182" lon="5.56662">
        <ele>1866.06</ele>
        <time>2012-08-09T06:43:35Z</time>
      </trkpt>
      <trkpt lat="45.01179" lon="5.56668">
        <ele>1867.5</ele>
        <time>2012-08-09T06:43:50Z</time>
      </trkpt>
      <trkpt lat="45.01171" lon="5.56676">
        <ele>1869.42</ele>
        <time>2012-08-09T06:44:04Z</time>
      </trkpt>
      <trkpt lat="45.01168" lon="5.56685">
        <ele>1873.75</ele>
        <time>2012-08-09T06:44:18Z</time>
      </trkpt>
      <trkpt lat="45.01168" lon="5.5669">
        <ele>1873.27</ele>
        <time>2012-08-09T06:44:43Z</time>
      </trkpt>
      <trkpt lat="45.01154" lon="5.56699">
        <ele>1877.59</ele>
        <time>2012-08-09T06:44:57Z</time>
      </trkpt>
      <trkpt lat="45.01144" lon="5.56708">
        <ele>1882.4</ele>
        <time>2012-08-09T06:45:12Z</time>
      </trkpt>
      <trkpt lat="45.0114" lon="5.56713">
        <ele>1885.76</ele>
        <time>2012-08-09T06:45:28Z</time>
      </trkpt>
      <trkpt lat="45.01133" lon="5.56718">
        <ele>1887.69</ele>
        <time>2012-08-09T06:45:42Z</time>
      </trkpt>
      <trkpt lat="45.01126" lon="5.56732">
        <ele>1890.57</ele>
        <time>2012-08-09T06:45:56Z</time>
      </trkpt>
      <trkpt lat="45.01125" lon="5.56737">
        <ele>1891.53</ele>
        <time>2012-08-09T06:46:00Z</time>
      </trkpt>
      <trkpt lat="45.01124" lon="5.56744">
        <ele>1892.49</ele>
        <time>2012-08-09T06:46:05Z</time>
      </trkpt>
      <trkpt lat="45.01125" lon="5.56759">
        <ele>1894.42</ele>
        <time>2012-08-09T06:46:16Z</time>
      </trkpt>
      <trkpt lat="45.01127" lon="5.56781">
        <ele>1898.26</ele>
        <time>2012-08-09T06:46:32Z</time>
      </trkpt>
      <trkpt lat="45.01127" lon="5.56783">
        <ele>1898.26</ele>
        <time>2012-08-09T06:46:33Z</time>
      </trkpt>
      <trkpt lat="45.01124" lon="5.568">
        <ele>1900.18</ele>
        <time>2012-08-09T06:46:46Z</time>
      </trkpt>
      <trkpt lat="45.01124" lon="5.56821">
        <ele>1903.55</ele>
        <time>2012-08-09T06:47:01Z</time>
      </trkpt>
      <trkpt lat="45.01126" lon="5.56838">
        <ele>1906.43</ele>
        <time>2012-08-09T06:47:16Z</time>
      </trkpt>
      <trkpt lat="45.01128" lon="5.56853">
        <ele>1909.8</ele>
        <time>2012-08-09T06:47:30Z</time>
      </trkpt>
      <trkpt lat="45.01129" lon="5.56872">
        <ele>1915.08</ele>
        <time>2012-08-09T06:47:45Z</time>
      </trkpt>
      <trkpt lat="45.01129" lon="5.56894">
        <ele>1918.45</ele>
        <time>2012-08-09T06:48:00Z</time>
      </trkpt>
      <trkpt lat="45.01127" lon="5.56898">
        <ele>1918.93</ele>
        <time>2012-08-09T06:48:14Z</time>
      </trkpt>
      <trkpt lat="45.01127" lon="5.56903">
        <ele>1919.89</ele>
        <time>2012-08-09T06:48:29Z</time>
      </trkpt>
      <trkpt lat="45.01126" lon="5.56901">
        <ele>1920.85</ele>
        <time>2012-08-09T06:48:52Z</time>
      </trkpt>
      <trkpt lat="45.01122" lon="5.56916">
        <ele>1919.89</ele>
        <time>2012-08-09T06:49:06Z</time>
      </trkpt>
      <trkpt lat="45.01118" lon="5.56925">
        <ele>1920.37</ele>
        <time>2012-08-09T06:49:14Z</time>
      </trkpt>
      <trkpt lat="45.01111" lon="5.5694">
        <ele>1919.89</ele>
        <time>2012-08-09T06:49:30Z</time>
      </trkpt>
      <trkpt lat="45.01107" lon="5.56946">
        <ele>1919.89</ele>
        <time>2012-08-09T06:49:35Z</time>
      </trkpt>
      <trkpt lat="45.01096" lon="5.5696">
        <ele>1922.77</ele>
        <time>2012-08-09T06:49:49Z</time>
      </trkpt>
      <trkpt lat="45.01093" lon="5.56964">
        <ele>1924.7</ele>
        <time>2012-08-09T06:49:54Z</time>
      </trkpt>
      <trkpt lat="45.0109" lon="5.56965">
        <ele>1926.14</ele>
        <time>2012-08-09T06:49:57Z</time>
      </trkpt>
      <trkpt lat="45.01088" lon="5.56966">
        <ele>1927.1</ele>
        <time>2012-08-09T06:49:59Z</time>
      </trkpt>
      <trkpt lat="45.01076" lon="5.56974">
        <ele>1931.91</ele>
        <time>2012-08-09T06:50:11Z</time>
      </trkpt>
      <trkpt lat="45.01074" lon="5.56975">
        <ele>1932.39</ele>
        <time>2012-08-09T06:50:13Z</time>
      </trkpt>
      <trkpt lat="45.01068" lon="5.56979">
        <ele>1933.83</ele>
        <time>2012-08-09T06:50:18Z</time>
      </trkpt>
      <trkpt lat="45.01059" lon="5.56999">
        <ele>1935.27</ele>
        <time>2012-08-09T06:50:32Z</time>
      </trkpt>
      <trkpt lat="45.01053" lon="5.57011">
        <ele>1934.31</ele>
        <time>2012-08-09T06:50:41Z</time>
      </trkpt>
      <trkpt lat="45.01044" lon="5.57024">
        <ele>1933.83</ele>
        <time>2012-08-09T06:50:54Z</time>
      </trkpt>
      <trkpt lat="45.01031" lon="5.57033">
        <ele>1934.79</ele>
        <time>2012-08-09T06:51:08Z</time>
      </trkpt>
      <trkpt lat="45.01019" lon="5.57036">
        <ele>1936.23</ele>
        <time>2012-08-09T06:51:22Z</time>
      </trkpt>
      <trkpt lat="45.01016" lon="5.57035">
        <ele>1937.19</ele>
        <time>2012-08-09T06:51:36Z</time>
      </trkpt>
      <trkpt lat="45.01011" lon="5.5703">
        <ele>1937.67</ele>
        <time>2012-08-09T06:51:54Z</time>
      </trkpt>
      <trkpt lat="45.01011" lon="5.57029">
        <ele>1938.16</ele>
        <time>2012-08-09T06:51:58Z</time>
      </trkpt>
      <trkpt lat="45.0101" lon="5.57023">
        <ele>1938.16</ele>
        <time>2012-08-09T06:52:12Z</time>
      </trkpt>
      <trkpt lat="45.01001" lon="5.57005">
        <ele>1936.23</ele>
        <time>2012-08-09T06:52:24Z</time>
      </trkpt>
      <trkpt lat="45.00996" lon="5.57">
        <ele>1933.35</ele>
        <time>2012-08-09T06:52:31Z</time>
      </trkpt>
      <trkpt lat="45.00991" lon="5.57001">
        <ele>1933.35</ele>
        <time>2012-08-09T06:52:35Z</time>
      </trkpt>
      <trkpt lat="45.00986" lon="5.57001">
        <ele>1933.83</ele>
        <time>2012-08-09T06:52:38Z</time>
      </trkpt>
      <trkpt lat="45.00979" lon="5.57002">
        <ele>1936.71</ele>
        <time>2012-08-09T06:52:52Z</time>
      </trkpt>
      <trkpt lat="45.00978" lon="5.57001">
        <ele>1937.67</ele>
        <time>2012-08-09T06:53:05Z</time>
      </trkpt>
      <trkpt lat="45.0098" lon="5.56997">
        <ele>1935.75</ele>
        <time>2012-08-09T06:53:29Z</time>
      </trkpt>
      <trkpt lat="45.00979" lon="5.57001">
        <ele>1934.79</ele>
        <time>2012-08-09T06:53:44Z</time>
      </trkpt>
      <trkpt lat="45.00985" lon="5.57005">
        <ele>1932.87</ele>
        <time>2012-08-09T06:54:08Z</time>
      </trkpt>
      <trkpt lat="45.00985" lon="5.57006">
        <ele>1929.98</ele>
        <time>2012-08-09T06:54:36Z</time>
      </trkpt>
      <trkpt lat="45.00986" lon="5.57003">
        <ele>1930.46</ele>
        <time>2012-08-09T06:55:03Z</time>
      </trkpt>
      <trkpt lat="45.00982" lon="5.57004">
        <ele>1935.75</ele>
        <time>2012-08-09T06:55:27Z</time>
      </trkpt>
      <trkpt lat="45.00983" lon="5.57001">
        <ele>1933.83</ele>
        <time>2012-08-09T06:55:45Z</time>
      </trkpt>
      <trkpt lat="45.00983" lon="5.57">
        <ele>1932.87</ele>
        <time>2012-08-09T06:56:04Z</time>
      </trkpt>
      <trkpt lat="45.00984" lon="5.57002">
        <ele>1931.91</ele>
        <time>2012-08-09T06:56:23Z</time>
      </trkpt>
      <trkpt lat="45.00982" lon="5.57003">
        <ele>1934.79</ele>
        <time>2012-08-09T06:56:42Z</time>
      </trkpt>
      <trkpt lat="45.00982" lon="5.57008">
        <ele>1936.23</ele>
        <time>2012-08-09T06:56:56Z</time>
      </trkpt>
      <trkpt lat="45.0098" lon="5.57012">
        <ele>1937.19</ele>
        <time>2012-08-09T06:57:23Z</time>
      </trkpt>
      <trkpt lat="45.00978" lon="5.57012">
        <ele>1939.12</ele>
        <time>2012-08-09T06:57:42Z</time>
      </trkpt>
      <trkpt lat="45.00975" lon="5.57016">
        <ele>1933.83</ele>
        <time>2012-08-09T06:58:04Z</time>
      </trkpt>
      <trkpt lat="45.00978" lon="5.5702">
        <ele>1930.46</ele>
        <time>2012-08-09T06:58:26Z</time>
      </trkpt>
      <trkpt lat="45.00982" lon="5.57011">
        <ele>1929.98</ele>
        <time>2012-08-09T06:58:50Z</time>
      </trkpt>
      <trkpt lat="45.00978" lon="5.57004">
        <ele>1930.95</ele>
        <time>2012-08-09T06:59:24Z</time>
      </trkpt>
      <trkpt lat="45.00983" lon="5.56998">
        <ele>1932.39</ele>
        <time>2012-08-09T06:59:42Z</time>
      </trkpt>
      <trkpt lat="45.00979" lon="5.56996">
        <ele>1936.23</ele>
        <time>2012-08-09T07:00:08Z</time>
      </trkpt>
      <trkpt lat="45.00983" lon="5.56997">
        <ele>1931.91</ele>
        <time>2012-08-09T07:00:25Z</time>
      </trkpt>
      <trkpt lat="45.00979" lon="5.56998">
        <ele>1928.54</ele>
        <time>2012-08-09T07:00:43Z</time>
      </trkpt>
      <trkpt lat="45.00982" lon="5.56997">
        <ele>1925.66</ele>
        <time>2012-08-09T07:01:07Z</time>
      </trkpt>
      <trkpt lat="45.00984" lon="5.57">
        <ele>1928.54</ele>
        <time>2012-08-09T07:01:35Z</time>
      </trkpt>
      <trkpt lat="45.00981" lon="5.56999">
        <ele>1929.5</ele>
        <time>2012-08-09T07:01:58Z</time>
      </trkpt>
      <trkpt lat="45.00989" lon="5.57002">
        <ele>1929.5</ele>
        <time>2012-08-09T07:02:05Z</time>
      </trkpt>
      <trkpt lat="45.00994" lon="5.57002">
        <ele>1930.46</ele>
        <time>2012-08-09T07:02:09Z</time>
      </trkpt>
      <trkpt lat="45.01014" lon="5.57021">
        <ele>1929.98</ele>
        <time>2012-08-09T07:02:24Z</time>
      </trkpt>
      <trkpt lat="45.01019" lon="5.57047">
        <ele>1931.43</ele>
        <time>2012-08-09T07:02:39Z</time>
      </trkpt>
      <trkpt lat="45.0101" lon="5.57077">
        <ele>1933.35</ele>
        <time>2012-08-09T07:02:54Z</time>
      </trkpt>
      <trkpt lat="45.01004" lon="5.57085">
        <ele>1933.83</ele>
        <time>2012-08-09T07:03:04Z</time>
      </trkpt>
      <trkpt lat="45.00991" lon="5.57102">
        <ele>1935.27</ele>
        <time>2012-08-09T07:03:22Z</time>
      </trkpt>
      <trkpt lat="45.00988" lon="5.571">
        <ele>1937.67</ele>
        <time>2012-08-09T07:03:37Z</time>
      </trkpt>
      <trkpt lat="45.00989" lon="5.57093">
        <ele>1939.12</ele>
        <time>2012-08-09T07:03:58Z</time>
      </trkpt>
      <trkpt lat="45.00989" lon="5.57095">
        <ele>1940.56</ele>
        <time>2012-08-09T07:04:27Z</time>
      </trkpt>
      <trkpt lat="45.00986" lon="5.57103">
        <ele>1940.08</ele>
        <time>2012-08-09T07:04:49Z</time>
      </trkpt>
      <trkpt lat="45.00986" lon="5.57103">
        <ele>1940.08</ele>
        <time>2012-08-09T07:04:50Z</time>
      </trkpt>
      <trkpt lat="45.00988" lon="5.5711">
        <ele>1939.12</ele>
        <time>2012-08-09T07:05:01Z</time>
      </trkpt>
      <trkpt lat="45.00985" lon="5.57117">
        <ele>1942</ele>
        <time>2012-08-09T07:05:15Z</time>
      </trkpt>
      <trkpt lat="45.00988" lon="5.57118">
        <ele>1944.88</ele>
        <time>2012-08-09T07:05:25Z</time>
      </trkpt>
      <trkpt lat="45.00988" lon="5.57119">
        <ele>1946.33</ele>
        <time>2012-08-09T07:05:46Z</time>
      </trkpt>
      <trkpt lat="45.00991" lon="5.57124">
        <ele>1948.25</ele>
        <time>2012-08-09T07:05:58Z</time>
      </trkpt>
      <trkpt lat="45.00989" lon="5.57125">
        <ele>1952.09</ele>
        <time>2012-08-09T07:06:09Z</time>
      </trkpt>
      <trkpt lat="45.00987" lon="5.57128">
        <ele>1952.57</ele>
        <time>2012-08-09T07:06:20Z</time>
      </trkpt>
      <trkpt lat="45.00983" lon="5.57131">
        <ele>1955.94</ele>
        <time>2012-08-09T07:06:35Z</time>
      </trkpt>
      <trkpt lat="45.00981" lon="5.57127">
        <ele>1955.94</ele>
        <time>2012-08-09T07:06:50Z</time>
      </trkpt>
      <trkpt lat="45.0098" lon="5.57129">
        <ele>1954.98</ele>
        <time>2012-08-09T07:07:08Z</time>
      </trkpt>
      <trkpt lat="45.0098" lon="5.57128">
        <ele>1953.06</ele>
        <time>2012-08-09T07:07:42Z</time>
      </trkpt>
      <trkpt lat="45.00984" lon="5.57132">
        <ele>1954.5</ele>
        <time>2012-08-09T07:08:04Z</time>
      </trkpt>
      <trkpt lat="45.00982" lon="5.57132">
        <ele>1954.98</ele>
        <time>2012-08-09T07:08:23Z</time>
      </trkpt>
      <trkpt lat="45.00981" lon="5.5713">
        <ele>1958.82</ele>
        <time>2012-08-09T07:08:38Z</time>
      </trkpt>
      <trkpt lat="45.00987" lon="5.57128">
        <ele>1957.38</ele>
        <time>2012-08-09T07:08:48Z</time>
      </trkpt>
      <trkpt lat="45.00991" lon="5.57124">
        <ele>1952.57</ele>
        <time>2012-08-09T07:09:01Z</time>
      </trkpt>
      <trkpt lat="45.00989" lon="5.57116">
        <ele>1950.17</ele>
        <time>2012-08-09T07:09:14Z</time>
      </trkpt>
      <trkpt lat="45.00991" lon="5.57109">
        <ele>1947.77</ele>
        <time>2012-08-09T07:09:27Z</time>
      </trkpt>
      <trkpt lat="45.00994" lon="5.57106">
        <ele>1944.4</ele>
        <time>2012-08-09T07:09:39Z</time>
      </trkpt>
      <trkpt lat="45.00986" lon="5.57103">
        <ele>1941.04</ele>
        <time>2012-08-09T07:09:50Z</time>
      </trkpt>
      <trkpt lat="45.00987" lon="5.57098">
        <ele>1939.12</ele>
        <time>2012-08-09T07:09:53Z</time>
      </trkpt>
      <trkpt lat="45.00987" lon="5.57095">
        <ele>1938.64</ele>
        <time>2012-08-09T07:09:54Z</time>
      </trkpt>
      <trkpt lat="45.00987" lon="5.57093">
        <ele>1938.16</ele>
        <time>2012-08-09T07:09:55Z</time>
      </trkpt>
      <trkpt lat="45.00989" lon="5.57094">
        <ele>1936.71</ele>
        <time>2012-08-09T07:10:04Z</time>
      </trkpt>
      <trkpt lat="45.00988" lon="5.57093">
        <ele>1939.12</ele>
        <time>2012-08-09T07:10:16Z</time>
      </trkpt>
      <trkpt lat="45.00988" lon="5.57094">
        <ele>1939.6</ele>
        <time>2012-08-09T07:10:19Z</time>
      </trkpt>
      <trkpt lat="45.00987" lon="5.57094">
        <ele>1939.6</ele>
        <time>2012-08-09T07:10:20Z</time>
      </trkpt>
      <trkpt lat="45.0098" lon="5.57099">
        <ele>1940.08</ele>
        <time>2012-08-09T07:10:28Z</time>
      </trkpt>
      <trkpt lat="45.0097" lon="5.57112">
        <ele>1940.56</ele>
        <time>2012-08-09T07:10:44Z</time>
      </trkpt>
      <trkpt lat="45.00958" lon="5.57116">
        <ele>1941.52</ele>
        <time>2012-08-09T07:10:58Z</time>
      </trkpt>
      <trkpt lat="45.00951" lon="5.57124">
        <ele>1942.96</ele>
        <time>2012-08-09T07:11:12Z</time>
      </trkpt>
      <trkpt lat="45.00944" lon="5.57134">
        <ele>1944.88</ele>
        <time>2012-08-09T07:11:25Z</time>
      </trkpt>
      <trkpt lat="45.00938" lon="5.57144">
        <ele>1945.36</ele>
        <time>2012-08-09T07:11:37Z</time>
      </trkpt>
      <trkpt lat="45.00928" lon="5.57159">
        <ele>1945.85</ele>
        <time>2012-08-09T07:11:53Z</time>
      </trkpt>
      <trkpt lat="45.0092" lon="5.57167">
        <ele>1946.81</ele>
        <time>2012-08-09T07:12:04Z</time>
      </trkpt>
      <trkpt lat="45.00917" lon="5.57177">
        <ele>1951.61</ele>
        <time>2012-08-09T07:12:17Z</time>
      </trkpt>
      <trkpt lat="45.00909" lon="5.5718">
        <ele>1950.65</ele>
        <time>2012-08-09T07:12:37Z</time>
      </trkpt>
      <trkpt lat="45.00892" lon="5.57182">
        <ele>1951.13</ele>
        <time>2012-08-09T07:12:52Z</time>
      </trkpt>
      <trkpt lat="45.00878" lon="5.57189">
        <ele>1953.06</ele>
        <time>2012-08-09T07:13:06Z</time>
      </trkpt>
      <trkpt lat="45.00864" lon="5.57199">
        <ele>1957.38</ele>
        <time>2012-08-09T07:13:21Z</time>
      </trkpt>
      <trkpt lat="45.0086" lon="5.57201">
        <ele>1959.3</ele>
        <time>2012-08-09T07:13:25Z</time>
      </trkpt>
      <trkpt lat="45.00854" lon="5.57204">
        <ele>1961.71</ele>
        <time>2012-08-09T07:13:32Z</time>
      </trkpt>
      <trkpt lat="45.00841" lon="5.57207">
        <ele>1964.11</ele>
        <time>2012-08-09T07:13:46Z</time>
      </trkpt>
      <trkpt lat="45.00831" lon="5.57212">
        <ele>1968.44</ele>
        <time>2012-08-09T07:13:59Z</time>
      </trkpt>
      <trkpt lat="45.00819" lon="5.57216">
        <ele>1969.4</ele>
        <time>2012-08-09T07:14:12Z</time>
      </trkpt>
      <trkpt lat="45.0081" lon="5.57218">
        <ele>1972.28</ele>
        <time>2012-08-09T07:14:21Z</time>
      </trkpt>
      <trkpt lat="45.00795" lon="5.57226">
        <ele>1977.57</ele>
        <time>2012-08-09T07:14:38Z</time>
      </trkpt>
      <trkpt lat="45.00786" lon="5.57233">
        <ele>1982.86</ele>
        <time>2012-08-09T07:14:50Z</time>
      </trkpt>
      <trkpt lat="45.00784" lon="5.57233">
        <ele>1983.34</ele>
        <time>2012-08-09T07:14:51Z</time>
      </trkpt>
      <trkpt lat="45.00771" lon="5.5724">
        <ele>1987.18</ele>
        <time>2012-08-09T07:15:07Z</time>
      </trkpt>
      <trkpt lat="45.00766" lon="5.57242">
        <ele>1989.1</ele>
        <time>2012-08-09T07:15:13Z</time>
      </trkpt>
      <trkpt lat="45.00755" lon="5.57248">
        <ele>1992.47</ele>
        <time>2012-08-09T07:15:26Z</time>
      </trkpt>
      <trkpt lat="45.00751" lon="5.57251">
        <ele>1993.91</ele>
        <time>2012-08-09T07:15:31Z</time>
      </trkpt>
      <trkpt lat="45.00743" lon="5.57258">
        <ele>1998.72</ele>
        <time>2012-08-09T07:15:43Z</time>
      </trkpt>
      <trkpt lat="45.00736" lon="5.57263">
        <ele>2001.6</ele>
        <time>2012-08-09T07:15:55Z</time>
      </trkpt>
      <trkpt lat="45.00738" lon="5.57266">
        <ele>2002.08</ele>
        <time>2012-08-09T07:16:16Z</time>
      </trkpt>
      <trkpt lat="45.00734" lon="5.57271">
        <ele>2002.08</ele>
        <time>2012-08-09T07:16:42Z</time>
      </trkpt>
      <trkpt lat="45.00722" lon="5.57277">
        <ele>2003.52</ele>
        <time>2012-08-09T07:16:54Z</time>
      </trkpt>
      <trkpt lat="45.00707" lon="5.57282">
        <ele>2006.89</ele>
        <time>2012-08-09T07:17:09Z</time>
      </trkpt>
      <trkpt lat="45.00695" lon="5.57292">
        <ele>2003.52</ele>
        <time>2012-08-09T07:17:23Z</time>
      </trkpt>
      <trkpt lat="45.00692" lon="5.57294">
        <ele>2003.52</ele>
        <time>2012-08-09T07:17:26Z</time>
      </trkpt>
      <trkpt lat="45.00687" lon="5.573">
        <ele>2004.97</ele>
        <time>2012-08-09T07:17:34Z</time>
      </trkpt>
      <trkpt lat="45.00677" lon="5.57303">
        <ele>2008.81</ele>
        <time>2012-08-09T07:17:47Z</time>
      </trkpt>
      <trkpt lat="45.00666" lon="5.57307">
        <ele>2013.14</ele>
        <time>2012-08-09T07:18:05Z</time>
      </trkpt>
      <trkpt lat="45.00657" lon="5.57312">
        <ele>2015.54</ele>
        <time>2012-08-09T07:18:17Z</time>
      </trkpt>
      <trkpt lat="45.00641" lon="5.5732">
        <ele>2017.46</ele>
        <time>2012-08-09T07:18:33Z</time>
      </trkpt>
      <trkpt lat="45.00632" lon="5.57331">
        <ele>2018.43</ele>
        <time>2012-08-09T07:18:47Z</time>
      </trkpt>
      <trkpt lat="45.00622" lon="5.5734">
        <ele>2018.43</ele>
        <time>2012-08-09T07:19:01Z</time>
      </trkpt>
      <trkpt lat="45.00614" lon="5.57345">
        <ele>2020.35</ele>
        <time>2012-08-09T07:19:17Z</time>
      </trkpt>
      <trkpt lat="45.00608" lon="5.57348">
        <ele>2022.27</ele>
        <time>2012-08-09T07:19:31Z</time>
      </trkpt>
      <trkpt lat="45.00595" lon="5.57357">
        <ele>2025.64</ele>
        <time>2012-08-09T07:19:46Z</time>
      </trkpt>
      <trkpt lat="45.0059" lon="5.57363">
        <ele>2027.56</ele>
        <time>2012-08-09T07:19:59Z</time>
      </trkpt>
      <trkpt lat="45.00581" lon="5.57371">
        <ele>2029.48</ele>
        <time>2012-08-09T07:20:18Z</time>
      </trkpt>
      <trkpt lat="45.00578" lon="5.57373">
        <ele>2029</ele>
        <time>2012-08-09T07:20:20Z</time>
      </trkpt>
      <trkpt lat="45.00575" lon="5.5738">
        <ele>2028.04</ele>
        <time>2012-08-09T07:20:25Z</time>
      </trkpt>
      <trkpt lat="45.00574" lon="5.57382">
        <ele>2028.04</ele>
        <time>2012-08-09T07:20:26Z</time>
      </trkpt>
      <trkpt lat="45.00573" lon="5.57383">
        <ele>2028.04</ele>
        <time>2012-08-09T07:20:27Z</time>
      </trkpt>
      <trkpt lat="45.00572" lon="5.57385">
        <ele>2028.04</ele>
        <time>2012-08-09T07:20:28Z</time>
      </trkpt>
      <trkpt lat="45.00572" lon="5.57386">
        <ele>2028.04</ele>
        <time>2012-08-09T07:20:29Z</time>
      </trkpt>
      <trkpt lat="45.00571" lon="5.57388">
        <ele>2027.56</ele>
        <time>2012-08-09T07:20:30Z</time>
      </trkpt>
      <trkpt lat="45.00571" lon="5.5739">
        <ele>2027.56</ele>
        <time>2012-08-09T07:20:31Z</time>
      </trkpt>
      <trkpt lat="45.0057" lon="5.57391">
        <ele>2027.08</ele>
        <time>2012-08-09T07:20:32Z</time>
      </trkpt>
      <trkpt lat="45.00569" lon="5.57393">
        <ele>2027.08</ele>
        <time>2012-08-09T07:20:33Z</time>
      </trkpt>
      <trkpt lat="45.00568" lon="5.57394">
        <ele>2026.6</ele>
        <time>2012-08-09T07:20:34Z</time>
      </trkpt>
      <trkpt lat="45.00553" lon="5.57406">
        <ele>2025.15</ele>
        <time>2012-08-09T07:20:47Z</time>
      </trkpt>
      <trkpt lat="45.00537" lon="5.57417">
        <ele>2022.27</ele>
        <time>2012-08-09T07:21:01Z</time>
      </trkpt>
      <trkpt lat="45.00524" lon="5.5743">
        <ele>2021.79</ele>
        <time>2012-08-09T07:21:14Z</time>
      </trkpt>
      <trkpt lat="45.0052" lon="5.57433">
        <ele>2022.27</ele>
        <time>2012-08-09T07:21:18Z</time>
      </trkpt>
      <trkpt lat="45.00509" lon="5.57437">
        <ele>2023.71</ele>
        <time>2012-08-09T07:21:32Z</time>
      </trkpt>
      <trkpt lat="45.00504" lon="5.57448">
        <ele>2025.15</ele>
        <time>2012-08-09T07:21:44Z</time>
      </trkpt>
      <trkpt lat="45.00499" lon="5.57455">
        <ele>2024.67</ele>
        <time>2012-08-09T07:21:56Z</time>
      </trkpt>
      <trkpt lat="45.00497" lon="5.57451">
        <ele>2024.67</ele>
        <time>2012-08-09T07:22:19Z</time>
      </trkpt>
      <trkpt lat="45.00492" lon="5.57457">
        <ele>2026.12</ele>
        <time>2012-08-09T07:22:45Z</time>
      </trkpt>
      <trkpt lat="45.00481" lon="5.57467">
        <ele>2026.6</ele>
        <time>2012-08-09T07:22:57Z</time>
      </trkpt>
      <trkpt lat="45.00467" lon="5.5748">
        <ele>2024.67</ele>
        <time>2012-08-09T07:23:11Z</time>
      </trkpt>
      <trkpt lat="45.0046" lon="5.57497">
        <ele>2023.23</ele>
        <time>2012-08-09T07:23:26Z</time>
      </trkpt>
      <trkpt lat="45.0046" lon="5.57501">
        <ele>2028.04</ele>
        <time>2012-08-09T07:23:45Z</time>
      </trkpt>
      <trkpt lat="45.00462" lon="5.57506">
        <ele>2032.84</ele>
        <time>2012-08-09T07:24:09Z</time>
      </trkpt>
      <trkpt lat="45.00465" lon="5.57521">
        <ele>2031.88</ele>
        <time>2012-08-09T07:24:22Z</time>
      </trkpt>
      <trkpt lat="45.00468" lon="5.57527">
        <ele>2032.36</ele>
        <time>2012-08-09T07:24:27Z</time>
      </trkpt>
      <trkpt lat="45.00468" lon="5.57531">
        <ele>2032.84</ele>
        <time>2012-08-09T07:24:30Z</time>
      </trkpt>
      <trkpt lat="45.00474" lon="5.57553">
        <ele>2034.77</ele>
        <time>2012-08-09T07:24:45Z</time>
      </trkpt>
      <trkpt lat="45.00476" lon="5.57577">
        <ele>2031.4</ele>
        <time>2012-08-09T07:24:59Z</time>
      </trkpt>
      <trkpt lat="45.00479" lon="5.5759">
        <ele>2031.88</ele>
        <time>2012-08-09T07:25:12Z</time>
      </trkpt>
      <trkpt lat="45.0048" lon="5.57602">
        <ele>2031.4</ele>
        <time>2012-08-09T07:25:20Z</time>
      </trkpt>
      <trkpt lat="45.00481" lon="5.57613">
        <ele>2034.29</ele>
        <time>2012-08-09T07:25:27Z</time>
      </trkpt>
      <trkpt lat="45.00477" lon="5.57631">
        <ele>2034.77</ele>
        <time>2012-08-09T07:25:39Z</time>
      </trkpt>
      <trkpt lat="45.00465" lon="5.57646">
        <ele>2033.81</ele>
        <time>2012-08-09T07:25:52Z</time>
      </trkpt>
      <trkpt lat="45.0046" lon="5.57647">
        <ele>2034.77</ele>
        <time>2012-08-09T07:25:56Z</time>
      </trkpt>
      <trkpt lat="45.00455" lon="5.57654">
        <ele>2035.25</ele>
        <time>2012-08-09T07:26:01Z</time>
      </trkpt>
      <trkpt lat="45.00448" lon="5.57666">
        <ele>2036.69</ele>
        <time>2012-08-09T07:26:11Z</time>
      </trkpt>
      <trkpt lat="45.00446" lon="5.57675">
        <ele>2038.13</ele>
        <time>2012-08-09T07:26:17Z</time>
      </trkpt>
      <trkpt lat="45.00438" lon="5.57693">
        <ele>2040.54</ele>
        <time>2012-08-09T07:26:30Z</time>
      </trkpt>
      <trkpt lat="45.00429" lon="5.57699">
        <ele>2041.5</ele>
        <time>2012-08-09T07:26:39Z</time>
      </trkpt>
      <trkpt lat="45.00427" lon="5.577">
        <ele>2042.46</ele>
        <time>2012-08-09T07:26:42Z</time>
      </trkpt>
      <trkpt lat="45.0042" lon="5.57702">
        <ele>2044.86</ele>
        <time>2012-08-09T07:26:50Z</time>
      </trkpt>
      <trkpt lat="45.00411" lon="5.577">
        <ele>2049.19</ele>
        <time>2012-08-09T07:27:04Z</time>
      </trkpt>
      <trkpt lat="45.00408" lon="5.577">
        <ele>2049.67</ele>
        <time>2012-08-09T07:27:08Z</time>
      </trkpt>
      <trkpt lat="45.00397" lon="5.57702">
        <ele>2054.96</ele>
        <time>2012-08-09T07:27:24Z</time>
      </trkpt>
      <trkpt lat="45.00392" lon="5.5771">
        <ele>2056.4</ele>
        <time>2012-08-09T07:27:37Z</time>
      </trkpt>
      <trkpt lat="45.00384" lon="5.57712">
        <ele>2058.32</ele>
        <time>2012-08-09T07:27:51Z</time>
      </trkpt>
      <trkpt lat="45.00378" lon="5.57716">
        <ele>2061.2</ele>
        <time>2012-08-09T07:28:03Z</time>
      </trkpt>
      <trkpt lat="45.00376" lon="5.57719">
        <ele>2061.68</ele>
        <time>2012-08-09T07:28:17Z</time>
      </trkpt>
      <trkpt lat="45.00375" lon="5.57722">
        <ele>2062.65</ele>
        <time>2012-08-09T07:28:33Z</time>
      </trkpt>
      <trkpt lat="45.00375" lon="5.57719">
        <ele>2063.13</ele>
        <time>2012-08-09T07:28:36Z</time>
      </trkpt>
      <trkpt lat="45.00375" lon="5.57709">
        <ele>2062.65</ele>
        <time>2012-08-09T07:28:51Z</time>
      </trkpt>
      <trkpt lat="45.00372" lon="5.57707">
        <ele>2064.57</ele>
        <time>2012-08-09T07:29:13Z</time>
      </trkpt>
      <trkpt lat="45.00365" lon="5.57698">
        <ele>2060.72</ele>
        <time>2012-08-09T07:29:28Z</time>
      </trkpt>
      <trkpt lat="45.00368" lon="5.57696">
        <ele>2060.24</ele>
        <time>2012-08-09T07:29:41Z</time>
      </trkpt>
      <trkpt lat="45.00367" lon="5.57699">
        <ele>2060.72</ele>
        <time>2012-08-09T07:29:52Z</time>
      </trkpt>
      <trkpt lat="45.00369" lon="5.57699">
        <ele>2062.17</ele>
        <time>2012-08-09T07:30:08Z</time>
      </trkpt>
      <trkpt lat="45.00366" lon="5.57699">
        <ele>2062.17</ele>
        <time>2012-08-09T07:30:28Z</time>
      </trkpt>
      <trkpt lat="45.00369" lon="5.577">
        <ele>2063.13</ele>
        <time>2012-08-09T07:30:46Z</time>
      </trkpt>
      <trkpt lat="45.00363" lon="5.57698">
        <ele>2060.72</ele>
        <time>2012-08-09T07:31:16Z</time>
      </trkpt>
      <trkpt lat="45.00366" lon="5.57701">
        <ele>2062.65</ele>
        <time>2012-08-09T07:31:44Z</time>
      </trkpt>
      <trkpt lat="45.00368" lon="5.577">
        <ele>2061.68</ele>
        <time>2012-08-09T07:32:00Z</time>
      </trkpt>
      <trkpt lat="45.00367" lon="5.57703">
        <ele>2063.13</ele>
        <time>2012-08-09T07:32:18Z</time>
      </trkpt>
      <trkpt lat="45.00368" lon="5.57703">
        <ele>2067.45</ele>
        <time>2012-08-09T07:32:52Z</time>
      </trkpt>
      <trkpt lat="45.00368" lon="5.57701">
        <ele>2064.09</ele>
        <time>2012-08-09T07:33:20Z</time>
      </trkpt>
      <trkpt lat="45.00369" lon="5.57702">
        <ele>2064.09</ele>
        <time>2012-08-09T07:33:43Z</time>
      </trkpt>
      <trkpt lat="45.00363" lon="5.57697">
        <ele>2062.65</ele>
        <time>2012-08-09T07:34:02Z</time>
      </trkpt>
      <trkpt lat="45.00367" lon="5.57707">
        <ele>2063.61</ele>
        <time>2012-08-09T07:34:13Z</time>
      </trkpt>
      <trkpt lat="45.00368" lon="5.57708">
        <ele>2063.61</ele>
        <time>2012-08-09T07:34:26Z</time>
      </trkpt>
      <trkpt lat="45.00362" lon="5.57697">
        <ele>2059.76</ele>
        <time>2012-08-09T07:34:39Z</time>
      </trkpt>
      <trkpt lat="45.00359" lon="5.57695">
        <ele>2059.28</ele>
        <time>2012-08-09T07:34:57Z</time>
      </trkpt>
      <trkpt lat="45.00359" lon="5.57693">
        <ele>2059.28</ele>
        <time>2012-08-09T07:34:58Z</time>
      </trkpt>
      <trkpt lat="45.00355" lon="5.5768">
        <ele>2060.72</ele>
        <time>2012-08-09T07:35:06Z</time>
      </trkpt>
      <trkpt lat="45.00349" lon="5.57675">
        <ele>2061.2</ele>
        <time>2012-08-09T07:35:21Z</time>
      </trkpt>
      <trkpt lat="45.00346" lon="5.57663">
        <ele>2061.68</ele>
        <time>2012-08-09T07:35:40Z</time>
      </trkpt>
      <trkpt lat="45.00346" lon="5.57652">
        <ele>2061.2</ele>
        <time>2012-08-09T07:35:51Z</time>
      </trkpt>
      <trkpt lat="45.0034" lon="5.57634">
        <ele>2062.17</ele>
        <time>2012-08-09T07:36:07Z</time>
      </trkpt>
      <trkpt lat="45.00342" lon="5.57627">
        <ele>2061.68</ele>
        <time>2012-08-09T07:36:19Z</time>
      </trkpt>
      <trkpt lat="45.00336" lon="5.57623">
        <ele>2063.61</ele>
        <time>2012-08-09T07:36:30Z</time>
      </trkpt>
      <trkpt lat="45.00333" lon="5.57611">
        <ele>2066.01</ele>
        <time>2012-08-09T07:36:44Z</time>
      </trkpt>
      <trkpt lat="45.00333" lon="5.57601">
        <ele>2065.53</ele>
        <time>2012-08-09T07:36:57Z</time>
      </trkpt>
      <trkpt lat="45.00333" lon="5.57587">
        <ele>2064.09</ele>
        <time>2012-08-09T07:37:10Z</time>
      </trkpt>
      <trkpt lat="45.00331" lon="5.57571">
        <ele>2064.09</ele>
        <time>2012-08-09T07:37:26Z</time>
      </trkpt>
      <trkpt lat="45.00328" lon="5.57558">
        <ele>2066.49</ele>
        <time>2012-08-09T07:37:41Z</time>
      </trkpt>
      <trkpt lat="45.00329" lon="5.57548">
        <ele>2067.93</ele>
        <time>2012-08-09T07:37:54Z</time>
      </trkpt>
      <trkpt lat="45.00327" lon="5.57536">
        <ele>2068.41</ele>
        <time>2012-08-09T07:38:08Z</time>
      </trkpt>
      <trkpt lat="45.00324" lon="5.57523">
        <ele>2069.38</ele>
        <time>2012-08-09T07:38:21Z</time>
      </trkpt>
      <trkpt lat="45.00323" lon="5.57504">
        <ele>2072.26</ele>
        <time>2012-08-09T07:38:37Z</time>
      </trkpt>
      <trkpt lat="45.00323" lon="5.57503">
        <ele>2072.26</ele>
        <time>2012-08-09T07:38:38Z</time>
      </trkpt>
      <trkpt lat="45.00324" lon="5.57487">
        <ele>2072.74</ele>
        <time>2012-08-09T07:38:54Z</time>
      </trkpt>
      <trkpt lat="45.0032" lon="5.5748">
        <ele>2075.14</ele>
        <time>2012-08-09T07:39:06Z</time>
      </trkpt>
      <trkpt lat="45.00318" lon="5.57463">
        <ele>2077.55</ele>
        <time>2012-08-09T07:39:22Z</time>
      </trkpt>
      <trkpt lat="45.00317" lon="5.57457">
        <ele>2078.03</ele>
        <time>2012-08-09T07:39:27Z</time>
      </trkpt>
      <trkpt lat="45.00315" lon="5.57445">
        <ele>2081.39</ele>
        <time>2012-08-09T07:39:40Z</time>
      </trkpt>
      <trkpt lat="45.00313" lon="5.57427">
        <ele>2082.35</ele>
        <time>2012-08-09T07:39:56Z</time>
      </trkpt>
      <trkpt lat="45.00309" lon="5.57413">
        <ele>2084.76</ele>
        <time>2012-08-09T07:40:11Z</time>
      </trkpt>
      <trkpt lat="45.00308" lon="5.57395">
        <ele>2086.2</ele>
        <time>2012-08-09T07:40:23Z</time>
      </trkpt>
      <trkpt lat="45.00307" lon="5.57392">
        <ele>2086.68</ele>
        <time>2012-08-09T07:40:25Z</time>
      </trkpt>
      <trkpt lat="45.00306" lon="5.57379">
        <ele>2086.68</ele>
        <time>2012-08-09T07:40:34Z</time>
      </trkpt>
      <trkpt lat="45.0031" lon="5.57369">
        <ele>2087.64</ele>
        <time>2012-08-09T07:40:46Z</time>
      </trkpt>
      <trkpt lat="45.00314" lon="5.57364">
        <ele>2087.64</ele>
        <time>2012-08-09T07:41:02Z</time>
      </trkpt>
      <trkpt lat="45.00314" lon="5.57362">
        <ele>2088.12</ele>
        <time>2012-08-09T07:41:15Z</time>
      </trkpt>
      <trkpt lat="45.00317" lon="5.57362">
        <ele>2089.56</ele>
        <time>2012-08-09T07:41:36Z</time>
      </trkpt>
      <trkpt lat="45.0032" lon="5.57362">
        <ele>2090.52</ele>
        <time>2012-08-09T07:42:04Z</time>
      </trkpt>
      <trkpt lat="45.0032" lon="5.57359">
        <ele>2093.41</ele>
        <time>2012-08-09T07:42:38Z</time>
      </trkpt>
      <trkpt lat="45.00316" lon="5.57358">
        <ele>2091.49</ele>
        <time>2012-08-09T07:43:08Z</time>
      </trkpt>
      <trkpt lat="45.0032" lon="5.57339">
        <ele>2092.45</ele>
        <time>2012-08-09T07:43:23Z</time>
      </trkpt>
      <trkpt lat="45.00325" lon="5.57321">
        <ele>2094.37</ele>
        <time>2012-08-09T07:43:40Z</time>
      </trkpt>
      <trkpt lat="45.00331" lon="5.57304">
        <ele>2095.33</ele>
        <time>2012-08-09T07:43:55Z</time>
      </trkpt>
      <trkpt lat="45.00336" lon="5.57287">
        <ele>2097.25</ele>
        <time>2012-08-09T07:44:11Z</time>
      </trkpt>
      <trkpt lat="45.0034" lon="5.57269">
        <ele>2097.73</ele>
        <time>2012-08-09T07:44:27Z</time>
      </trkpt>
      <trkpt lat="45.00341" lon="5.57261">
        <ele>2097.25</ele>
        <time>2012-08-09T07:44:33Z</time>
      </trkpt>
      <trkpt lat="45.00345" lon="5.57243">
        <ele>2095.81</ele>
        <time>2012-08-09T07:44:49Z</time>
      </trkpt>
      <trkpt lat="45.00348" lon="5.57227">
        <ele>2094.85</ele>
        <time>2012-08-09T07:45:02Z</time>
      </trkpt>
      <trkpt lat="45.00351" lon="5.57217">
        <ele>2095.33</ele>
        <time>2012-08-09T07:45:17Z</time>
      </trkpt>
      <trkpt lat="45.00354" lon="5.57204">
        <ele>2094.37</ele>
        <time>2012-08-09T07:45:31Z</time>
      </trkpt>
      <trkpt lat="45.00361" lon="5.57188">
        <ele>2093.89</ele>
        <time>2012-08-09T07:45:48Z</time>
      </trkpt>
      <trkpt lat="45.00364" lon="5.57174">
        <ele>2094.37</ele>
        <time>2012-08-09T07:46:03Z</time>
      </trkpt>
      <trkpt lat="45.00365" lon="5.57159">
        <ele>2095.81</ele>
        <time>2012-08-09T07:46:17Z</time>
      </trkpt>
      <trkpt lat="45.00366" lon="5.57152">
        <ele>2096.77</ele>
        <time>2012-08-09T07:46:22Z</time>
      </trkpt>
      <trkpt lat="45.00367" lon="5.57146">
        <ele>2096.77</ele>
        <time>2012-08-09T07:46:26Z</time>
      </trkpt>
      <trkpt lat="45.00368" lon="5.57128">
        <ele>2100.62</ele>
        <time>2012-08-09T07:46:43Z</time>
      </trkpt>
      <trkpt lat="45.00367" lon="5.57123">
        <ele>2101.58</ele>
        <time>2012-08-09T07:46:48Z</time>
      </trkpt>
      <trkpt lat="45.00369" lon="5.57105">
        <ele>2103.98</ele>
        <time>2012-08-09T07:47:04Z</time>
      </trkpt>
      <trkpt lat="45.00373" lon="5.57089">
        <ele>2105.91</ele>
        <time>2012-08-09T07:47:19Z</time>
      </trkpt>
      <trkpt lat="45.00376" lon="5.57071">
        <ele>2107.35</ele>
        <time>2012-08-09T07:47:35Z</time>
      </trkpt>
      <trkpt lat="45.0038" lon="5.57056">
        <ele>2109.75</ele>
        <time>2012-08-09T07:47:49Z</time>
      </trkpt>
      <trkpt lat="45.00386" lon="5.57043">
        <ele>2113.6</ele>
        <time>2012-08-09T07:48:05Z</time>
      </trkpt>
      <trkpt lat="45.0039" lon="5.5703">
        <ele>2116.48</ele>
        <time>2012-08-09T07:48:22Z</time>
      </trkpt>
      <trkpt lat="45.0039" lon="5.57025">
        <ele>2117.92</ele>
        <time>2012-08-09T07:48:39Z</time>
      </trkpt>
      <trkpt lat="45.00396" lon="5.57027">
        <ele>2120.81</ele>
        <time>2012-08-09T07:49:03Z</time>
      </trkpt>
      <trkpt lat="45.00397" lon="5.57026">
        <ele>2122.25</ele>
        <time>2012-08-09T07:49:27Z</time>
      </trkpt>
      <trkpt lat="45.00397" lon="5.57026">
        <ele>2122.73</ele>
        <time>2012-08-09T07:49:53Z</time>
      </trkpt>
      <trkpt lat="45.00399" lon="5.57023">
        <ele>2124.17</ele>
        <time>2012-08-09T07:50:18Z</time>
      </trkpt>
      <trkpt lat="45.00398" lon="5.57017">
        <ele>2123.69</ele>
        <time>2012-08-09T07:50:24Z</time>
      </trkpt>
      <trkpt lat="45.00402" lon="5.57">
        <ele>2123.21</ele>
        <time>2012-08-09T07:50:40Z</time>
      </trkpt>
      <trkpt lat="45.00404" lon="5.5699">
        <ele>2124.17</ele>
        <time>2012-08-09T07:50:56Z</time>
      </trkpt>
      <trkpt lat="45.00409" lon="5.5698">
        <ele>2126.57</ele>
        <time>2012-08-09T07:51:11Z</time>
      </trkpt>
      <trkpt lat="45.00415" lon="5.56968">
        <ele>2128.02</ele>
        <time>2012-08-09T07:51:24Z</time>
      </trkpt>
      <trkpt lat="45.00418" lon="5.56956">
        <ele>2129.46</ele>
        <time>2012-08-09T07:51:40Z</time>
      </trkpt>
      <trkpt lat="45.0042" lon="5.56944">
        <ele>2131.38</ele>
        <time>2012-08-09T07:51:55Z</time>
      </trkpt>
      <trkpt lat="45.00422" lon="5.56932">
        <ele>2134.26</ele>
        <time>2012-08-09T07:52:11Z</time>
      </trkpt>
      <trkpt lat="45.00423" lon="5.5692">
        <ele>2136.67</ele>
        <time>2012-08-09T07:52:27Z</time>
      </trkpt>
      <trkpt lat="45.00426" lon="5.56911">
        <ele>2137.15</ele>
        <time>2012-08-09T07:52:45Z</time>
      </trkpt>
      <trkpt lat="45.00435" lon="5.56891">
        <ele>2136.67</ele>
        <time>2012-08-09T07:53:06Z</time>
      </trkpt>
      <trkpt lat="45.00438" lon="5.56879">
        <ele>2139.07</ele>
        <time>2012-08-09T07:53:21Z</time>
      </trkpt>
      <trkpt lat="45.00439" lon="5.56877">
        <ele>2139.07</ele>
        <time>2012-08-09T07:53:23Z</time>
      </trkpt>
      <trkpt lat="45.00441" lon="5.56872">
        <ele>2139.07</ele>
        <time>2012-08-09T07:53:37Z</time>
      </trkpt>
      <trkpt lat="45.0044" lon="5.56864">
        <ele>2140.03</ele>
        <time>2012-08-09T07:54:03Z</time>
      </trkpt>
      <trkpt lat="45.0044" lon="5.5686">
        <ele>2140.03</ele>
        <time>2012-08-09T07:54:06Z</time>
      </trkpt>
      <trkpt lat="45.00446" lon="5.56838">
        <ele>2143.4</ele>
        <time>2012-08-09T07:54:23Z</time>
      </trkpt>
      <trkpt lat="45.00451" lon="5.56814">
        <ele>2147.24</ele>
        <time>2012-08-09T07:54:43Z</time>
      </trkpt>
      <trkpt lat="45.00452" lon="5.56799">
        <ele>2148.68</ele>
        <time>2012-08-09T07:55:02Z</time>
      </trkpt>
      <trkpt lat="45.00453" lon="5.56784">
        <ele>2149.65</ele>
        <time>2012-08-09T07:55:13Z</time>
      </trkpt>
      <trkpt lat="45.00454" lon="5.56775">
        <ele>2149.65</ele>
        <time>2012-08-09T07:55:19Z</time>
      </trkpt>
      <trkpt lat="45.00454" lon="5.56771">
        <ele>2149.16</ele>
        <time>2012-08-09T07:55:21Z</time>
      </trkpt>
      <trkpt lat="45.00457" lon="5.56757">
        <ele>2150.13</ele>
        <time>2012-08-09T07:55:38Z</time>
      </trkpt>
      <trkpt lat="45.00463" lon="5.56754">
        <ele>2150.13</ele>
        <time>2012-08-09T07:55:55Z</time>
      </trkpt>
      <trkpt lat="45.00459" lon="5.56754">
        <ele>2151.09</ele>
        <time>2012-08-09T07:56:23Z</time>
      </trkpt>
      <trkpt lat="45.00462" lon="5.56751">
        <ele>2151.57</ele>
        <time>2012-08-09T07:56:43Z</time>
      </trkpt>
      <trkpt lat="45.00465" lon="5.56748">
        <ele>2152.05</ele>
        <time>2012-08-09T07:57:07Z</time>
      </trkpt>
      <trkpt lat="45.00464" lon="5.5675">
        <ele>2152.53</ele>
        <time>2012-08-09T07:57:35Z</time>
      </trkpt>
      <trkpt lat="45.0046" lon="5.56751">
        <ele>2154.45</ele>
        <time>2012-08-09T07:58:04Z</time>
      </trkpt>
      <trkpt lat="45.0046" lon="5.56748">
        <ele>2157.82</ele>
        <time>2012-08-09T07:58:27Z</time>
      </trkpt>
      <trkpt lat="45.00462" lon="5.56747">
        <ele>2158.3</ele>
        <time>2012-08-09T07:58:39Z</time>
      </trkpt>
      <trkpt lat="45.00468" lon="5.56738">
        <ele>2157.82</ele>
        <time>2012-08-09T07:58:50Z</time>
      </trkpt>
      <trkpt lat="45.00474" lon="5.56724">
        <ele>2159.74</ele>
        <time>2012-08-09T07:59:08Z</time>
      </trkpt>
      <trkpt lat="45.00476" lon="5.56709">
        <ele>2162.62</ele>
        <time>2012-08-09T07:59:26Z</time>
      </trkpt>
      <trkpt lat="45.00475" lon="5.567">
        <ele>2165.99</ele>
        <time>2012-08-09T07:59:41Z</time>
      </trkpt>
      <trkpt lat="45.00478" lon="5.56692">
        <ele>2168.87</ele>
        <time>2012-08-09T07:59:54Z</time>
      </trkpt>
      <trkpt lat="45.00476" lon="5.56684">
        <ele>2173.68</ele>
        <time>2012-08-09T08:00:10Z</time>
      </trkpt>
      <trkpt lat="45.00476" lon="5.56676">
        <ele>2177.04</ele>
        <time>2012-08-09T08:00:25Z</time>
      </trkpt>
      <trkpt lat="45.00478" lon="5.56668">
        <ele>2177.52</ele>
        <time>2012-08-09T08:00:37Z</time>
      </trkpt>
      <trkpt lat="45.0048" lon="5.56661">
        <ele>2180.89</ele>
        <time>2012-08-09T08:00:51Z</time>
      </trkpt>
      <trkpt lat="45.00478" lon="5.56655">
        <ele>2185.21</ele>
        <time>2012-08-09T08:01:07Z</time>
      </trkpt>
      <trkpt lat="45.0048" lon="5.56648">
        <ele>2188.58</ele>
        <time>2012-08-09T08:01:23Z</time>
      </trkpt>
      <trkpt lat="45.00486" lon="5.56638">
        <ele>2189.54</ele>
        <time>2012-08-09T08:01:43Z</time>
      </trkpt>
      <trkpt lat="45.00491" lon="5.56628">
        <ele>2193.39</ele>
        <time>2012-08-09T08:02:01Z</time>
      </trkpt>
      <trkpt lat="45.00492" lon="5.56623">
        <ele>2197.23</ele>
        <time>2012-08-09T08:02:16Z</time>
      </trkpt>
      <trkpt lat="45.00491" lon="5.56623">
        <ele>2200.59</ele>
        <time>2012-08-09T08:02:31Z</time>
      </trkpt>
      <trkpt lat="45.00493" lon="5.56619">
        <ele>2203</ele>
        <time>2012-08-09T08:02:52Z</time>
      </trkpt>
      <trkpt lat="45.00493" lon="5.56623">
        <ele>2202.04</ele>
        <time>2012-08-09T08:03:19Z</time>
      </trkpt>
      <trkpt lat="45.00492" lon="5.56619">
        <ele>2203</ele>
        <time>2012-08-09T08:03:41Z</time>
      </trkpt>
      <trkpt lat="45.00488" lon="5.5661">
        <ele>2203.96</ele>
        <time>2012-08-09T08:04:00Z</time>
      </trkpt>
      <trkpt lat="45.00484" lon="5.56606">
        <ele>2206.36</ele>
        <time>2012-08-09T08:04:19Z</time>
      </trkpt>
      <trkpt lat="45.00483" lon="5.56609">
        <ele>2210.69</ele>
        <time>2012-08-09T08:04:39Z</time>
      </trkpt>
      <trkpt lat="45.00484" lon="5.56606">
        <ele>2210.69</ele>
        <time>2012-08-09T08:04:57Z</time>
      </trkpt>
      <trkpt lat="45.0049" lon="5.56602">
        <ele>2212.13</ele>
        <time>2012-08-09T08:05:09Z</time>
      </trkpt>
      <trkpt lat="45.00493" lon="5.56603">
        <ele>2212.61</ele>
        <time>2012-08-09T08:05:20Z</time>
      </trkpt>
      <trkpt lat="45.00497" lon="5.56604">
        <ele>2212.13</ele>
        <time>2012-08-09T08:05:33Z</time>
      </trkpt>
      <trkpt lat="45.00491" lon="5.56603">
        <ele>2211.65</ele>
        <time>2012-08-09T08:05:42Z</time>
      </trkpt>
      <trkpt lat="45.00491" lon="5.56601">
        <ele>2211.17</ele>
        <time>2012-08-09T08:05:58Z</time>
      </trkpt>
      <trkpt lat="45.0049" lon="5.566">
        <ele>2212.13</ele>
        <time>2012-08-09T08:06:13Z</time>
      </trkpt>
      <trkpt lat="45.00488" lon="5.56599">
        <ele>2213.09</ele>
        <time>2012-08-09T08:06:35Z</time>
      </trkpt>
      <trkpt lat="45.00487" lon="5.566">
        <ele>2214.05</ele>
        <time>2012-08-09T08:06:51Z</time>
      </trkpt>
      <trkpt lat="45.0049" lon="5.56604">
        <ele>2216.46</ele>
        <time>2012-08-09T08:07:15Z</time>
      </trkpt>
      <trkpt lat="45.00493" lon="5.56606">
        <ele>2215.98</ele>
        <time>2012-08-09T08:07:22Z</time>
      </trkpt>
      <trkpt lat="45.00497" lon="5.56609">
        <ele>2216.94</ele>
        <time>2012-08-09T08:07:36Z</time>
      </trkpt>
      <trkpt lat="45.00503" lon="5.5661">
        <ele>2215.5</ele>
        <time>2012-08-09T08:07:46Z</time>
      </trkpt>
      <trkpt lat="45.00507" lon="5.56606">
        <ele>2210.21</ele>
        <time>2012-08-09T08:07:59Z</time>
      </trkpt>
      <trkpt lat="45.00512" lon="5.56604">
        <ele>2209.25</ele>
        <time>2012-08-09T08:08:08Z</time>
      </trkpt>
      <trkpt lat="45.00515" lon="5.56604">
        <ele>2209.25</ele>
        <time>2012-08-09T08:08:14Z</time>
      </trkpt>
      <trkpt lat="45.00503" lon="5.56609">
        <ele>2211.17</ele>
        <time>2012-08-09T08:08:29Z</time>
      </trkpt>
      <trkpt lat="45.00502" lon="5.56608">
        <ele>2211.17</ele>
        <time>2012-08-09T08:08:33Z</time>
      </trkpt>
      <trkpt lat="45.00494" lon="5.56608">
        <ele>2213.57</ele>
        <time>2012-08-09T08:08:47Z</time>
      </trkpt>
      <trkpt lat="45.00492" lon="5.56605">
        <ele>2214.53</ele>
        <time>2012-08-09T08:09:08Z</time>
      </trkpt>
      <trkpt lat="45.00492" lon="5.56605">
        <ele>2214.53</ele>
        <time>2012-08-09T08:09:27Z</time>
      </trkpt>
      <trkpt lat="45.00485" lon="5.56607">
        <ele>2213.09</ele>
        <time>2012-08-09T08:09:38Z</time>
      </trkpt>
      <trkpt lat="45.0048" lon="5.566">
        <ele>2210.69</ele>
        <time>2012-08-09T08:09:51Z</time>
      </trkpt>
      <trkpt lat="45.00481" lon="5.56599">
        <ele>2210.21</ele>
        <time>2012-08-09T08:09:58Z</time>
      </trkpt>
      <trkpt lat="45.00481" lon="5.56592">
        <ele>2210.69</ele>
        <time>2012-08-09T08:10:09Z</time>
      </trkpt>
      <trkpt lat="45.00486" lon="5.56591">
        <ele>2214.05</ele>
        <time>2012-08-09T08:10:27Z</time>
      </trkpt>
      <trkpt lat="45.00485" lon="5.56591">
        <ele>2215.01</ele>
        <time>2012-08-09T08:10:42Z</time>
      </trkpt>
      <trkpt lat="45.00483" lon="5.5659">
        <ele>2214.53</ele>
        <time>2012-08-09T08:11:05Z</time>
      </trkpt>
      <trkpt lat="45.00488" lon="5.56594">
        <ele>2217.42</ele>
        <time>2012-08-09T08:11:24Z</time>
      </trkpt>
      <trkpt lat="45.00486" lon="5.56593">
        <ele>2216.94</ele>
        <time>2012-08-09T08:11:38Z</time>
      </trkpt>
      <trkpt lat="45.00485" lon="5.56597">
        <ele>2219.34</ele>
        <time>2012-08-09T08:11:58Z</time>
      </trkpt>
      <trkpt lat="45.00485" lon="5.56596">
        <ele>2219.34</ele>
        <time>2012-08-09T08:12:20Z</time>
      </trkpt>
      <trkpt lat="45.00486" lon="5.56597">
        <ele>2221.74</ele>
        <time>2012-08-09T08:12:40Z</time>
      </trkpt>
      <trkpt lat="45.00483" lon="5.56597">
        <ele>2221.26</ele>
        <time>2012-08-09T08:12:58Z</time>
      </trkpt>
      <trkpt lat="45.00485" lon="5.56594">
        <ele>2220.78</ele>
        <time>2012-08-09T08:13:18Z</time>
      </trkpt>
      <trkpt lat="45.00486" lon="5.56589">
        <ele>2216.94</ele>
        <time>2012-08-09T08:13:32Z</time>
      </trkpt>
      <trkpt lat="45.00488" lon="5.56587">
        <ele>2217.9</ele>
        <time>2012-08-09T08:13:48Z</time>
      </trkpt>
      <trkpt lat="45.0049" lon="5.56587">
        <ele>2216.46</ele>
        <time>2012-08-09T08:14:06Z</time>
      </trkpt>
      <trkpt lat="45.00488" lon="5.56581">
        <ele>2213.09</ele>
        <time>2012-08-09T08:14:22Z</time>
      </trkpt>
      <trkpt lat="45.00492" lon="5.56583">
        <ele>2213.57</ele>
        <time>2012-08-09T08:14:46Z</time>
      </trkpt>
      <trkpt lat="45.00493" lon="5.56582">
        <ele>2217.9</ele>
        <time>2012-08-09T08:15:08Z</time>
      </trkpt>
      <trkpt lat="45.00491" lon="5.56585">
        <ele>2217.9</ele>
        <time>2012-08-09T08:15:27Z</time>
      </trkpt>
      <trkpt lat="45.00492" lon="5.56584">
        <ele>2220.78</ele>
        <time>2012-08-09T08:15:53Z</time>
      </trkpt>
      <trkpt lat="45.00492" lon="5.56586">
        <ele>2224.63</ele>
        <time>2012-08-09T08:16:09Z</time>
      </trkpt>
      <trkpt lat="45.00489" lon="5.56586">
        <ele>2227.51</ele>
        <time>2012-08-09T08:16:42Z</time>
      </trkpt>
      <trkpt lat="45.00485" lon="5.56583">
        <ele>2227.99</ele>
        <time>2012-08-09T08:16:55Z</time>
      </trkpt>
      <trkpt lat="45.00486" lon="5.56588">
        <ele>2230.4</ele>
        <time>2012-08-09T08:17:16Z</time>
      </trkpt>
      <trkpt lat="45.00485" lon="5.56584">
        <ele>2227.03</ele>
        <time>2012-08-09T08:17:36Z</time>
      </trkpt>
      <trkpt lat="45.00487" lon="5.56585">
        <ele>2231.36</ele>
        <time>2012-08-09T08:17:59Z</time>
      </trkpt>
      <trkpt lat="45.00485" lon="5.56584">
        <ele>2232.8</ele>
        <time>2012-08-09T08:18:17Z</time>
      </trkpt>
      <trkpt lat="45.00482" lon="5.5658">
        <ele>2229.43</ele>
        <time>2012-08-09T08:18:29Z</time>
      </trkpt>
      <trkpt lat="45.00483" lon="5.56578">
        <ele>2229.43</ele>
        <time>2012-08-09T08:18:45Z</time>
      </trkpt>
      <trkpt lat="45.00484" lon="5.56573">
        <ele>2227.51</ele>
        <time>2012-08-09T08:19:05Z</time>
      </trkpt>
      <trkpt lat="45.00483" lon="5.56569">
        <ele>2228.95</ele>
        <time>2012-08-09T08:19:26Z</time>
      </trkpt>
      <trkpt lat="45.00482" lon="5.56564">
        <ele>2232.32</ele>
        <time>2012-08-09T08:19:42Z</time>
      </trkpt>
      <trkpt lat="45.00482" lon="5.56559">
        <ele>2235.68</ele>
        <time>2012-08-09T08:19:57Z</time>
      </trkpt>
      <trkpt lat="45.00484" lon="5.56558">
        <ele>2240.49</ele>
        <time>2012-08-09T08:20:13Z</time>
      </trkpt>
      <trkpt lat="45.00483" lon="5.56554">
        <ele>2242.89</ele>
        <time>2012-08-09T08:20:28Z</time>
      </trkpt>
      <trkpt lat="45.00481" lon="5.56545">
        <ele>2244.82</ele>
        <time>2012-08-09T08:20:43Z</time>
      </trkpt>
      <trkpt lat="45.00482" lon="5.56545">
        <ele>2249.14</ele>
        <time>2012-08-09T08:20:59Z</time>
      </trkpt>
      <trkpt lat="45.00482" lon="5.56544">
        <ele>2250.58</ele>
        <time>2012-08-09T08:21:19Z</time>
      </trkpt>
      <trkpt lat="45.00482" lon="5.56544">
        <ele>2253.47</ele>
        <time>2012-08-09T08:21:37Z</time>
      </trkpt>
      <trkpt lat="45.00483" lon="5.5654">
        <ele>2252.99</ele>
        <time>2012-08-09T08:21:53Z</time>
      </trkpt>
      <trkpt lat="45.00485" lon="5.56531">
        <ele>2255.87</ele>
        <time>2012-08-09T08:22:10Z</time>
      </trkpt>
      <trkpt lat="45.00486" lon="5.56526">
        <ele>2258.27</ele>
        <time>2012-08-09T08:22:26Z</time>
      </trkpt>
      <trkpt lat="45.00489" lon="5.5652">
        <ele>2261.16</ele>
        <time>2012-08-09T08:22:43Z</time>
      </trkpt>
      <trkpt lat="45.00492" lon="5.56518">
        <ele>2262.6</ele>
        <time>2012-08-09T08:23:03Z</time>
      </trkpt>
      <trkpt lat="45.00492" lon="5.56516">
        <ele>2263.08</ele>
        <time>2012-08-09T08:23:18Z</time>
      </trkpt>
      <trkpt lat="45.0049" lon="5.56514">
        <ele>2263.56</ele>
        <time>2012-08-09T08:23:39Z</time>
      </trkpt>
      <trkpt lat="45.00488" lon="5.56511">
        <ele>2265.48</ele>
        <time>2012-08-09T08:23:57Z</time>
      </trkpt>
      <trkpt lat="45.00486" lon="5.5651">
        <ele>2265.48</ele>
        <time>2012-08-09T08:24:18Z</time>
      </trkpt>
      <trkpt lat="45.00486" lon="5.56509">
        <ele>2265.48</ele>
        <time>2012-08-09T08:24:41Z</time>
      </trkpt>
      <trkpt lat="45.00486" lon="5.5651">
        <ele>2266.93</ele>
        <time>2012-08-09T08:24:59Z</time>
      </trkpt>
      <trkpt lat="45.00483" lon="5.56506">
        <ele>2267.41</ele>
        <time>2012-08-09T08:25:19Z</time>
      </trkpt>
      <trkpt lat="45.00482" lon="5.56504">
        <ele>2269.33</ele>
        <time>2012-08-09T08:25:36Z</time>
      </trkpt>
      <trkpt lat="45.00483" lon="5.56506">
        <ele>2274.14</ele>
        <time>2012-08-09T08:26:02Z</time>
      </trkpt>
      <trkpt lat="45.00485" lon="5.56506">
        <ele>2276.06</ele>
        <time>2012-08-09T08:26:20Z</time>
      </trkpt>
      <trkpt lat="45.00484" lon="5.56501">
        <ele>2274.62</ele>
        <time>2012-08-09T08:26:38Z</time>
      </trkpt>
      <trkpt lat="45.00482" lon="5.56498">
        <ele>2275.58</ele>
        <time>2012-08-09T08:26:51Z</time>
      </trkpt>
      <trkpt lat="45.00481" lon="5.56495">
        <ele>2277.98</ele>
        <time>2012-08-09T08:27:04Z</time>
      </trkpt>
      <trkpt lat="45.00481" lon="5.56493">
        <ele>2279.42</ele>
        <time>2012-08-09T08:27:20Z</time>
      </trkpt>
      <trkpt lat="45.00482" lon="5.56493">
        <ele>2279.42</ele>
        <time>2012-08-09T08:27:37Z</time>
      </trkpt>
      <trkpt lat="45.00483" lon="5.56493">
        <ele>2280.87</ele>
        <time>2012-08-09T08:27:53Z</time>
      </trkpt>
      <trkpt lat="45.00483" lon="5.56492">
        <ele>2281.35</ele>
        <time>2012-08-09T08:28:23Z</time>
      </trkpt>
      <trkpt lat="45.00483" lon="5.56484">
        <ele>2282.79</ele>
        <time>2012-08-09T08:28:36Z</time>
      </trkpt>
      <trkpt lat="45.00485" lon="5.56481">
        <ele>2282.79</ele>
        <time>2012-08-09T08:28:54Z</time>
      </trkpt>
      <trkpt lat="45.00484" lon="5.56476">
        <ele>2282.79</ele>
        <time>2012-08-09T08:29:08Z</time>
      </trkpt>
      <trkpt lat="45.00488" lon="5.56471">
        <ele>2282.31</ele>
        <time>2012-08-09T08:29:26Z</time>
      </trkpt>
      <trkpt lat="45.00487" lon="5.56469">
        <ele>2282.31</ele>
        <time>2012-08-09T08:29:37Z</time>
      </trkpt>
      <trkpt lat="45.00491" lon="5.56466">
        <ele>2281.83</ele>
        <time>2012-08-09T08:29:50Z</time>
      </trkpt>
      <trkpt lat="45.0049" lon="5.56456">
        <ele>2281.83</ele>
        <time>2012-08-09T08:30:06Z</time>
      </trkpt>
      <trkpt lat="45.00491" lon="5.56452">
        <ele>2283.27</ele>
        <time>2012-08-09T08:30:18Z</time>
      </trkpt>
      <trkpt lat="45.00492" lon="5.56447">
        <ele>2284.71</ele>
        <time>2012-08-09T08:30:41Z</time>
      </trkpt>
      <trkpt lat="45.00493" lon="5.5644">
        <ele>2283.75</ele>
        <time>2012-08-09T08:30:56Z</time>
      </trkpt>
      <trkpt lat="45.00495" lon="5.56433">
        <ele>2283.27</ele>
        <time>2012-08-09T08:31:12Z</time>
      </trkpt>
      <trkpt lat="45.00493" lon="5.56426">
        <ele>2285.19</ele>
        <time>2012-08-09T08:31:26Z</time>
      </trkpt>
      <trkpt lat="45.00491" lon="5.56415">
        <ele>2287.11</ele>
        <time>2012-08-09T08:31:41Z</time>
      </trkpt>
      <trkpt lat="45.00491" lon="5.56411">
        <ele>2288.56</ele>
        <time>2012-08-09T08:31:57Z</time>
      </trkpt>
      <trkpt lat="45.00491" lon="5.56411">
        <ele>2290</ele>
        <time>2012-08-09T08:32:12Z</time>
      </trkpt>
      <trkpt lat="45.00492" lon="5.56412">
        <ele>2291.44</ele>
        <time>2012-08-09T08:32:33Z</time>
      </trkpt>
      <trkpt lat="45.00495" lon="5.56414">
        <ele>2290.96</ele>
        <time>2012-08-09T08:32:52Z</time>
      </trkpt>
      <trkpt lat="45.00493" lon="5.56413">
        <ele>2289.04</ele>
        <time>2012-08-09T08:33:27Z</time>
      </trkpt>
      <trkpt lat="45.00491" lon="5.56411">
        <ele>2289.52</ele>
        <time>2012-08-09T08:33:43Z</time>
      </trkpt>
      <trkpt lat="45.00494" lon="5.56413">
        <ele>2289.52</ele>
        <time>2012-08-09T08:34:06Z</time>
      </trkpt>
      <trkpt lat="45.00495" lon="5.56413">
        <ele>2289.52</ele>
        <time>2012-08-09T08:34:07Z</time>
      </trkpt>
      <trkpt lat="45.00494" lon="5.56414">
        <ele>2287.59</ele>
        <time>2012-08-09T08:34:21Z</time>
      </trkpt>
      <trkpt lat="45.00494" lon="5.56412">
        <ele>2287.11</ele>
        <time>2012-08-09T08:34:29Z</time>
      </trkpt>
      <trkpt lat="45.00493" lon="5.56409">
        <ele>2287.59</ele>
        <time>2012-08-09T08:34:33Z</time>
      </trkpt>
      <trkpt lat="45.00495" lon="5.5641">
        <ele>2288.08</ele>
        <time>2012-08-09T08:34:43Z</time>
      </trkpt>
      <trkpt lat="45.00493" lon="5.56409">
        <ele>2287.11</ele>
        <time>2012-08-09T08:34:59Z</time>
      </trkpt>
      <trkpt lat="45.00495" lon="5.5641">
        <ele>2287.11</ele>
        <time>2012-08-09T08:35:16Z</time>
      </trkpt>
      <trkpt lat="45.00497" lon="5.56418">
        <ele>2286.63</ele>
        <time>2012-08-09T08:35:21Z</time>
      </trkpt>
      <trkpt lat="45.005" lon="5.56421">
        <ele>2286.63</ele>
        <time>2012-08-09T08:35:33Z</time>
      </trkpt>
      <trkpt lat="45.00497" lon="5.56417">
        <ele>2287.59</ele>
        <time>2012-08-09T08:36:00Z</time>
      </trkpt>
      <trkpt lat="45.00494" lon="5.56418">
        <ele>2287.59</ele>
        <time>2012-08-09T08:36:08Z</time>
      </trkpt>
      <trkpt lat="45.00492" lon="5.56414">
        <ele>2288.08</ele>
        <time>2012-08-09T08:36:20Z</time>
      </trkpt>
      <trkpt lat="45.00495" lon="5.56413">
        <ele>2287.11</ele>
        <time>2012-08-09T08:36:36Z</time>
      </trkpt>
      <trkpt lat="45.00495" lon="5.56414">
        <ele>2288.08</ele>
        <time>2012-08-09T08:37:07Z</time>
      </trkpt>
      <trkpt lat="45.00496" lon="5.56412">
        <ele>2289.04</ele>
        <time>2012-08-09T08:37:36Z</time>
      </trkpt>
      <trkpt lat="45.00495" lon="5.56411">
        <ele>2288.56</ele>
        <time>2012-08-09T08:37:40Z</time>
      </trkpt>
      <trkpt lat="45.00495" lon="5.56414">
        <ele>2289.04</ele>
        <time>2012-08-09T08:37:53Z</time>
      </trkpt>
      <trkpt lat="45.00495" lon="5.56415">
        <ele>2287.59</ele>
        <time>2012-08-09T08:38:05Z</time>
      </trkpt>
      <trkpt lat="45.00494" lon="5.56415">
        <ele>2287.59</ele>
        <time>2012-08-09T08:38:29Z</time>
      </trkpt>
      <trkpt lat="45.00492" lon="5.56414">
        <ele>2289.52</ele>
        <time>2012-08-09T08:38:41Z</time>
      </trkpt>
      <trkpt lat="45.00493" lon="5.56416">
        <ele>2289.52</ele>
        <time>2012-08-09T08:39:00Z</time>
      </trkpt>
      <trkpt lat="45.00494" lon="5.56413">
        <ele>2287.59</ele>
        <time>2012-08-09T08:39:15Z</time>
      </trkpt>
      <trkpt lat="45.00491" lon="5.56414">
        <ele>2284.71</ele>
        <time>2012-08-09T08:39:56Z</time>
      </trkpt>
      <trkpt lat="45.00496" lon="5.56416">
        <ele>2287.59</ele>
        <time>2012-08-09T08:40:19Z</time>
      </trkpt>
      <trkpt lat="45.00496" lon="5.56415">
        <ele>2288.56</ele>
        <time>2012-08-09T08:40:42Z</time>
      </trkpt>
      <trkpt lat="45.00492" lon="5.56414">
        <ele>2287.59</ele>
        <time>2012-08-09T08:41:03Z</time>
      </trkpt>
      <trkpt lat="45.00492" lon="5.56416">
        <ele>2287.11</ele>
        <time>2012-08-09T08:41:24Z</time>
      </trkpt>
      <trkpt lat="45.00491" lon="5.56417">
        <ele>2285.67</ele>
        <time>2012-08-09T08:42:01Z</time>
      </trkpt>
      <trkpt lat="45.0049" lon="5.56416">
        <ele>2284.71</ele>
        <time>2012-08-09T08:42:37Z</time>
      </trkpt>
      <trkpt lat="45.00489" lon="5.56417">
        <ele>2284.71</ele>
        <time>2012-08-09T08:43:09Z</time>
      </trkpt>
      <trkpt lat="45.0049" lon="5.56416">
        <ele>2283.75</ele>
        <time>2012-08-09T08:43:34Z</time>
      </trkpt>
      <trkpt lat="45.0049" lon="5.56417">
        <ele>2285.19</ele>
        <time>2012-08-09T08:43:52Z</time>
      </trkpt>
      <trkpt lat="45.00489" lon="5.56418">
        <ele>2286.63</ele>
        <time>2012-08-09T08:44:22Z</time>
      </trkpt>
      <trkpt lat="45.00491" lon="5.56417">
        <ele>2286.63</ele>
        <time>2012-08-09T08:44:57Z</time>
      </trkpt>
      <trkpt lat="45.00491" lon="5.56417">
        <ele>2286.63</ele>
        <time>2012-08-09T08:44:59Z</time>
      </trkpt>
      <trkpt lat="45.00498" lon="5.56423">
        <ele>2286.63</ele>
        <time>2012-08-09T08:45:13Z</time>
      </trkpt>
      <trkpt lat="45.00494" lon="5.56415">
        <ele>2285.67</ele>
        <time>2012-08-09T08:45:41Z</time>
      </trkpt>
      <trkpt lat="45.0049" lon="5.56413">
        <ele>2286.15</ele>
        <time>2012-08-09T08:45:52Z</time>
      </trkpt>
      <trkpt lat="45.00492" lon="5.56416">
        <ele>2288.08</ele>
        <time>2012-08-09T08:46:20Z</time>
      </trkpt>
      <trkpt lat="45.0049" lon="5.56417">
        <ele>2286.63</ele>
        <time>2012-08-09T08:46:57Z</time>
      </trkpt>
      <trkpt lat="45.0049" lon="5.56415">
        <ele>2284.71</ele>
        <time>2012-08-09T08:47:28Z</time>
      </trkpt>
      <trkpt lat="45.00491" lon="5.56415">
        <ele>2287.11</ele>
        <time>2012-08-09T08:47:59Z</time>
      </trkpt>
      <trkpt lat="45.0049" lon="5.56415">
        <ele>2285.19</ele>
        <time>2012-08-09T08:48:31Z</time>
      </trkpt>
      <trkpt lat="45.00491" lon="5.56411">
        <ele>2285.67</ele>
        <time>2012-08-09T08:48:45Z</time>
      </trkpt>
      <trkpt lat="45.00492" lon="5.56413">
        <ele>2285.19</ele>
        <time>2012-08-09T08:49:10Z</time>
      </trkpt>
      <trkpt lat="45.00491" lon="5.56414">
        <ele>2284.23</ele>
        <time>2012-08-09T08:49:21Z</time>
      </trkpt>
      <trkpt lat="45.00491" lon="5.56414">
        <ele>2283.75</ele>
        <time>2012-08-09T08:49:55Z</time>
      </trkpt>
      <trkpt lat="45.00491" lon="5.56411">
        <ele>2283.27</ele>
        <time>2012-08-09T08:50:14Z</time>
      </trkpt>
      <trkpt lat="45.00493" lon="5.56414">
        <ele>2282.31</ele>
        <time>2012-08-09T08:50:28Z</time>
      </trkpt>
      <trkpt lat="45.00493" lon="5.56413">
        <ele>2282.79</ele>
        <time>2012-08-09T08:50:41Z</time>
      </trkpt>
      <trkpt lat="45.00493" lon="5.56411">
        <ele>2283.75</ele>
        <time>2012-08-09T08:51:16Z</time>
      </trkpt>
      <trkpt lat="45.00493" lon="5.56406">
        <ele>2283.27</ele>
        <time>2012-08-09T08:51:31Z</time>
      </trkpt>
      <trkpt lat="45.00493" lon="5.56388">
        <ele>2280.38</ele>
        <time>2012-08-09T08:51:48Z</time>
      </trkpt>
      <trkpt lat="45.00491" lon="5.56377">
        <ele>2279.42</ele>
        <time>2012-08-09T08:52:03Z</time>
      </trkpt>
      <trkpt lat="45.00491" lon="5.56376">
        <ele>2278.94</ele>
        <time>2012-08-09T08:52:04Z</time>
      </trkpt>
      <trkpt lat="45.00485" lon="5.56365">
        <ele>2277.98</ele>
        <time>2012-08-09T08:52:18Z</time>
      </trkpt>
      <trkpt lat="45.00485" lon="5.56355">
        <ele>2276.54</ele>
        <time>2012-08-09T08:52:33Z</time>
      </trkpt>
      <trkpt lat="45.00483" lon="5.56341">
        <ele>2275.58</ele>
        <time>2012-08-09T08:52:48Z</time>
      </trkpt>
      <trkpt lat="45.00483" lon="5.56338">
        <ele>2275.58</ele>
        <time>2012-08-09T08:52:50Z</time>
      </trkpt>
      <trkpt lat="45.00485" lon="5.56322">
        <ele>2274.14</ele>
        <time>2012-08-09T08:53:04Z</time>
      </trkpt>
      <trkpt lat="45.00486" lon="5.56312">
        <ele>2272.69</ele>
        <time>2012-08-09T08:53:17Z</time>
      </trkpt>
      <trkpt lat="45.00488" lon="5.56312">
        <ele>2272.69</ele>
        <time>2012-08-09T08:53:19Z</time>
      </trkpt>
      <trkpt lat="45.0049" lon="5.56314">
        <ele>2271.73</ele>
        <time>2012-08-09T08:53:22Z</time>
      </trkpt>
      <trkpt lat="45.0049" lon="5.56306">
        <ele>2269.81</ele>
        <time>2012-08-09T08:53:36Z</time>
      </trkpt>
      <trkpt lat="45.00491" lon="5.56305">
        <ele>2269.81</ele>
        <time>2012-08-09T08:53:53Z</time>
      </trkpt>
      <trkpt lat="45.00495" lon="5.56303">
        <ele>2268.85</ele>
        <time>2012-08-09T08:54:10Z</time>
      </trkpt>
      <trkpt lat="45.00497" lon="5.56296">
        <ele>2267.41</ele>
        <time>2012-08-09T08:54:24Z</time>
      </trkpt>
      <trkpt lat="45.00502" lon="5.56293">
        <ele>2263.56</ele>
        <time>2012-08-09T08:54:38Z</time>
      </trkpt>
      <trkpt lat="45.00506" lon="5.56288">
        <ele>2259.24</ele>
        <time>2012-08-09T08:54:51Z</time>
      </trkpt>
      <trkpt lat="45.00512" lon="5.56285">
        <ele>2257.31</ele>
        <time>2012-08-09T08:55:03Z</time>
      </trkpt>
      <trkpt lat="45.00518" lon="5.5628">
        <ele>2252.99</ele>
        <time>2012-08-09T08:55:17Z</time>
      </trkpt>
      <trkpt lat="45.00522" lon="5.56274">
        <ele>2249.62</ele>
        <time>2012-08-09T08:55:30Z</time>
      </trkpt>
      <trkpt lat="45.00524" lon="5.56267">
        <ele>2247.22</ele>
        <time>2012-08-09T08:55:41Z</time>
      </trkpt>
      <trkpt lat="45.00525" lon="5.56268">
        <ele>2246.74</ele>
        <time>2012-08-09T08:55:45Z</time>
      </trkpt>
      <trkpt lat="45.00531" lon="5.56271">
        <ele>2243.85</ele>
        <time>2012-08-09T08:55:57Z</time>
      </trkpt>
      <trkpt lat="45.00534" lon="5.56271">
        <ele>2241.93</ele>
        <time>2012-08-09T08:56:08Z</time>
      </trkpt>
      <trkpt lat="45.00535" lon="5.56261">
        <ele>2239.53</ele>
        <time>2012-08-09T08:56:21Z</time>
      </trkpt>
      <trkpt lat="45.00535" lon="5.56258">
        <ele>2239.53</ele>
        <time>2012-08-09T08:56:23Z</time>
      </trkpt>
      <trkpt lat="45.00537" lon="5.5624">
        <ele>2236.16</ele>
        <time>2012-08-09T08:56:40Z</time>
      </trkpt>
      <trkpt lat="45.00539" lon="5.56233">
        <ele>2234.72</ele>
        <time>2012-08-09T08:56:59Z</time>
      </trkpt>
      <trkpt lat="45.00544" lon="5.56223">
        <ele>2231.84</ele>
        <time>2012-08-09T08:57:14Z</time>
      </trkpt>
      <trkpt lat="45.0054" lon="5.56213">
        <ele>2228.95</ele>
        <time>2012-08-09T08:57:26Z</time>
      </trkpt>
      <trkpt lat="45.00541" lon="5.56204">
        <ele>2226.07</ele>
        <time>2012-08-09T08:57:41Z</time>
      </trkpt>
      <trkpt lat="45.0054" lon="5.56196">
        <ele>2223.67</ele>
        <time>2012-08-09T08:57:57Z</time>
      </trkpt>
      <trkpt lat="45.00541" lon="5.56193">
        <ele>2220.78</ele>
        <time>2012-08-09T08:58:09Z</time>
      </trkpt>
      <trkpt lat="45.00542" lon="5.56186">
        <ele>2221.26</ele>
        <time>2012-08-09T08:58:22Z</time>
      </trkpt>
      <trkpt lat="45.00541" lon="5.56179">
        <ele>2219.82</ele>
        <time>2012-08-09T08:58:37Z</time>
      </trkpt>
      <trkpt lat="45.00538" lon="5.56177">
        <ele>2218.86</ele>
        <time>2012-08-09T08:58:52Z</time>
      </trkpt>
      <trkpt lat="45.0054" lon="5.56181">
        <ele>2218.86</ele>
        <time>2012-08-09T08:59:16Z</time>
      </trkpt>
      <trkpt lat="45.00538" lon="5.56183">
        <ele>2219.82</ele>
        <time>2012-08-09T08:59:35Z</time>
      </trkpt>
      <trkpt lat="45.00534" lon="5.56178">
        <ele>2220.78</ele>
        <time>2012-08-09T08:59:51Z</time>
      </trkpt>
      <trkpt lat="45.0053" lon="5.56176">
        <ele>2218.38</ele>
        <time>2012-08-09T09:00:08Z</time>
      </trkpt>
      <trkpt lat="45.00534" lon="5.5618">
        <ele>2220.3</ele>
        <time>2012-08-09T09:00:29Z</time>
      </trkpt>
      <trkpt lat="45.00534" lon="5.56181">
        <ele>2218.38</ele>
        <time>2012-08-09T09:00:49Z</time>
      </trkpt>
      <trkpt lat="45.00538" lon="5.56187">
        <ele>2216.94</ele>
        <time>2012-08-09T09:01:07Z</time>
      </trkpt>
      <trkpt lat="45.00535" lon="5.5618">
        <ele>2215.98</ele>
        <time>2012-08-09T09:01:24Z</time>
      </trkpt>
      <trkpt lat="45.00536" lon="5.56182">
        <ele>2214.53</ele>
        <time>2012-08-09T09:01:40Z</time>
      </trkpt>
      <trkpt lat="45.00532" lon="5.56186">
        <ele>2213.09</ele>
        <time>2012-08-09T09:02:00Z</time>
      </trkpt>
      <trkpt lat="45.00532" lon="5.56188">
        <ele>2212.61</ele>
        <time>2012-08-09T09:02:12Z</time>
      </trkpt>
      <trkpt lat="45.00524" lon="5.562">
        <ele>2213.09</ele>
        <time>2012-08-09T09:02:28Z</time>
      </trkpt>
      <trkpt lat="45.00516" lon="5.56207">
        <ele>2213.09</ele>
        <time>2012-08-09T09:02:44Z</time>
      </trkpt>
      <trkpt lat="45.00507" lon="5.56214">
        <ele>2215.5</ele>
        <time>2012-08-09T09:02:59Z</time>
      </trkpt>
      <trkpt lat="45.005" lon="5.56208">
        <ele>2213.57</ele>
        <time>2012-08-09T09:03:13Z</time>
      </trkpt>
      <trkpt lat="45.00498" lon="5.56205">
        <ele>2211.17</ele>
        <time>2012-08-09T09:03:28Z</time>
      </trkpt>
      <trkpt lat="45.00495" lon="5.56203">
        <ele>2211.65</ele>
        <time>2012-08-09T09:03:44Z</time>
      </trkpt>
      <trkpt lat="45.00495" lon="5.56206">
        <ele>2210.69</ele>
        <time>2012-08-09T09:04:01Z</time>
      </trkpt>
      <trkpt lat="45.00495" lon="5.56211">
        <ele>2210.69</ele>
        <time>2012-08-09T09:04:18Z</time>
      </trkpt>
      <trkpt lat="45.00494" lon="5.5621">
        <ele>2212.61</ele>
        <time>2012-08-09T09:04:34Z</time>
      </trkpt>
      <trkpt lat="45.00496" lon="5.56211">
        <ele>2212.13</ele>
        <time>2012-08-09T09:04:52Z</time>
      </trkpt>
      <trkpt lat="45.00494" lon="5.56209">
        <ele>2213.09</ele>
        <time>2012-08-09T09:05:17Z</time>
      </trkpt>
      <trkpt lat="45.00491" lon="5.5621">
        <ele>2215.01</ele>
        <time>2012-08-09T09:05:38Z</time>
      </trkpt>
      <trkpt lat="45.00474" lon="5.562">
        <ele>2221.74</ele>
        <time>2012-08-09T09:06:03Z</time>
      </trkpt>
      <trkpt lat="45.00479" lon="5.56207">
        <ele>2224.63</ele>
        <time>2012-08-09T09:06:23Z</time>
      </trkpt>
      <trkpt lat="45.00481" lon="5.56206">
        <ele>2226.55</ele>
        <time>2012-08-09T09:06:43Z</time>
      </trkpt>
      <trkpt lat="45.0048" lon="5.56208">
        <ele>2214.53</ele>
        <time>2012-08-09T09:07:01Z</time>
      </trkpt>
      <trkpt lat="45.0048" lon="5.56205">
        <ele>2207.81</ele>
        <time>2012-08-09T09:07:16Z</time>
      </trkpt>
      <trkpt lat="45.00483" lon="5.56212">
        <ele>2200.59</ele>
        <time>2012-08-09T09:07:35Z</time>
      </trkpt>
      <trkpt lat="45.00479" lon="5.56202">
        <ele>2204.44</ele>
        <time>2012-08-09T09:07:59Z</time>
      </trkpt>
      <trkpt lat="45.0048" lon="5.56205">
        <ele>2203</ele>
        <time>2012-08-09T09:08:12Z</time>
      </trkpt>
      <trkpt lat="45.0048" lon="5.56205">
        <ele>2200.11</ele>
        <time>2012-08-09T09:08:27Z</time>
      </trkpt>
      <trkpt lat="45.00478" lon="5.56209">
        <ele>2200.59</ele>
        <time>2012-08-09T09:08:42Z</time>
      </trkpt>
      <trkpt lat="45.00474" lon="5.56203">
        <ele>2197.71</ele>
        <time>2012-08-09T09:08:56Z</time>
      </trkpt>
      <trkpt lat="45.00473" lon="5.56199">
        <ele>2197.23</ele>
        <time>2012-08-09T09:09:11Z</time>
      </trkpt>
      <trkpt lat="45.00477" lon="5.56198">
        <ele>2193.87</ele>
        <time>2012-08-09T09:09:27Z</time>
      </trkpt>
      <trkpt lat="45.00479" lon="5.56197">
        <ele>2194.35</ele>
        <time>2012-08-09T09:09:43Z</time>
      </trkpt>
      <trkpt lat="45.00476" lon="5.56198">
        <ele>2192.42</ele>
        <time>2012-08-09T09:10:06Z</time>
      </trkpt>
      <trkpt lat="45.00474" lon="5.56198">
        <ele>2190.02</ele>
        <time>2012-08-09T09:10:20Z</time>
      </trkpt>
      <trkpt lat="45.00477" lon="5.56195">
        <ele>2190.02</ele>
        <time>2012-08-09T09:10:41Z</time>
      </trkpt>
      <trkpt lat="45.00479" lon="5.56195">
        <ele>2191.46</ele>
        <time>2012-08-09T09:11:03Z</time>
      </trkpt>
      <trkpt lat="45.00479" lon="5.56193">
        <ele>2191.46</ele>
        <time>2012-08-09T09:11:26Z</time>
      </trkpt>
      <trkpt lat="45.00479" lon="5.56194">
        <ele>2188.58</ele>
        <time>2012-08-09T09:11:48Z</time>
      </trkpt>
      <trkpt lat="45.00477" lon="5.56196">
        <ele>2189.06</ele>
        <time>2012-08-09T09:12:18Z</time>
      </trkpt>
      <trkpt lat="45.00476" lon="5.56196">
        <ele>2187.14</ele>
        <time>2012-08-09T09:12:41Z</time>
      </trkpt>
      <trkpt lat="45.00476" lon="5.56196">
        <ele>2183.29</ele>
        <time>2012-08-09T09:12:54Z</time>
      </trkpt>
      <trkpt lat="45.00477" lon="5.56193">
        <ele>2180.41</ele>
        <time>2012-08-09T09:13:12Z</time>
      </trkpt>
      <trkpt lat="45.00475" lon="5.56187">
        <ele>2181.37</ele>
        <time>2012-08-09T09:13:24Z</time>
      </trkpt>
      <trkpt lat="45.00478" lon="5.56183">
        <ele>2180.89</ele>
        <time>2012-08-09T09:13:38Z</time>
      </trkpt>
      <trkpt lat="45.00477" lon="5.56178">
        <ele>2179.93</ele>
        <time>2012-08-09T09:13:53Z</time>
      </trkpt>
      <trkpt lat="45.00476" lon="5.5618">
        <ele>2178.48</ele>
        <time>2012-08-09T09:14:17Z</time>
      </trkpt>
      <trkpt lat="45.00471" lon="5.56177">
        <ele>2176.08</ele>
        <time>2012-08-09T09:14:31Z</time>
      </trkpt>
      <trkpt lat="45.00472" lon="5.56175">
        <ele>2172.24</ele>
        <time>2012-08-09T09:14:45Z</time>
      </trkpt>
      <trkpt lat="45.0047" lon="5.5617">
        <ele>2170.31</ele>
        <time>2012-08-09T09:14:59Z</time>
      </trkpt>
      <trkpt lat="45.0047" lon="5.56171">
        <ele>2169.35</ele>
        <time>2012-08-09T09:15:18Z</time>
      </trkpt>
      <trkpt lat="45.00471" lon="5.56167">
        <ele>2170.31</ele>
        <time>2012-08-09T09:15:35Z</time>
      </trkpt>
      <trkpt lat="45.0047" lon="5.5617">
        <ele>2170.31</ele>
        <time>2012-08-09T09:15:59Z</time>
      </trkpt>
      <trkpt lat="45.0047" lon="5.56168">
        <ele>2168.87</ele>
        <time>2012-08-09T09:16:14Z</time>
      </trkpt>
      <trkpt lat="45.00468" lon="5.56162">
        <ele>2166.95</ele>
        <time>2012-08-09T09:16:27Z</time>
      </trkpt>
      <trkpt lat="45.00472" lon="5.5616">
        <ele>2165.99</ele>
        <time>2012-08-09T09:16:33Z</time>
      </trkpt>
      <trkpt lat="45.00474" lon="5.56152">
        <ele>2163.1</ele>
        <time>2012-08-09T09:16:49Z</time>
      </trkpt>
      <trkpt lat="45.00471" lon="5.56149">
        <ele>2162.14</ele>
        <time>2012-08-09T09:17:03Z</time>
      </trkpt>
      <trkpt lat="45.00472" lon="5.56149">
        <ele>2157.34</ele>
        <time>2012-08-09T09:17:17Z</time>
      </trkpt>
      <trkpt lat="45.0047" lon="5.56151">
        <ele>2156.37</ele>
        <time>2012-08-09T09:17:31Z</time>
      </trkpt>
      <trkpt lat="45.00468" lon="5.56149">
        <ele>2155.41</ele>
        <time>2012-08-09T09:17:44Z</time>
      </trkpt>
      <trkpt lat="45.00467" lon="5.56146">
        <ele>2154.93</ele>
        <time>2012-08-09T09:17:54Z</time>
      </trkpt>
      <trkpt lat="45.00464" lon="5.56143">
        <ele>2153.49</ele>
        <time>2012-08-09T09:18:05Z</time>
      </trkpt>
      <trkpt lat="45.00459" lon="5.56142">
        <ele>2149.65</ele>
        <time>2012-08-09T09:18:19Z</time>
      </trkpt>
      <trkpt lat="45.00462" lon="5.56136">
        <ele>2146.76</ele>
        <time>2012-08-09T09:18:34Z</time>
      </trkpt>
      <trkpt lat="45.00455" lon="5.56136">
        <ele>2142.92</ele>
        <time>2012-08-09T09:18:49Z</time>
      </trkpt>
      <trkpt lat="45.00454" lon="5.56135">
        <ele>2140.99</ele>
        <time>2012-08-09T09:19:06Z</time>
      </trkpt>
      <trkpt lat="45.00452" lon="5.5613">
        <ele>2140.51</ele>
        <time>2012-08-09T09:19:22Z</time>
      </trkpt>
      <trkpt lat="45.00451" lon="5.56127">
        <ele>2138.59</ele>
        <time>2012-08-09T09:19:33Z</time>
      </trkpt>
      <trkpt lat="45.00449" lon="5.56121">
        <ele>2138.11</ele>
        <time>2012-08-09T09:19:48Z</time>
      </trkpt>
      <trkpt lat="45.00444" lon="5.56118">
        <ele>2136.19</ele>
        <time>2012-08-09T09:20:02Z</time>
      </trkpt>
      <trkpt lat="45.00443" lon="5.56115">
        <ele>2135.23</ele>
        <time>2012-08-09T09:20:08Z</time>
      </trkpt>
      <trkpt lat="45.00436" lon="5.56107">
        <ele>2131.38</ele>
        <time>2012-08-09T09:20:23Z</time>
      </trkpt>
      <trkpt lat="45.00445" lon="5.561">
        <ele>2127.05</ele>
        <time>2012-08-09T09:20:37Z</time>
      </trkpt>
      <trkpt lat="45.00453" lon="5.56092">
        <ele>2125.61</ele>
        <time>2012-08-09T09:20:51Z</time>
      </trkpt>
      <trkpt lat="45.0046" lon="5.56091">
        <ele>2121.77</ele>
        <time>2012-08-09T09:21:05Z</time>
      </trkpt>
      <trkpt lat="45.0045" lon="5.56085">
        <ele>2116.48</ele>
        <time>2012-08-09T09:21:20Z</time>
      </trkpt>
      <trkpt lat="45.0044" lon="5.56081">
        <ele>2113.12</ele>
        <time>2012-08-09T09:21:34Z</time>
      </trkpt>
      <trkpt lat="45.0043" lon="5.56074">
        <ele>2108.79</ele>
        <time>2012-08-09T09:21:51Z</time>
      </trkpt>
      <trkpt lat="45.00424" lon="5.56069">
        <ele>2106.39</ele>
        <time>2012-08-09T09:22:05Z</time>
      </trkpt>
      <trkpt lat="45.00411" lon="5.56057">
        <ele>2102.54</ele>
        <time>2012-08-09T09:22:25Z</time>
      </trkpt>
      <trkpt lat="45.0041" lon="5.56056">
        <ele>2102.54</ele>
        <time>2012-08-09T09:22:26Z</time>
      </trkpt>
      <trkpt lat="45.00404" lon="5.56053">
        <ele>2100.14</ele>
        <time>2012-08-09T09:22:36Z</time>
      </trkpt>
      <trkpt lat="45.00398" lon="5.56048">
        <ele>2097.73</ele>
        <time>2012-08-09T09:22:46Z</time>
      </trkpt>
      <trkpt lat="45.00387" lon="5.56047">
        <ele>2096.77</ele>
        <time>2012-08-09T09:23:00Z</time>
      </trkpt>
      <trkpt lat="45.00385" lon="5.56047">
        <ele>2095.81</ele>
        <time>2012-08-09T09:23:13Z</time>
      </trkpt>
      <trkpt lat="45.00384" lon="5.56046">
        <ele>2094.85</ele>
        <time>2012-08-09T09:23:35Z</time>
      </trkpt>
      <trkpt lat="45.00383" lon="5.56041">
        <ele>2094.85</ele>
        <time>2012-08-09T09:23:46Z</time>
      </trkpt>
      <trkpt lat="45.00384" lon="5.56038">
        <ele>2093.41</ele>
        <time>2012-08-09T09:24:15Z</time>
      </trkpt>
      <trkpt lat="45.00384" lon="5.56032">
        <ele>2092.45</ele>
        <time>2012-08-09T09:24:40Z</time>
      </trkpt>
      <trkpt lat="45.00383" lon="5.5603">
        <ele>2092.45</ele>
        <time>2012-08-09T09:24:43Z</time>
      </trkpt>
      <trkpt lat="45.00379" lon="5.56022">
        <ele>2091.97</ele>
        <time>2012-08-09T09:24:57Z</time>
      </trkpt>
      <trkpt lat="45.00378" lon="5.56017">
        <ele>2092.45</ele>
        <time>2012-08-09T09:25:01Z</time>
      </trkpt>
      <trkpt lat="45.00375" lon="5.56012">
        <ele>2092.45</ele>
        <time>2012-08-09T09:25:05Z</time>
      </trkpt>
      <trkpt lat="45.00371" lon="5.55999">
        <ele>2092.93</ele>
        <time>2012-08-09T09:25:21Z</time>
      </trkpt>
      <trkpt lat="45.00364" lon="5.5599">
        <ele>2095.81</ele>
        <time>2012-08-09T09:25:34Z</time>
      </trkpt>
      <trkpt lat="45.00357" lon="5.55982">
        <ele>2100.62</ele>
        <time>2012-08-09T09:25:50Z</time>
      </trkpt>
      <trkpt lat="45.00358" lon="5.55978">
        <ele>2102.06</ele>
        <time>2012-08-09T09:26:10Z</time>
      </trkpt>
      <trkpt lat="45.00355" lon="5.55969">
        <ele>2105.42</ele>
        <time>2012-08-09T09:26:22Z</time>
      </trkpt>
      <trkpt lat="45.0035" lon="5.55956">
        <ele>2106.39</ele>
        <time>2012-08-09T09:26:38Z</time>
      </trkpt>
      <trkpt lat="45.00349" lon="5.55948">
        <ele>2108.79</ele>
        <time>2012-08-09T09:26:53Z</time>
      </trkpt>
      <trkpt lat="45.00348" lon="5.55939">
        <ele>2109.27</ele>
        <time>2012-08-09T09:27:04Z</time>
      </trkpt>
      <trkpt lat="45.00345" lon="5.55934">
        <ele>2110.71</ele>
        <time>2012-08-09T09:27:19Z</time>
      </trkpt>
      <trkpt lat="45.00341" lon="5.55939">
        <ele>2113.6</ele>
        <time>2012-08-09T09:27:34Z</time>
      </trkpt>
      <trkpt lat="45.00339" lon="5.55942">
        <ele>2115.52</ele>
        <time>2012-08-09T09:27:49Z</time>
      </trkpt>
      <trkpt lat="45.00334" lon="5.55953">
        <ele>2116.96</ele>
        <time>2012-08-09T09:28:03Z</time>
      </trkpt>
      <trkpt lat="45.00333" lon="5.55945">
        <ele>2120.32</ele>
        <time>2012-08-09T09:28:19Z</time>
      </trkpt>
      <trkpt lat="45.00332" lon="5.55938">
        <ele>2120.81</ele>
        <time>2012-08-09T09:28:35Z</time>
      </trkpt>
      <trkpt lat="45.00332" lon="5.55923">
        <ele>2123.21</ele>
        <time>2012-08-09T09:28:52Z</time>
      </trkpt>
      <trkpt lat="45.00331" lon="5.55915">
        <ele>2125.61</ele>
        <time>2012-08-09T09:29:04Z</time>
      </trkpt>
      <trkpt lat="45.00327" lon="5.55929">
        <ele>2128.02</ele>
        <time>2012-08-09T09:29:20Z</time>
      </trkpt>
      <trkpt lat="45.00324" lon="5.55924">
        <ele>2129.46</ele>
        <time>2012-08-09T09:29:32Z</time>
      </trkpt>
      <trkpt lat="45.00325" lon="5.55923">
        <ele>2132.34</ele>
        <time>2012-08-09T09:29:45Z</time>
      </trkpt>
      <trkpt lat="45.00325" lon="5.55924">
        <ele>2133.3</ele>
        <time>2012-08-09T09:30:04Z</time>
      </trkpt>
      <trkpt lat="45.00326" lon="5.55921">
        <ele>2135.23</ele>
        <time>2012-08-09T09:30:18Z</time>
      </trkpt>
      <trkpt lat="45.00326" lon="5.55905">
        <ele>2137.15</ele>
        <time>2012-08-09T09:30:31Z</time>
      </trkpt>
      <trkpt lat="45.00329" lon="5.55896">
        <ele>2139.07</ele>
        <time>2012-08-09T09:30:46Z</time>
      </trkpt>
      <trkpt lat="45.00329" lon="5.5589">
        <ele>2142.92</ele>
        <time>2012-08-09T09:30:59Z</time>
      </trkpt>
      <trkpt lat="45.00328" lon="5.55884">
        <ele>2144.84</ele>
        <time>2012-08-09T09:31:12Z</time>
      </trkpt>
      <trkpt lat="45.0033" lon="5.5588">
        <ele>2147.24</ele>
        <time>2012-08-09T09:31:27Z</time>
      </trkpt>
      <trkpt lat="45.0033" lon="5.55876">
        <ele>2150.13</ele>
        <time>2012-08-09T09:31:41Z</time>
      </trkpt>
      <trkpt lat="45.00331" lon="5.55869">
        <ele>2152.53</ele>
        <time>2012-08-09T09:31:56Z</time>
      </trkpt>
      <trkpt lat="45.00329" lon="5.55867">
        <ele>2152.05</ele>
        <time>2012-08-09T09:32:13Z</time>
      </trkpt>
      <trkpt lat="45.00328" lon="5.55868">
        <ele>2153.01</ele>
        <time>2012-08-09T09:32:27Z</time>
      </trkpt>
      <trkpt lat="45.00321" lon="5.55874">
        <ele>2155.89</ele>
        <time>2012-08-09T09:32:41Z</time>
      </trkpt>
      <trkpt lat="45.00317" lon="5.55874">
        <ele>2158.3</ele>
        <time>2012-08-09T09:32:57Z</time>
      </trkpt>
      <trkpt lat="45.00317" lon="5.55877">
        <ele>2161.66</ele>
        <time>2012-08-09T09:33:26Z</time>
      </trkpt>
      <trkpt lat="45.00317" lon="5.55867">
        <ele>2162.14</ele>
        <time>2012-08-09T09:33:39Z</time>
      </trkpt>
      <trkpt lat="45.00317" lon="5.55866">
        <ele>2161.66</ele>
        <time>2012-08-09T09:34:07Z</time>
      </trkpt>
      <trkpt lat="45.00319" lon="5.55864">
        <ele>2161.18</ele>
        <time>2012-08-09T09:34:23Z</time>
      </trkpt>
      <trkpt lat="45.00318" lon="5.55866">
        <ele>2160.7</ele>
        <time>2012-08-09T09:34:42Z</time>
      </trkpt>
      <trkpt lat="45.00319" lon="5.5586">
        <ele>2158.3</ele>
        <time>2012-08-09T09:35:15Z</time>
      </trkpt>
      <trkpt lat="45.0032" lon="5.55852">
        <ele>2158.78</ele>
        <time>2012-08-09T09:35:28Z</time>
      </trkpt>
      <trkpt lat="45.0032" lon="5.5584">
        <ele>2158.78</ele>
        <time>2012-08-09T09:35:42Z</time>
      </trkpt>
      <trkpt lat="45.00321" lon="5.55829">
        <ele>2157.82</ele>
        <time>2012-08-09T09:35:55Z</time>
      </trkpt>
      <trkpt lat="45.00323" lon="5.55828">
        <ele>2153.97</ele>
        <time>2012-08-09T09:36:10Z</time>
      </trkpt>
      <trkpt lat="45.00327" lon="5.55824">
        <ele>2150.13</ele>
        <time>2012-08-09T09:36:23Z</time>
      </trkpt>
      <trkpt lat="45.00328" lon="5.55818">
        <ele>2148.2</ele>
        <time>2012-08-09T09:36:30Z</time>
      </trkpt>
      <trkpt lat="45.00329" lon="5.558">
        <ele>2144.36</ele>
        <time>2012-08-09T09:36:48Z</time>
      </trkpt>
      <trkpt lat="45.0033" lon="5.55801">
        <ele>2142.92</ele>
        <time>2012-08-09T09:37:06Z</time>
      </trkpt>
      <trkpt lat="45.0033" lon="5.55801">
        <ele>2143.88</ele>
        <time>2012-08-09T09:37:23Z</time>
      </trkpt>
      <trkpt lat="45.0033" lon="5.558">
        <ele>2141.95</ele>
        <time>2012-08-09T09:37:36Z</time>
      </trkpt>
      <trkpt lat="45.0033" lon="5.55799">
        <ele>2143.88</ele>
        <time>2012-08-09T09:38:19Z</time>
      </trkpt>
      <trkpt lat="45.0033" lon="5.55798">
        <ele>2144.36</ele>
        <time>2012-08-09T09:38:46Z</time>
      </trkpt>
      <trkpt lat="45.00329" lon="5.55798">
        <ele>2144.84</ele>
        <time>2012-08-09T09:39:13Z</time>
      </trkpt>
      <trkpt lat="45.0033" lon="5.55798">
        <ele>2144.84</ele>
        <time>2012-08-09T09:39:32Z</time>
      </trkpt>
      <trkpt lat="45.0033" lon="5.55797">
        <ele>2145.8</ele>
        <time>2012-08-09T09:39:53Z</time>
      </trkpt>
      <trkpt lat="45.0033" lon="5.55798">
        <ele>2144.84</ele>
        <time>2012-08-09T09:40:19Z</time>
      </trkpt>
      <trkpt lat="45.00329" lon="5.55798">
        <ele>2145.32</ele>
        <time>2012-08-09T09:40:46Z</time>
      </trkpt>
      <trkpt lat="45.00329" lon="5.55797">
        <ele>2146.28</ele>
        <time>2012-08-09T09:41:13Z</time>
      </trkpt>
      <trkpt lat="45.0033" lon="5.55798">
        <ele>2145.32</ele>
        <time>2012-08-09T09:41:48Z</time>
      </trkpt>
      <trkpt lat="45.00329" lon="5.55797">
        <ele>2145.32</ele>
        <time>2012-08-09T09:42:18Z</time>
      </trkpt>
      <trkpt lat="45.0033" lon="5.55798">
        <ele>2144.84</ele>
        <time>2012-08-09T09:42:51Z</time>
      </trkpt>
      <trkpt lat="45.0033" lon="5.55798">
        <ele>2143.88</ele>
        <time>2012-08-09T09:43:31Z</time>
      </trkpt>
      <trkpt lat="45.0033" lon="5.55798">
        <ele>2144.36</ele>
        <time>2012-08-09T09:44:04Z</time>
      </trkpt>
      <trkpt lat="45.0033" lon="5.55798">
        <ele>2143.88</ele>
        <time>2012-08-09T09:44:45Z</time>
      </trkpt>
      <trkpt lat="45.0033" lon="5.55798">
        <ele>2144.36</ele>
        <time>2012-08-09T09:45:24Z</time>
      </trkpt>
      <trkpt lat="45.0033" lon="5.55798">
        <ele>2143.88</ele>
        <time>2012-08-09T09:46:03Z</time>
      </trkpt>
      <trkpt lat="45.0033" lon="5.55798">
        <ele>2144.36</ele>
        <time>2012-08-09T09:46:51Z</time>
      </trkpt>
      <trkpt lat="45.00329" lon="5.55798">
        <ele>2143.88</ele>
        <time>2012-08-09T09:47:31Z</time>
      </trkpt>
      <trkpt lat="45.0033" lon="5.55798">
        <ele>2144.84</ele>
        <time>2012-08-09T09:48:07Z</time>
      </trkpt>
      <trkpt lat="45.0033" lon="5.55798">
        <ele>2144.84</ele>
        <time>2012-08-09T09:48:49Z</time>
      </trkpt>
      <trkpt lat="45.0033" lon="5.55798">
        <ele>2144.36</ele>
        <time>2012-08-09T09:49:42Z</time>
      </trkpt>
      <trkpt lat="45.00331" lon="5.55799">
        <ele>2144.36</ele>
        <time>2012-08-09T09:50:34Z</time>
      </trkpt>
      <trkpt lat="45.0033" lon="5.55799">
        <ele>2144.84</ele>
        <time>2012-08-09T09:51:20Z</time>
      </trkpt>
      <trkpt lat="45.00331" lon="5.55799">
        <ele>2145.32</ele>
        <time>2012-08-09T09:52:09Z</time>
      </trkpt>
      <trkpt lat="45.00331" lon="5.55799">
        <ele>2144.84</ele>
        <time>2012-08-09T09:52:46Z</time>
      </trkpt>
      <trkpt lat="45.00331" lon="5.55799">
        <ele>2144.84</ele>
        <time>2012-08-09T09:53:18Z</time>
      </trkpt>
      <trkpt lat="45.00331" lon="5.55799">
        <ele>2145.32</ele>
        <time>2012-08-09T09:53:53Z</time>
      </trkpt>
      <trkpt lat="45.00331" lon="5.55798">
        <ele>2145.32</ele>
        <time>2012-08-09T09:54:37Z</time>
      </trkpt>
      <trkpt lat="45.00331" lon="5.55798">
        <ele>2144.84</ele>
        <time>2012-08-09T09:55:10Z</time>
      </trkpt>
      <trkpt lat="45.00331" lon="5.55798">
        <ele>2143.88</ele>
        <time>2012-08-09T09:55:43Z</time>
      </trkpt>
      <trkpt lat="45.00331" lon="5.55798">
        <ele>2144.36</ele>
        <time>2012-08-09T09:56:16Z</time>
      </trkpt>
      <trkpt lat="45.00331" lon="5.55799">
        <ele>2144.36</ele>
        <time>2012-08-09T09:56:48Z</time>
      </trkpt>
      <trkpt lat="45.00331" lon="5.55798">
        <ele>2145.32</ele>
        <time>2012-08-09T09:57:15Z</time>
      </trkpt>
      <trkpt lat="45.00331" lon="5.55798">
        <ele>2145.32</ele>
        <time>2012-08-09T09:57:47Z</time>
      </trkpt>
      <trkpt lat="45.00331" lon="5.55798">
        <ele>2144.36</ele>
        <time>2012-08-09T09:58:13Z</time>
      </trkpt>
      <trkpt lat="45.0033" lon="5.55798">
        <ele>2144.36</ele>
        <time>2012-08-09T09:58:36Z</time>
      </trkpt>
      <trkpt lat="45.00331" lon="5.55799">
        <ele>2144.84</ele>
        <time>2012-08-09T09:59:08Z</time>
      </trkpt>
      <trkpt lat="45.00331" lon="5.55798">
        <ele>2145.32</ele>
        <time>2012-08-09T09:59:39Z</time>
      </trkpt>
      <trkpt lat="45.00332" lon="5.55798">
        <ele>2145.8</ele>
        <time>2012-08-09T10:00:08Z</time>
      </trkpt>
      <trkpt lat="45.00331" lon="5.55799">
        <ele>2144.84</ele>
        <time>2012-08-09T10:00:34Z</time>
      </trkpt>
      <trkpt lat="45.00332" lon="5.55798">
        <ele>2145.32</ele>
        <time>2012-08-09T10:00:59Z</time>
      </trkpt>
      <trkpt lat="45.00332" lon="5.55798">
        <ele>2145.32</ele>
        <time>2012-08-09T10:01:33Z</time>
      </trkpt>
      <trkpt lat="45.00331" lon="5.55798">
        <ele>2144.84</ele>
        <time>2012-08-09T10:01:52Z</time>
      </trkpt>
      <trkpt lat="45.00332" lon="5.55798">
        <ele>2144.36</ele>
        <time>2012-08-09T10:02:25Z</time>
      </trkpt>
      <trkpt lat="45.00331" lon="5.55798">
        <ele>2144.84</ele>
        <time>2012-08-09T10:03:01Z</time>
      </trkpt>
      <trkpt lat="45.00331" lon="5.55798">
        <ele>2145.32</ele>
        <time>2012-08-09T10:03:26Z</time>
      </trkpt>
      <trkpt lat="45.00331" lon="5.55798">
        <ele>2146.28</ele>
        <time>2012-08-09T10:04:02Z</time>
      </trkpt>
      <trkpt lat="45.00331" lon="5.55798">
        <ele>2147.24</ele>
        <time>2012-08-09T10:04:32Z</time>
      </trkpt>
      <trkpt lat="45.00331" lon="5.55798">
        <ele>2146.28</ele>
        <time>2012-08-09T10:05:12Z</time>
      </trkpt>
      <trkpt lat="45.00331" lon="5.55797">
        <ele>2147.24</ele>
        <time>2012-08-09T10:05:38Z</time>
      </trkpt>
      <trkpt lat="45.00331" lon="5.55798">
        <ele>2145.8</ele>
        <time>2012-08-09T10:06:05Z</time>
      </trkpt>
      <trkpt lat="45.00331" lon="5.55797">
        <ele>2146.76</ele>
        <time>2012-08-09T10:06:42Z</time>
      </trkpt>
      <trkpt lat="45.00331" lon="5.55797">
        <ele>2146.76</ele>
        <time>2012-08-09T10:07:15Z</time>
      </trkpt>
      <trkpt lat="45.00331" lon="5.55797">
        <ele>2146.76</ele>
        <time>2012-08-09T10:07:38Z</time>
      </trkpt>
      <trkpt lat="45.00332" lon="5.558">
        <ele>2143.4</ele>
        <time>2012-08-09T10:08:12Z</time>
      </trkpt>
      <trkpt lat="45.00331" lon="5.55799">
        <ele>2145.32</ele>
        <time>2012-08-09T10:08:42Z</time>
      </trkpt>
      <trkpt lat="45.00331" lon="5.55798">
        <ele>2145.8</ele>
        <time>2012-08-09T10:09:21Z</time>
      </trkpt>
      <trkpt lat="45.00331" lon="5.55797">
        <ele>2147.24</ele>
        <time>2012-08-09T10:09:59Z</time>
      </trkpt>
      <trkpt lat="45.00331" lon="5.55798">
        <ele>2146.76</ele>
        <time>2012-08-09T10:10:24Z</time>
      </trkpt>
      <trkpt lat="45.0033" lon="5.55797">
        <ele>2146.76</ele>
        <time>2012-08-09T10:10:55Z</time>
      </trkpt>
      <trkpt lat="45.0033" lon="5.55798">
        <ele>2147.72</ele>
        <time>2012-08-09T10:11:22Z</time>
      </trkpt>
      <trkpt lat="45.00331" lon="5.55798">
        <ele>2147.24</ele>
        <time>2012-08-09T10:11:48Z</time>
      </trkpt>
      <trkpt lat="45.0033" lon="5.55798">
        <ele>2147.24</ele>
        <time>2012-08-09T10:12:12Z</time>
      </trkpt>
      <trkpt lat="45.0033" lon="5.55798">
        <ele>2145.8</ele>
        <time>2012-08-09T10:12:35Z</time>
      </trkpt>
      <trkpt lat="45.0033" lon="5.55798">
        <ele>2146.28</ele>
        <time>2012-08-09T10:13:04Z</time>
      </trkpt>
      <trkpt lat="45.0033" lon="5.55798">
        <ele>2144.36</ele>
        <time>2012-08-09T10:13:36Z</time>
      </trkpt>
      <trkpt lat="45.00331" lon="5.55799">
        <ele>2143.4</ele>
        <time>2012-08-09T10:14:09Z</time>
      </trkpt>
      <trkpt lat="45.00331" lon="5.55799">
        <ele>2143.88</ele>
        <time>2012-08-09T10:14:42Z</time>
      </trkpt>
      <trkpt lat="45.00332" lon="5.558">
        <ele>2145.32</ele>
        <time>2012-08-09T10:15:14Z</time>
      </trkpt>
      <trkpt lat="45.00333" lon="5.558">
        <ele>2145.32</ele>
        <time>2012-08-09T10:15:51Z</time>
      </trkpt>
      <trkpt lat="45.00333" lon="5.558">
        <ele>2146.28</ele>
        <time>2012-08-09T10:16:28Z</time>
      </trkpt>
      <trkpt lat="45.00333" lon="5.558">
        <ele>2146.28</ele>
        <time>2012-08-09T10:16:49Z</time>
      </trkpt>
      <trkpt lat="45.00332" lon="5.558">
        <ele>2146.28</ele>
        <time>2012-08-09T10:17:14Z</time>
      </trkpt>
      <trkpt lat="45.00333" lon="5.558">
        <ele>2147.24</ele>
        <time>2012-08-09T10:17:53Z</time>
      </trkpt>
      <trkpt lat="45.00334" lon="5.558">
        <ele>2146.76</ele>
        <time>2012-08-09T10:18:26Z</time>
      </trkpt>
      <trkpt lat="45.00333" lon="5.55801">
        <ele>2146.28</ele>
        <time>2012-08-09T10:19:04Z</time>
      </trkpt>
      <trkpt lat="45.00333" lon="5.55801">
        <ele>2147.24</ele>
        <time>2012-08-09T10:19:35Z</time>
      </trkpt>
      <trkpt lat="45.00333" lon="5.558">
        <ele>2146.28</ele>
        <time>2012-08-09T10:20:14Z</time>
      </trkpt>
      <trkpt lat="45.00332" lon="5.558">
        <ele>2146.76</ele>
        <time>2012-08-09T10:20:55Z</time>
      </trkpt>
      <trkpt lat="45.00333" lon="5.55801">
        <ele>2147.24</ele>
        <time>2012-08-09T10:21:19Z</time>
      </trkpt>
      <trkpt lat="45.00332" lon="5.558">
        <ele>2147.24</ele>
        <time>2012-08-09T10:21:55Z</time>
      </trkpt>
      <trkpt lat="45.00331" lon="5.558">
        <ele>2146.76</ele>
        <time>2012-08-09T10:22:34Z</time>
      </trkpt>
      <trkpt lat="45.00331" lon="5.558">
        <ele>2146.76</ele>
        <time>2012-08-09T10:23:08Z</time>
      </trkpt>
      <trkpt lat="45.00332" lon="5.55799">
        <ele>2150.13</ele>
        <time>2012-08-09T10:23:39Z</time>
      </trkpt>
      <trkpt lat="45.00332" lon="5.558">
        <ele>2151.57</ele>
        <time>2012-08-09T10:24:10Z</time>
      </trkpt>
      <trkpt lat="45.00332" lon="5.558">
        <ele>2152.53</ele>
        <time>2012-08-09T10:24:40Z</time>
      </trkpt>
      <trkpt lat="45.00332" lon="5.558">
        <ele>2152.05</ele>
        <time>2012-08-09T10:25:11Z</time>
      </trkpt>
      <trkpt lat="45.00332" lon="5.558">
        <ele>2152.05</ele>
        <time>2012-08-09T10:25:52Z</time>
      </trkpt>
      <trkpt lat="45.00333" lon="5.558">
        <ele>2150.61</ele>
        <time>2012-08-09T10:26:25Z</time>
      </trkpt>
      <trkpt lat="45.00333" lon="5.558">
        <ele>2150.61</ele>
        <time>2012-08-09T10:26:40Z</time>
      </trkpt>
      <trkpt lat="45.00333" lon="5.55798">
        <ele>2150.13</ele>
        <time>2012-08-09T10:26:54Z</time>
      </trkpt>
      <trkpt lat="45.00332" lon="5.55798">
        <ele>2149.65</ele>
        <time>2012-08-09T10:27:19Z</time>
      </trkpt>
      <trkpt lat="45.00332" lon="5.55798">
        <ele>2150.61</ele>
        <time>2012-08-09T10:27:47Z</time>
      </trkpt>
      <trkpt lat="45.00333" lon="5.55798">
        <ele>2151.09</ele>
        <time>2012-08-09T10:28:34Z</time>
      </trkpt>
      <trkpt lat="45.00332" lon="5.55799">
        <ele>2151.57</ele>
        <time>2012-08-09T10:29:09Z</time>
      </trkpt>
      <trkpt lat="45.00332" lon="5.55799">
        <ele>2151.09</ele>
        <time>2012-08-09T10:29:42Z</time>
      </trkpt>
      <trkpt lat="45.00331" lon="5.55798">
        <ele>2152.05</ele>
        <time>2012-08-09T10:30:24Z</time>
      </trkpt>
      <trkpt lat="45.0033" lon="5.55797">
        <ele>2152.53</ele>
        <time>2012-08-09T10:30:56Z</time>
      </trkpt>
      <trkpt lat="45.00333" lon="5.55801">
        <ele>2149.16</ele>
        <time>2012-08-09T10:31:19Z</time>
      </trkpt>
      <trkpt lat="45.00334" lon="5.55801">
        <ele>2149.65</ele>
        <time>2012-08-09T10:31:39Z</time>
      </trkpt>
      <trkpt lat="45.00335" lon="5.55802">
        <ele>2152.05</ele>
        <time>2012-08-09T10:32:13Z</time>
      </trkpt>
      <trkpt lat="45.00331" lon="5.55799">
        <ele>2152.53</ele>
        <time>2012-08-09T10:32:40Z</time>
      </trkpt>
      <trkpt lat="45.00332" lon="5.55798">
        <ele>2149.16</ele>
        <time>2012-08-09T10:33:13Z</time>
      </trkpt>
      <trkpt lat="45.00332" lon="5.55797">
        <ele>2148.68</ele>
        <time>2012-08-09T10:33:39Z</time>
      </trkpt>
      <trkpt lat="45.00331" lon="5.55795">
        <ele>2151.09</ele>
        <time>2012-08-09T10:34:01Z</time>
      </trkpt>
      <trkpt lat="45.00329" lon="5.55796">
        <ele>2153.49</ele>
        <time>2012-08-09T10:34:18Z</time>
      </trkpt>
      <trkpt lat="45.00331" lon="5.55798">
        <ele>2150.61</ele>
        <time>2012-08-09T10:34:59Z</time>
      </trkpt>
      <trkpt lat="45.00328" lon="5.55796">
        <ele>2152.53</ele>
        <time>2012-08-09T10:35:38Z</time>
      </trkpt>
      <trkpt lat="45.00328" lon="5.55797">
        <ele>2153.97</ele>
        <time>2012-08-09T10:36:07Z</time>
      </trkpt>
      <trkpt lat="45.00327" lon="5.55796">
        <ele>2155.41</ele>
        <time>2012-08-09T10:36:32Z</time>
      </trkpt>
      <trkpt lat="45.00326" lon="5.55795">
        <ele>2155.41</ele>
        <time>2012-08-09T10:36:57Z</time>
      </trkpt>
      <trkpt lat="45.00327" lon="5.55796">
        <ele>2154.45</ele>
        <time>2012-08-09T10:37:27Z</time>
      </trkpt>
      <trkpt lat="45.00327" lon="5.55795">
        <ele>2154.93</ele>
        <time>2012-08-09T10:38:05Z</time>
      </trkpt>
      <trkpt lat="45.00328" lon="5.55795">
        <ele>2154.93</ele>
        <time>2012-08-09T10:38:38Z</time>
      </trkpt>
      <trkpt lat="45.00328" lon="5.55795">
        <ele>2154.45</ele>
        <time>2012-08-09T10:39:07Z</time>
      </trkpt>
      <trkpt lat="45.00328" lon="5.55795">
        <ele>2155.41</ele>
        <time>2012-08-09T10:39:43Z</time>
      </trkpt>
      <trkpt lat="45.00327" lon="5.55795">
        <ele>2156.37</ele>
        <time>2012-08-09T10:40:11Z</time>
      </trkpt>
      <trkpt lat="45.00332" lon="5.558">
        <ele>2150.61</ele>
        <time>2012-08-09T10:40:34Z</time>
      </trkpt>
      <trkpt lat="45.00332" lon="5.55799">
        <ele>2149.65</ele>
        <time>2012-08-09T10:40:53Z</time>
      </trkpt>
      <trkpt lat="45.00332" lon="5.55798">
        <ele>2148.68</ele>
        <time>2012-08-09T10:41:12Z</time>
      </trkpt>
      <trkpt lat="45.00333" lon="5.558">
        <ele>2148.68</ele>
        <time>2012-08-09T10:41:35Z</time>
      </trkpt>
      <trkpt lat="45.00333" lon="5.55799">
        <ele>2149.16</ele>
        <time>2012-08-09T10:41:48Z</time>
      </trkpt>
      <trkpt lat="45.00333" lon="5.558">
        <ele>2148.68</ele>
        <time>2012-08-09T10:42:01Z</time>
      </trkpt>
      <trkpt lat="45.00331" lon="5.55798">
        <ele>2148.68</ele>
        <time>2012-08-09T10:42:30Z</time>
      </trkpt>
      <trkpt lat="45.00332" lon="5.55801">
        <ele>2147.24</ele>
        <time>2012-08-09T10:42:46Z</time>
      </trkpt>
      <trkpt lat="45.00332" lon="5.55793">
        <ele>2145.32</ele>
        <time>2012-08-09T10:43:02Z</time>
      </trkpt>
      <trkpt lat="45.00328" lon="5.55786">
        <ele>2145.8</ele>
        <time>2012-08-09T10:43:16Z</time>
      </trkpt>
      <trkpt lat="45.00326" lon="5.55779">
        <ele>2144.84</ele>
        <time>2012-08-09T10:43:22Z</time>
      </trkpt>
      <trkpt lat="45.00322" lon="5.55767">
        <ele>2140.99</ele>
        <time>2012-08-09T10:43:38Z</time>
      </trkpt>
      <trkpt lat="45.00322" lon="5.55765">
        <ele>2140.51</ele>
        <time>2012-08-09T10:43:40Z</time>
      </trkpt>
      <trkpt lat="45.0032" lon="5.55756">
        <ele>2138.11</ele>
        <time>2012-08-09T10:43:46Z</time>
      </trkpt>
      <trkpt lat="45.00315" lon="5.55742">
        <ele>2133.78</ele>
        <time>2012-08-09T10:44:01Z</time>
      </trkpt>
      <trkpt lat="45.00314" lon="5.55729">
        <ele>2128.98</ele>
        <time>2012-08-09T10:44:17Z</time>
      </trkpt>
      <trkpt lat="45.00317" lon="5.55719">
        <ele>2126.09</ele>
        <time>2012-08-09T10:44:33Z</time>
      </trkpt>
      <trkpt lat="45.00316" lon="5.5571">
        <ele>2122.73</ele>
        <time>2012-08-09T10:44:50Z</time>
      </trkpt>
      <trkpt lat="45.00315" lon="5.55705">
        <ele>2120.81</ele>
        <time>2012-08-09T10:45:01Z</time>
      </trkpt>
      <trkpt lat="45.00318" lon="5.55697">
        <ele>2117.44</ele>
        <time>2012-08-09T10:45:17Z</time>
      </trkpt>
      <trkpt lat="45.00323" lon="5.55691">
        <ele>2113.6</ele>
        <time>2012-08-09T10:45:29Z</time>
      </trkpt>
      <trkpt lat="45.00323" lon="5.5569">
        <ele>2112.63</ele>
        <time>2012-08-09T10:45:31Z</time>
      </trkpt>
      <trkpt lat="45.00326" lon="5.55685">
        <ele>2109.27</ele>
        <time>2012-08-09T10:45:43Z</time>
      </trkpt>
      <trkpt lat="45.00325" lon="5.5568">
        <ele>2105.91</ele>
        <time>2012-08-09T10:45:56Z</time>
      </trkpt>
      <trkpt lat="45.00328" lon="5.55675">
        <ele>2105.42</ele>
        <time>2012-08-09T10:46:06Z</time>
      </trkpt>
      <trkpt lat="45.00328" lon="5.55673">
        <ele>2104.46</ele>
        <time>2012-08-09T10:46:18Z</time>
      </trkpt>
      <trkpt lat="45.00326" lon="5.55674">
        <ele>2104.94</ele>
        <time>2012-08-09T10:46:29Z</time>
      </trkpt>
      <trkpt lat="45.00326" lon="5.55671">
        <ele>2104.46</ele>
        <time>2012-08-09T10:46:47Z</time>
      </trkpt>
      <trkpt lat="45.00325" lon="5.55672">
        <ele>2104.94</ele>
        <time>2012-08-09T10:47:00Z</time>
      </trkpt>
      <trkpt lat="45.0033" lon="5.55673">
        <ele>2104.46</ele>
        <time>2012-08-09T10:47:28Z</time>
      </trkpt>
      <trkpt lat="45.00327" lon="5.55676">
        <ele>2103.5</ele>
        <time>2012-08-09T10:47:48Z</time>
      </trkpt>
      <trkpt lat="45.00327" lon="5.55671">
        <ele>2101.1</ele>
        <time>2012-08-09T10:48:20Z</time>
      </trkpt>
      <trkpt lat="45.00326" lon="5.55673">
        <ele>2101.1</ele>
        <time>2012-08-09T10:48:52Z</time>
      </trkpt>
      <trkpt lat="45.00326" lon="5.55671">
        <ele>2104.94</ele>
        <time>2012-08-09T10:49:06Z</time>
      </trkpt>
      <trkpt lat="45.00326" lon="5.55673">
        <ele>2105.42</ele>
        <time>2012-08-09T10:49:22Z</time>
      </trkpt>
      <trkpt lat="45.00327" lon="5.55673">
        <ele>2107.83</ele>
        <time>2012-08-09T10:49:36Z</time>
      </trkpt>
      <trkpt lat="45.00327" lon="5.55675">
        <ele>2107.83</ele>
        <time>2012-08-09T10:50:04Z</time>
      </trkpt>
      <trkpt lat="45.00327" lon="5.55673">
        <ele>2108.79</ele>
        <time>2012-08-09T10:50:26Z</time>
      </trkpt>
      <trkpt lat="45.00328" lon="5.55674">
        <ele>2109.27</ele>
        <time>2012-08-09T10:50:51Z</time>
      </trkpt>
      <trkpt lat="45.00329" lon="5.55674">
        <ele>2110.71</ele>
        <time>2012-08-09T10:51:18Z</time>
      </trkpt>
      <trkpt lat="45.00326" lon="5.55675">
        <ele>2110.23</ele>
        <time>2012-08-09T10:51:19Z</time>
      </trkpt>
      <trkpt lat="45.0032" lon="5.55686">
        <ele>2110.23</ele>
        <time>2012-08-09T10:51:33Z</time>
      </trkpt>
      <trkpt lat="45.0032" lon="5.5569">
        <ele>2110.71</ele>
        <time>2012-08-09T10:51:37Z</time>
      </trkpt>
      <trkpt lat="45.00321" lon="5.55699">
        <ele>2115.04</ele>
        <time>2012-08-09T10:51:48Z</time>
      </trkpt>
      <trkpt lat="45.00318" lon="5.55702">
        <ele>2117.44</ele>
        <time>2012-08-09T10:51:54Z</time>
      </trkpt>
      <trkpt lat="45.00316" lon="5.55708">
        <ele>2121.29</ele>
        <time>2012-08-09T10:52:07Z</time>
      </trkpt>
      <trkpt lat="45.00316" lon="5.55717">
        <ele>2123.69</ele>
        <time>2012-08-09T10:52:21Z</time>
      </trkpt>
      <trkpt lat="45.00313" lon="5.55718">
        <ele>2126.09</ele>
        <time>2012-08-09T10:52:36Z</time>
      </trkpt>
      <trkpt lat="45.00316" lon="5.55731">
        <ele>2128.02</ele>
        <time>2012-08-09T10:52:50Z</time>
      </trkpt>
      <trkpt lat="45.00319" lon="5.55744">
        <ele>2130.42</ele>
        <time>2012-08-09T10:53:04Z</time>
      </trkpt>
      <trkpt lat="45.00319" lon="5.55749">
        <ele>2131.38</ele>
        <time>2012-08-09T10:53:17Z</time>
      </trkpt>
      <trkpt lat="45.00322" lon="5.55761">
        <ele>2132.82</ele>
        <time>2012-08-09T10:53:29Z</time>
      </trkpt>
      <trkpt lat="45.00323" lon="5.55771">
        <ele>2137.63</ele>
        <time>2012-08-09T10:53:44Z</time>
      </trkpt>
      <trkpt lat="45.00326" lon="5.55784">
        <ele>2140.99</ele>
        <time>2012-08-09T10:53:58Z</time>
      </trkpt>
      <trkpt lat="45.00328" lon="5.55789">
        <ele>2141.95</ele>
        <time>2012-08-09T10:54:03Z</time>
      </trkpt>
      <trkpt lat="45.0033" lon="5.55794">
        <ele>2142.92</ele>
        <time>2012-08-09T10:54:08Z</time>
      </trkpt>
      <trkpt lat="45.00332" lon="5.55798">
        <ele>2143.88</ele>
        <time>2012-08-09T10:54:23Z</time>
      </trkpt>
      <trkpt lat="45.00332" lon="5.55797">
        <ele>2143.88</ele>
        <time>2012-08-09T10:54:37Z</time>
      </trkpt>
      <trkpt lat="45.00332" lon="5.55797">
        <ele>2143.4</ele>
        <time>2012-08-09T10:54:57Z</time>
      </trkpt>
      <trkpt lat="45.00337" lon="5.55796">
        <ele>2142.44</ele>
        <time>2012-08-09T10:55:26Z</time>
      </trkpt>
      <trkpt lat="45.00336" lon="5.55798">
        <ele>2142.44</ele>
        <time>2012-08-09T10:55:50Z</time>
      </trkpt>
      <trkpt lat="45.00338" lon="5.55797">
        <ele>2142.44</ele>
        <time>2012-08-09T10:56:08Z</time>
      </trkpt>
      <trkpt lat="45.00339" lon="5.55799">
        <ele>2143.4</ele>
        <time>2012-08-09T10:56:29Z</time>
      </trkpt>
      <trkpt lat="45.0034" lon="5.55799">
        <ele>2143.4</ele>
        <time>2012-08-09T10:56:51Z</time>
      </trkpt>
      <trkpt lat="45.00342" lon="5.55795">
        <ele>2146.76</ele>
        <time>2012-08-09T10:57:15Z</time>
      </trkpt>
      <trkpt lat="45.00344" lon="5.55797">
        <ele>2149.16</ele>
        <time>2012-08-09T10:57:38Z</time>
      </trkpt>
      <trkpt lat="45.00339" lon="5.55802">
        <ele>2145.8</ele>
        <time>2012-08-09T10:58:08Z</time>
      </trkpt>
      <trkpt lat="45.00339" lon="5.55793">
        <ele>2145.8</ele>
        <time>2012-08-09T10:58:37Z</time>
      </trkpt>
      <trkpt lat="45.00332" lon="5.55795">
        <ele>2142.92</ele>
        <time>2012-08-09T10:59:00Z</time>
      </trkpt>
      <trkpt lat="45.00334" lon="5.55783">
        <ele>2143.4</ele>
        <time>2012-08-09T10:59:24Z</time>
      </trkpt>
      <trkpt lat="45.00332" lon="5.55772">
        <ele>2140.99</ele>
        <time>2012-08-09T10:59:39Z</time>
      </trkpt>
      <trkpt lat="45.00331" lon="5.55763">
        <ele>2138.11</ele>
        <time>2012-08-09T10:59:58Z</time>
      </trkpt>
      <trkpt lat="45.00327" lon="5.5575">
        <ele>2135.23</ele>
        <time>2012-08-09T11:00:12Z</time>
      </trkpt>
      <trkpt lat="45.00324" lon="5.55736">
        <ele>2132.82</ele>
        <time>2012-08-09T11:00:31Z</time>
      </trkpt>
      <trkpt lat="45.00322" lon="5.55725">
        <ele>2128.98</ele>
        <time>2012-08-09T11:00:46Z</time>
      </trkpt>
      <trkpt lat="45.00318" lon="5.55711">
        <ele>2128.02</ele>
        <time>2012-08-09T11:01:07Z</time>
      </trkpt>
      <trkpt lat="45.00318" lon="5.55698">
        <ele>2126.09</ele>
        <time>2012-08-09T11:01:25Z</time>
      </trkpt>
      <trkpt lat="45.00314" lon="5.55685">
        <ele>2123.69</ele>
        <time>2012-08-09T11:01:42Z</time>
      </trkpt>
      <trkpt lat="45.00312" lon="5.55672">
        <ele>2122.25</ele>
        <time>2012-08-09T11:02:01Z</time>
      </trkpt>
      <trkpt lat="45.00306" lon="5.5567">
        <ele>2116.96</ele>
        <time>2012-08-09T11:02:14Z</time>
      </trkpt>
      <trkpt lat="45.00304" lon="5.5567">
        <ele>2116.48</ele>
        <time>2012-08-09T11:02:15Z</time>
      </trkpt>
      <trkpt lat="45.00296" lon="5.55665">
        <ele>2109.27</ele>
        <time>2012-08-09T11:02:33Z</time>
      </trkpt>
      <trkpt lat="45.00299" lon="5.55663">
        <ele>2107.35</ele>
        <time>2012-08-09T11:03:03Z</time>
      </trkpt>
      <trkpt lat="45.00294" lon="5.55657">
        <ele>2110.23</ele>
        <time>2012-08-09T11:03:24Z</time>
      </trkpt>
      <trkpt lat="45.00291" lon="5.55643">
        <ele>2109.75</ele>
        <time>2012-08-09T11:03:42Z</time>
      </trkpt>
      <trkpt lat="45.00294" lon="5.55628">
        <ele>2104.94</ele>
        <time>2012-08-09T11:04:03Z</time>
      </trkpt>
      <trkpt lat="45.00295" lon="5.55624">
        <ele>2102.54</ele>
        <time>2012-08-09T11:04:22Z</time>
      </trkpt>
      <trkpt lat="45.00297" lon="5.55618">
        <ele>2100.62</ele>
        <time>2012-08-09T11:04:39Z</time>
      </trkpt>
      <trkpt lat="45.00294" lon="5.55607">
        <ele>2098.21</ele>
        <time>2012-08-09T11:04:57Z</time>
      </trkpt>
      <trkpt lat="45.00291" lon="5.55587">
        <ele>2096.29</ele>
        <time>2012-08-09T11:05:17Z</time>
      </trkpt>
      <trkpt lat="45.00287" lon="5.55579">
        <ele>2091.97</ele>
        <time>2012-08-09T11:05:33Z</time>
      </trkpt>
      <trkpt lat="45.00284" lon="5.55563">
        <ele>2090.52</ele>
        <time>2012-08-09T11:05:55Z</time>
      </trkpt>
      <trkpt lat="45.00279" lon="5.55547">
        <ele>2091</ele>
        <time>2012-08-09T11:06:14Z</time>
      </trkpt>
      <trkpt lat="45.00277" lon="5.55533">
        <ele>2090.52</ele>
        <time>2012-08-09T11:06:31Z</time>
      </trkpt>
      <trkpt lat="45.00277" lon="5.55523">
        <ele>2089.08</ele>
        <time>2012-08-09T11:06:52Z</time>
      </trkpt>
      <trkpt lat="45.00272" lon="5.55513">
        <ele>2087.64</ele>
        <time>2012-08-09T11:07:06Z</time>
      </trkpt>
      <trkpt lat="45.0027" lon="5.55501">
        <ele>2085.72</ele>
        <time>2012-08-09T11:07:24Z</time>
      </trkpt>
      <trkpt lat="45.00273" lon="5.55498">
        <ele>2082.83</ele>
        <time>2012-08-09T11:07:47Z</time>
      </trkpt>
      <trkpt lat="45.00272" lon="5.55493">
        <ele>2080.91</ele>
        <time>2012-08-09T11:08:04Z</time>
      </trkpt>
      <trkpt lat="45.00271" lon="5.55492">
        <ele>2080.91</ele>
        <time>2012-08-09T11:08:29Z</time>
      </trkpt>
      <trkpt lat="45.00271" lon="5.55491">
        <ele>2080.91</ele>
        <time>2012-08-09T11:08:54Z</time>
      </trkpt>
      <trkpt lat="45.00272" lon="5.55492">
        <ele>2082.35</ele>
        <time>2012-08-09T11:09:18Z</time>
      </trkpt>
      <trkpt lat="45.00269" lon="5.55493">
        <ele>2082.35</ele>
        <time>2012-08-09T11:09:47Z</time>
      </trkpt>
      <trkpt lat="45.00261" lon="5.55491">
        <ele>2075.62</ele>
        <time>2012-08-09T11:10:04Z</time>
      </trkpt>
      <trkpt lat="45.00258" lon="5.55485">
        <ele>2076.1</ele>
        <time>2012-08-09T11:10:21Z</time>
      </trkpt>
      <trkpt lat="45.00261" lon="5.55474">
        <ele>2072.74</ele>
        <time>2012-08-09T11:10:40Z</time>
      </trkpt>
      <trkpt lat="45.00255" lon="5.55469">
        <ele>2069.86</ele>
        <time>2012-08-09T11:10:59Z</time>
      </trkpt>
      <trkpt lat="45.00256" lon="5.55448">
        <ele>2067.93</ele>
        <time>2012-08-09T11:11:16Z</time>
      </trkpt>
      <trkpt lat="45.00258" lon="5.55438">
        <ele>2066.97</ele>
        <time>2012-08-09T11:11:33Z</time>
      </trkpt>
      <trkpt lat="45.0026" lon="5.55424">
        <ele>2065.05</ele>
        <time>2012-08-09T11:11:48Z</time>
      </trkpt>
      <trkpt lat="45.00255" lon="5.55419">
        <ele>2061.2</ele>
        <time>2012-08-09T11:12:04Z</time>
      </trkpt>
      <trkpt lat="45.00249" lon="5.5541">
        <ele>2058.8</ele>
        <time>2012-08-09T11:12:19Z</time>
      </trkpt>
      <trkpt lat="45.00247" lon="5.55411">
        <ele>2055.92</ele>
        <time>2012-08-09T11:12:40Z</time>
      </trkpt>
      <trkpt lat="45.00241" lon="5.55417">
        <ele>2057.84</ele>
        <time>2012-08-09T11:12:56Z</time>
      </trkpt>
      <trkpt lat="45.00239" lon="5.55419">
        <ele>2056.88</ele>
        <time>2012-08-09T11:13:10Z</time>
      </trkpt>
      <trkpt lat="45.00238" lon="5.55415">
        <ele>2053.99</ele>
        <time>2012-08-09T11:13:28Z</time>
      </trkpt>
      <trkpt lat="45.00234" lon="5.55408">
        <ele>2053.51</ele>
        <time>2012-08-09T11:13:48Z</time>
      </trkpt>
      <trkpt lat="45.00226" lon="5.55403">
        <ele>2050.63</ele>
        <time>2012-08-09T11:14:03Z</time>
      </trkpt>
      <trkpt lat="45.00227" lon="5.554">
        <ele>2052.55</ele>
        <time>2012-08-09T11:14:27Z</time>
      </trkpt>
      <trkpt lat="45.00227" lon="5.554">
        <ele>2052.55</ele>
        <time>2012-08-09T11:14:28Z</time>
      </trkpt>
      <trkpt lat="45.00226" lon="5.55386">
        <ele>2053.03</ele>
        <time>2012-08-09T11:14:44Z</time>
      </trkpt>
      <trkpt lat="45.00224" lon="5.55377">
        <ele>2052.55</ele>
        <time>2012-08-09T11:14:55Z</time>
      </trkpt>
      <trkpt lat="45.00224" lon="5.55374">
        <ele>2052.07</ele>
        <time>2012-08-09T11:14:57Z</time>
      </trkpt>
      <trkpt lat="45.00224" lon="5.55372">
        <ele>2049.67</ele>
        <time>2012-08-09T11:15:12Z</time>
      </trkpt>
      <trkpt lat="45.00222" lon="5.55368">
        <ele>2048.71</ele>
        <time>2012-08-09T11:15:40Z</time>
      </trkpt>
      <trkpt lat="45.00218" lon="5.55356">
        <ele>2047.75</ele>
        <time>2012-08-09T11:16:02Z</time>
      </trkpt>
      <trkpt lat="45.00213" lon="5.55335">
        <ele>2046.78</ele>
        <time>2012-08-09T11:16:19Z</time>
      </trkpt>
      <trkpt lat="45.00215" lon="5.55329">
        <ele>2045.34</ele>
        <time>2012-08-09T11:16:37Z</time>
      </trkpt>
      <trkpt lat="45.00208" lon="5.55308">
        <ele>2043.9</ele>
        <time>2012-08-09T11:16:52Z</time>
      </trkpt>
      <trkpt lat="45.0021" lon="5.55296">
        <ele>2042.46</ele>
        <time>2012-08-09T11:17:06Z</time>
      </trkpt>
      <trkpt lat="45.0021" lon="5.55285">
        <ele>2040.54</ele>
        <time>2012-08-09T11:17:20Z</time>
      </trkpt>
      <trkpt lat="45.00211" lon="5.55268">
        <ele>2038.61</ele>
        <time>2012-08-09T11:17:39Z</time>
      </trkpt>
      <trkpt lat="45.00213" lon="5.55249">
        <ele>2036.21</ele>
        <time>2012-08-09T11:17:53Z</time>
      </trkpt>
      <trkpt lat="45.00215" lon="5.55228">
        <ele>2037.65</ele>
        <time>2012-08-09T11:18:09Z</time>
      </trkpt>
      <trkpt lat="45.00217" lon="5.55218">
        <ele>2037.17</ele>
        <time>2012-08-09T11:18:21Z</time>
      </trkpt>
      <trkpt lat="45.00214" lon="5.55208">
        <ele>2034.77</ele>
        <time>2012-08-09T11:18:32Z</time>
      </trkpt>
      <trkpt lat="45.00205" lon="5.55194">
        <ele>2035.25</ele>
        <time>2012-08-09T11:18:46Z</time>
      </trkpt>
      <trkpt lat="45.00199" lon="5.55187">
        <ele>2035.73</ele>
        <time>2012-08-09T11:18:58Z</time>
      </trkpt>
      <trkpt lat="45.00198" lon="5.55186">
        <ele>2036.21</ele>
        <time>2012-08-09T11:19:00Z</time>
      </trkpt>
      <trkpt lat="45.00196" lon="5.55172">
        <ele>2035.73</ele>
        <time>2012-08-09T11:19:14Z</time>
      </trkpt>
      <trkpt lat="45.00197" lon="5.55157">
        <ele>2033.81</ele>
        <time>2012-08-09T11:19:27Z</time>
      </trkpt>
      <trkpt lat="45.00195" lon="5.55155">
        <ele>2032.84</ele>
        <time>2012-08-09T11:19:36Z</time>
      </trkpt>
      <trkpt lat="45.00202" lon="5.55145">
        <ele>2029.48</ele>
        <time>2012-08-09T11:19:51Z</time>
      </trkpt>
      <trkpt lat="45.00205" lon="5.55126">
        <ele>2026.12</ele>
        <time>2012-08-09T11:20:07Z</time>
      </trkpt>
      <trkpt lat="45.00206" lon="5.55115">
        <ele>2024.19</ele>
        <time>2012-08-09T11:20:20Z</time>
      </trkpt>
      <trkpt lat="45.00206" lon="5.55113">
        <ele>2024.19</ele>
        <time>2012-08-09T11:20:21Z</time>
      </trkpt>
      <trkpt lat="45.00205" lon="5.55103">
        <ele>2022.27</ele>
        <time>2012-08-09T11:20:34Z</time>
      </trkpt>
      <trkpt lat="45.00205" lon="5.55097">
        <ele>2021.79</ele>
        <time>2012-08-09T11:20:47Z</time>
      </trkpt>
      <trkpt lat="45.00201" lon="5.55091">
        <ele>2022.75</ele>
        <time>2012-08-09T11:20:59Z</time>
      </trkpt>
      <trkpt lat="45.002" lon="5.55089">
        <ele>2022.75</ele>
        <time>2012-08-09T11:21:00Z</time>
      </trkpt>
      <trkpt lat="45.00197" lon="5.55075">
        <ele>2020.83</ele>
        <time>2012-08-09T11:21:12Z</time>
      </trkpt>
      <trkpt lat="45.00193" lon="5.55058">
        <ele>2017.46</ele>
        <time>2012-08-09T11:21:24Z</time>
      </trkpt>
      <trkpt lat="45.00183" lon="5.55043">
        <ele>2016.02</ele>
        <time>2012-08-09T11:21:38Z</time>
      </trkpt>
      <trkpt lat="45.0018" lon="5.5503">
        <ele>2013.62</ele>
        <time>2012-08-09T11:21:52Z</time>
      </trkpt>
      <trkpt lat="45.00179" lon="5.55025">
        <ele>2013.62</ele>
        <time>2012-08-09T11:21:54Z</time>
      </trkpt>
      <trkpt lat="45.00182" lon="5.55019">
        <ele>2010.73</ele>
        <time>2012-08-09T11:22:12Z</time>
      </trkpt>
      <trkpt lat="45.00188" lon="5.5502">
        <ele>2008.33</ele>
        <time>2012-08-09T11:22:25Z</time>
      </trkpt>
      <trkpt lat="45.00199" lon="5.55022">
        <ele>2004.97</ele>
        <time>2012-08-09T11:22:39Z</time>
      </trkpt>
      <trkpt lat="45.00213" lon="5.55022">
        <ele>2000.64</ele>
        <time>2012-08-09T11:22:56Z</time>
      </trkpt>
      <trkpt lat="45.00227" lon="5.55025">
        <ele>1996.8</ele>
        <time>2012-08-09T11:23:12Z</time>
      </trkpt>
      <trkpt lat="45.00244" lon="5.55039">
        <ele>1995.83</ele>
        <time>2012-08-09T11:23:31Z</time>
      </trkpt>
      <trkpt lat="45.00245" lon="5.55044">
        <ele>1997.28</ele>
        <time>2012-08-09T11:23:39Z</time>
      </trkpt>
      <trkpt lat="45.00247" lon="5.55046">
        <ele>1997.76</ele>
        <time>2012-08-09T11:23:57Z</time>
      </trkpt>
      <trkpt lat="45.00246" lon="5.55047">
        <ele>1997.76</ele>
        <time>2012-08-09T11:24:28Z</time>
      </trkpt>
      <trkpt lat="45.00249" lon="5.55065">
        <ele>2000.16</ele>
        <time>2012-08-09T11:24:41Z</time>
      </trkpt>
      <trkpt lat="45.0025" lon="5.55062">
        <ele>1998.72</ele>
        <time>2012-08-09T11:24:50Z</time>
      </trkpt>
      <trkpt lat="45.00251" lon="5.55066">
        <ele>1999.2</ele>
        <time>2012-08-09T11:24:52Z</time>
      </trkpt>
      <trkpt lat="45.00265" lon="5.55073">
        <ele>1997.28</ele>
        <time>2012-08-09T11:25:05Z</time>
      </trkpt>
      <trkpt lat="45.00275" lon="5.55066">
        <ele>1995.83</ele>
        <time>2012-08-09T11:25:15Z</time>
      </trkpt>
      <trkpt lat="45.00273" lon="5.55056">
        <ele>1992.95</ele>
        <time>2012-08-09T11:25:30Z</time>
      </trkpt>
      <trkpt lat="45.00273" lon="5.55053">
        <ele>1992.47</ele>
        <time>2012-08-09T11:25:48Z</time>
      </trkpt>
      <trkpt lat="45.00272" lon="5.55049">
        <ele>1987.18</ele>
        <time>2012-08-09T11:26:06Z</time>
      </trkpt>
      <trkpt lat="45.00276" lon="5.55045">
        <ele>1986.22</ele>
        <time>2012-08-09T11:26:23Z</time>
      </trkpt>
      <trkpt lat="45.00279" lon="5.55041">
        <ele>1986.22</ele>
        <time>2012-08-09T11:26:27Z</time>
      </trkpt>
      <trkpt lat="45.00281" lon="5.55037">
        <ele>1986.7</ele>
        <time>2012-08-09T11:26:31Z</time>
      </trkpt>
      <trkpt lat="45.00286" lon="5.55035">
        <ele>1987.66</ele>
        <time>2012-08-09T11:26:35Z</time>
      </trkpt>
      <trkpt lat="45.00304" lon="5.5503">
        <ele>1989.1</ele>
        <time>2012-08-09T11:26:52Z</time>
      </trkpt>
      <trkpt lat="45.00308" lon="5.55032">
        <ele>1989.59</ele>
        <time>2012-08-09T11:26:55Z</time>
      </trkpt>
      <trkpt lat="45.00322" lon="5.55032">
        <ele>1990.07</ele>
        <time>2012-08-09T11:27:09Z</time>
      </trkpt>
      <trkpt lat="45.0033" lon="5.55028">
        <ele>1991.03</ele>
        <time>2012-08-09T11:27:25Z</time>
      </trkpt>
      <trkpt lat="45.00322" lon="5.5503">
        <ele>1990.07</ele>
        <time>2012-08-09T11:27:52Z</time>
      </trkpt>
      <trkpt lat="45.00308" lon="5.5502">
        <ele>1987.18</ele>
        <time>2012-08-09T11:28:06Z</time>
      </trkpt>
      <trkpt lat="45.0031" lon="5.55018">
        <ele>1988.14</ele>
        <time>2012-08-09T11:28:21Z</time>
      </trkpt>
      <trkpt lat="45.0031" lon="5.55016">
        <ele>1988.14</ele>
        <time>2012-08-09T11:28:22Z</time>
      </trkpt>
      <trkpt lat="45.00309" lon="5.55008">
        <ele>1988.14</ele>
        <time>2012-08-09T11:28:27Z</time>
      </trkpt>
      <trkpt lat="45.00303" lon="5.5498">
        <ele>1987.18</ele>
        <time>2012-08-09T11:28:44Z</time>
      </trkpt>
      <trkpt lat="45.00294" lon="5.54964">
        <ele>1985.26</ele>
        <time>2012-08-09T11:28:58Z</time>
      </trkpt>
      <trkpt lat="45.00283" lon="5.54938">
        <ele>1982.86</ele>
        <time>2012-08-09T11:29:16Z</time>
      </trkpt>
      <trkpt lat="45.00282" lon="5.54927">
        <ele>1981.41</ele>
        <time>2012-08-09T11:29:23Z</time>
      </trkpt>
      <trkpt lat="45.00282" lon="5.54921">
        <ele>1980.45</ele>
        <time>2012-08-09T11:29:27Z</time>
      </trkpt>
      <trkpt lat="45.0028" lon="5.54914">
        <ele>1979.97</ele>
        <time>2012-08-09T11:29:32Z</time>
      </trkpt>
      <trkpt lat="45.00277" lon="5.54898">
        <ele>1979.49</ele>
        <time>2012-08-09T11:29:43Z</time>
      </trkpt>
      <trkpt lat="45.00277" lon="5.54872">
        <ele>1978.05</ele>
        <time>2012-08-09T11:29:59Z</time>
      </trkpt>
      <trkpt lat="45.00276" lon="5.54864">
        <ele>1977.57</ele>
        <time>2012-08-09T11:30:09Z</time>
      </trkpt>
      <trkpt lat="45.00276" lon="5.5486">
        <ele>1977.57</ele>
        <time>2012-08-09T11:30:12Z</time>
      </trkpt>
      <trkpt lat="45.00274" lon="5.5484">
        <ele>1977.09</ele>
        <time>2012-08-09T11:30:26Z</time>
      </trkpt>
      <trkpt lat="45.00273" lon="5.54822">
        <ele>1977.09</ele>
        <time>2012-08-09T11:30:40Z</time>
      </trkpt>
      <trkpt lat="45.00265" lon="5.54804">
        <ele>1974.69</ele>
        <time>2012-08-09T11:30:54Z</time>
      </trkpt>
      <trkpt lat="45.00258" lon="5.54782">
        <ele>1973.72</ele>
        <time>2012-08-09T11:31:11Z</time>
      </trkpt>
      <trkpt lat="45.00249" lon="5.54759">
        <ele>1970.36</ele>
        <time>2012-08-09T11:31:28Z</time>
      </trkpt>
      <trkpt lat="45.00248" lon="5.54757">
        <ele>1970.36</ele>
        <time>2012-08-09T11:31:30Z</time>
      </trkpt>
      <trkpt lat="45.00241" lon="5.54732">
        <ele>1970.36</ele>
        <time>2012-08-09T11:31:48Z</time>
      </trkpt>
      <trkpt lat="45.0023" lon="5.54704">
        <ele>1967.48</ele>
        <time>2012-08-09T11:32:07Z</time>
      </trkpt>
      <trkpt lat="45.00229" lon="5.547">
        <ele>1967.48</ele>
        <time>2012-08-09T11:32:10Z</time>
      </trkpt>
      <trkpt lat="45.00228" lon="5.54668">
        <ele>1965.55</ele>
        <time>2012-08-09T11:32:29Z</time>
      </trkpt>
      <trkpt lat="45.00231" lon="5.54661">
        <ele>1964.59</ele>
        <time>2012-08-09T11:32:34Z</time>
      </trkpt>
      <trkpt lat="45.00234" lon="5.54639">
        <ele>1963.63</ele>
        <time>2012-08-09T11:32:48Z</time>
      </trkpt>
      <trkpt lat="45.00236" lon="5.54619">
        <ele>1961.23</ele>
        <time>2012-08-09T11:33:02Z</time>
      </trkpt>
      <trkpt lat="45.00238" lon="5.54607">
        <ele>1959.78</ele>
        <time>2012-08-09T11:33:09Z</time>
      </trkpt>
      <trkpt lat="45.0024" lon="5.546">
        <ele>1959.3</ele>
        <time>2012-08-09T11:33:14Z</time>
      </trkpt>
      <trkpt lat="45.0024" lon="5.54593">
        <ele>1959.3</ele>
        <time>2012-08-09T11:33:19Z</time>
      </trkpt>
      <trkpt lat="45.00243" lon="5.5457">
        <ele>1957.38</ele>
        <time>2012-08-09T11:33:34Z</time>
      </trkpt>
      <trkpt lat="45.00244" lon="5.5456">
        <ele>1955.46</ele>
        <time>2012-08-09T11:33:41Z</time>
      </trkpt>
      <trkpt lat="45.00253" lon="5.54544">
        <ele>1953.06</ele>
        <time>2012-08-09T11:33:55Z</time>
      </trkpt>
      <trkpt lat="45.00264" lon="5.54525">
        <ele>1949.69</ele>
        <time>2012-08-09T11:34:11Z</time>
      </trkpt>
      <trkpt lat="45.00265" lon="5.54524">
        <ele>1949.21</ele>
        <time>2012-08-09T11:34:12Z</time>
      </trkpt>
      <trkpt lat="45.00259" lon="5.54517">
        <ele>1944.4</ele>
        <time>2012-08-09T11:34:27Z</time>
      </trkpt>
      <trkpt lat="45.00258" lon="5.54517">
        <ele>1943.92</ele>
        <time>2012-08-09T11:34:29Z</time>
      </trkpt>
      <trkpt lat="45.00245" lon="5.54501">
        <ele>1940.08</ele>
        <time>2012-08-09T11:34:47Z</time>
      </trkpt>
      <trkpt lat="45.00235" lon="5.54491">
        <ele>1938.16</ele>
        <time>2012-08-09T11:35:04Z</time>
      </trkpt>
      <trkpt lat="45.00228" lon="5.54472">
        <ele>1936.71</ele>
        <time>2012-08-09T11:35:21Z</time>
      </trkpt>
      <trkpt lat="45.00227" lon="5.5447">
        <ele>1936.23</ele>
        <time>2012-08-09T11:35:23Z</time>
      </trkpt>
      <trkpt lat="45.00217" lon="5.5446">
        <ele>1934.31</ele>
        <time>2012-08-09T11:35:38Z</time>
      </trkpt>
      <trkpt lat="45.00213" lon="5.54456">
        <ele>1932.87</ele>
        <time>2012-08-09T11:35:53Z</time>
      </trkpt>
      <trkpt lat="45.0021" lon="5.5445">
        <ele>1932.39</ele>
        <time>2012-08-09T11:35:59Z</time>
      </trkpt>
      <trkpt lat="45.00211" lon="5.54442">
        <ele>1930.46</ele>
        <time>2012-08-09T11:36:08Z</time>
      </trkpt>
      <trkpt lat="45.00224" lon="5.54443">
        <ele>1928.06</ele>
        <time>2012-08-09T11:36:22Z</time>
      </trkpt>
      <trkpt lat="45.00232" lon="5.5444">
        <ele>1925.66</ele>
        <time>2012-08-09T11:36:34Z</time>
      </trkpt>
      <trkpt lat="45.00248" lon="5.5444">
        <ele>1923.74</ele>
        <time>2012-08-09T11:36:51Z</time>
      </trkpt>
      <trkpt lat="45.00258" lon="5.54444">
        <ele>1920.85</ele>
        <time>2012-08-09T11:37:07Z</time>
      </trkpt>
      <trkpt lat="45.00271" lon="5.54444">
        <ele>1919.89</ele>
        <time>2012-08-09T11:37:21Z</time>
      </trkpt>
      <trkpt lat="45.00285" lon="5.54439">
        <ele>1917.97</ele>
        <time>2012-08-09T11:37:33Z</time>
      </trkpt>
      <trkpt lat="45.00302" lon="5.54437">
        <ele>1914.12</ele>
        <time>2012-08-09T11:37:49Z</time>
      </trkpt>
      <trkpt lat="45.00309" lon="5.54439">
        <ele>1911.72</ele>
        <time>2012-08-09T11:38:04Z</time>
      </trkpt>
      <trkpt lat="45.00313" lon="5.54437">
        <ele>1911.72</ele>
        <time>2012-08-09T11:38:08Z</time>
      </trkpt>
      <trkpt lat="45.00312" lon="5.54427">
        <ele>1908.83</ele>
        <time>2012-08-09T11:38:21Z</time>
      </trkpt>
      <trkpt lat="45.00311" lon="5.5442">
        <ele>1907.39</ele>
        <time>2012-08-09T11:38:41Z</time>
      </trkpt>
      <trkpt lat="45.00301" lon="5.54403">
        <ele>1906.43</ele>
        <time>2012-08-09T11:39:02Z</time>
      </trkpt>
      <trkpt lat="45.00291" lon="5.54387">
        <ele>1905.47</ele>
        <time>2012-08-09T11:39:20Z</time>
      </trkpt>
      <trkpt lat="45.0029" lon="5.54379">
        <ele>1904.99</ele>
        <time>2012-08-09T11:39:30Z</time>
      </trkpt>
      <trkpt lat="45.00273" lon="5.54365">
        <ele>1904.51</ele>
        <time>2012-08-09T11:39:46Z</time>
      </trkpt>
      <trkpt lat="45.00251" lon="5.54356">
        <ele>1904.03</ele>
        <time>2012-08-09T11:40:05Z</time>
      </trkpt>
      <trkpt lat="45.00243" lon="5.54349">
        <ele>1904.51</ele>
        <time>2012-08-09T11:40:15Z</time>
      </trkpt>
      <trkpt lat="45.0025" lon="5.54342">
        <ele>1901.63</ele>
        <time>2012-08-09T11:40:19Z</time>
      </trkpt>
      <trkpt lat="45.00258" lon="5.54339">
        <ele>1896.34</ele>
        <time>2012-08-09T11:40:29Z</time>
      </trkpt>
      <trkpt lat="45.00275" lon="5.54331">
        <ele>1892.97</ele>
        <time>2012-08-09T11:40:49Z</time>
      </trkpt>
      <trkpt lat="45.00294" lon="5.54323">
        <ele>1888.65</ele>
        <time>2012-08-09T11:41:08Z</time>
      </trkpt>
      <trkpt lat="45.00304" lon="5.54314">
        <ele>1885.76</ele>
        <time>2012-08-09T11:41:24Z</time>
      </trkpt>
      <trkpt lat="45.00308" lon="5.54304">
        <ele>1883.36</ele>
        <time>2012-08-09T11:41:34Z</time>
      </trkpt>
      <trkpt lat="45.00298" lon="5.54288">
        <ele>1877.59</ele>
        <time>2012-08-09T11:41:53Z</time>
      </trkpt>
      <trkpt lat="45.00299" lon="5.54289">
        <ele>1876.15</ele>
        <time>2012-08-09T11:42:22Z</time>
      </trkpt>
      <trkpt lat="45.00296" lon="5.54284">
        <ele>1876.63</ele>
        <time>2012-08-09T11:42:38Z</time>
      </trkpt>
      <trkpt lat="45.0029" lon="5.54279">
        <ele>1875.67</ele>
        <time>2012-08-09T11:42:43Z</time>
      </trkpt>
      <trkpt lat="45.00281" lon="5.54271">
        <ele>1873.75</ele>
        <time>2012-08-09T11:42:51Z</time>
      </trkpt>
      <trkpt lat="45.00286" lon="5.54253">
        <ele>1871.82</ele>
        <time>2012-08-09T11:43:03Z</time>
      </trkpt>
      <trkpt lat="45.0029" lon="5.54245">
        <ele>1867.98</ele>
        <time>2012-08-09T11:43:21Z</time>
      </trkpt>
      <trkpt lat="45.00289" lon="5.54245">
        <ele>1867.98</ele>
        <time>2012-08-09T11:43:43Z</time>
      </trkpt>
      <trkpt lat="45.00289" lon="5.54243">
        <ele>1867.98</ele>
        <time>2012-08-09T11:43:44Z</time>
      </trkpt>
      <trkpt lat="45.00291" lon="5.54229">
        <ele>1866.06</ele>
        <time>2012-08-09T11:43:56Z</time>
      </trkpt>
      <trkpt lat="45.00289" lon="5.54217">
        <ele>1863.17</ele>
        <time>2012-08-09T11:44:09Z</time>
      </trkpt>
      <trkpt lat="45.0029" lon="5.54208">
        <ele>1861.73</ele>
        <time>2012-08-09T11:44:17Z</time>
      </trkpt>
      <trkpt lat="45.00292" lon="5.54192">
        <ele>1855.96</ele>
        <time>2012-08-09T11:44:34Z</time>
      </trkpt>
      <trkpt lat="45.00291" lon="5.54187">
        <ele>1852.6</ele>
        <time>2012-08-09T11:44:52Z</time>
      </trkpt>
      <trkpt lat="45.00296" lon="5.5419">
        <ele>1853.56</ele>
        <time>2012-08-09T11:45:14Z</time>
      </trkpt>
      <trkpt lat="45.00298" lon="5.54182">
        <ele>1853.08</ele>
        <time>2012-08-09T11:45:20Z</time>
      </trkpt>
      <trkpt lat="45.00303" lon="5.54174">
        <ele>1851.64</ele>
        <time>2012-08-09T11:45:33Z</time>
      </trkpt>
      <trkpt lat="45.00303" lon="5.54173">
        <ele>1851.64</ele>
        <time>2012-08-09T11:45:35Z</time>
      </trkpt>
      <trkpt lat="45.00304" lon="5.54175">
        <ele>1851.64</ele>
        <time>2012-08-09T11:45:53Z</time>
      </trkpt>
      <trkpt lat="45.00302" lon="5.54169">
        <ele>1850.68</ele>
        <time>2012-08-09T11:46:29Z</time>
      </trkpt>
      <trkpt lat="45.00306" lon="5.54174">
        <ele>1852.12</ele>
        <time>2012-08-09T11:46:41Z</time>
      </trkpt>
      <trkpt lat="45.0031" lon="5.54156">
        <ele>1849.71</ele>
        <time>2012-08-09T11:46:55Z</time>
      </trkpt>
      <trkpt lat="45.00318" lon="5.54143">
        <ele>1845.87</ele>
        <time>2012-08-09T11:47:05Z</time>
      </trkpt>
      <trkpt lat="45.00328" lon="5.54134">
        <ele>1842.98</ele>
        <time>2012-08-09T11:47:21Z</time>
      </trkpt>
      <trkpt lat="45.0034" lon="5.54124">
        <ele>1838.18</ele>
        <time>2012-08-09T11:47:37Z</time>
      </trkpt>
      <trkpt lat="45.00351" lon="5.54119">
        <ele>1836.74</ele>
        <time>2012-08-09T11:47:55Z</time>
      </trkpt>
      <trkpt lat="45.00365" lon="5.54115">
        <ele>1833.37</ele>
        <time>2012-08-09T11:48:12Z</time>
      </trkpt>
      <trkpt lat="45.00371" lon="5.54113">
        <ele>1833.37</ele>
        <time>2012-08-09T11:48:42Z</time>
      </trkpt>
      <trkpt lat="45.00387" lon="5.54114">
        <ele>1830.01</ele>
        <time>2012-08-09T11:48:59Z</time>
      </trkpt>
      <trkpt lat="45.00404" lon="5.54114">
        <ele>1826.16</ele>
        <time>2012-08-09T11:49:12Z</time>
      </trkpt>
      <trkpt lat="45.00416" lon="5.54132">
        <ele>1821.35</ele>
        <time>2012-08-09T11:49:25Z</time>
      </trkpt>
      <trkpt lat="45.00423" lon="5.54156">
        <ele>1819.91</ele>
        <time>2012-08-09T11:49:39Z</time>
      </trkpt>
      <trkpt lat="45.00424" lon="5.54159">
        <ele>1819.43</ele>
        <time>2012-08-09T11:49:41Z</time>
      </trkpt>
      <trkpt lat="45.00425" lon="5.5416">
        <ele>1819.43</ele>
        <time>2012-08-09T11:49:42Z</time>
      </trkpt>
      <trkpt lat="45.00425" lon="5.54161">
        <ele>1818.95</ele>
        <time>2012-08-09T11:49:43Z</time>
      </trkpt>
      <trkpt lat="45.00426" lon="5.54163">
        <ele>1818.95</ele>
        <time>2012-08-09T11:49:44Z</time>
      </trkpt>
      <trkpt lat="45.00427" lon="5.54164">
        <ele>1818.47</ele>
        <time>2012-08-09T11:49:45Z</time>
      </trkpt>
      <trkpt lat="45.00429" lon="5.54165">
        <ele>1818.47</ele>
        <time>2012-08-09T11:49:46Z</time>
      </trkpt>
      <trkpt lat="45.0043" lon="5.54166">
        <ele>1817.99</ele>
        <time>2012-08-09T11:49:47Z</time>
      </trkpt>
      <trkpt lat="45.00432" lon="5.54167">
        <ele>1817.51</ele>
        <time>2012-08-09T11:49:48Z</time>
      </trkpt>
      <trkpt lat="45.00433" lon="5.54167">
        <ele>1817.03</ele>
        <time>2012-08-09T11:49:49Z</time>
      </trkpt>
      <trkpt lat="45.00435" lon="5.54167">
        <ele>1817.03</ele>
        <time>2012-08-09T11:49:50Z</time>
      </trkpt>
      <trkpt lat="45.00437" lon="5.54166">
        <ele>1816.55</ele>
        <time>2012-08-09T11:49:51Z</time>
      </trkpt>
      <trkpt lat="45.00438" lon="5.54166">
        <ele>1816.07</ele>
        <time>2012-08-09T11:49:52Z</time>
      </trkpt>
      <trkpt lat="45.00439" lon="5.54166">
        <ele>1815.59</ele>
        <time>2012-08-09T11:49:53Z</time>
      </trkpt>
      <trkpt lat="45.00448" lon="5.54153">
        <ele>1811.74</ele>
        <time>2012-08-09T11:50:05Z</time>
      </trkpt>
      <trkpt lat="45.00454" lon="5.54145">
        <ele>1810.78</ele>
        <time>2012-08-09T11:50:19Z</time>
      </trkpt>
      <trkpt lat="45.00455" lon="5.54143">
        <ele>1812.22</ele>
        <time>2012-08-09T11:50:36Z</time>
      </trkpt>
      <trkpt lat="45.0046" lon="5.54133">
        <ele>1811.74</ele>
        <time>2012-08-09T11:50:43Z</time>
      </trkpt>
      <trkpt lat="45.00472" lon="5.5413">
        <ele>1807.42</ele>
        <time>2012-08-09T11:50:55Z</time>
      </trkpt>
      <trkpt lat="45.00473" lon="5.54129">
        <ele>1807.42</ele>
        <time>2012-08-09T11:50:56Z</time>
      </trkpt>
      <trkpt lat="45.00473" lon="5.54127">
        <ele>1806.94</ele>
        <time>2012-08-09T11:50:57Z</time>
      </trkpt>
      <trkpt lat="45.00474" lon="5.54116">
        <ele>1805.49</ele>
        <time>2012-08-09T11:51:04Z</time>
      </trkpt>
      <trkpt lat="45.00473" lon="5.54112">
        <ele>1803.57</ele>
        <time>2012-08-09T11:51:18Z</time>
      </trkpt>
      <trkpt lat="45.00476" lon="5.54103">
        <ele>1803.09</ele>
        <time>2012-08-09T11:51:30Z</time>
      </trkpt>
      <trkpt lat="45.0048" lon="5.54099">
        <ele>1800.21</ele>
        <time>2012-08-09T11:51:42Z</time>
      </trkpt>
      <trkpt lat="45.00478" lon="5.54081">
        <ele>1797.32</ele>
        <time>2012-08-09T11:51:56Z</time>
      </trkpt>
      <trkpt lat="45.00477" lon="5.54072">
        <ele>1795.88</ele>
        <time>2012-08-09T11:52:05Z</time>
      </trkpt>
      <trkpt lat="45.00477" lon="5.54071">
        <ele>1795.88</ele>
        <time>2012-08-09T11:52:06Z</time>
      </trkpt>
      <trkpt lat="45.00476" lon="5.54069">
        <ele>1795.88</ele>
        <time>2012-08-09T11:52:07Z</time>
      </trkpt>
      <trkpt lat="45.00472" lon="5.54067">
        <ele>1795.4</ele>
        <time>2012-08-09T11:52:12Z</time>
      </trkpt>
      <trkpt lat="45.00474" lon="5.54067">
        <ele>1795.4</ele>
        <time>2012-08-09T11:52:19Z</time>
      </trkpt>
      <trkpt lat="45.00475" lon="5.54068">
        <ele>1795.4</ele>
        <time>2012-08-09T11:52:20Z</time>
      </trkpt>
      <trkpt lat="45.00477" lon="5.54069">
        <ele>1794.92</ele>
        <time>2012-08-09T11:52:21Z</time>
      </trkpt>
      <trkpt lat="45.00478" lon="5.5407">
        <ele>1794.92</ele>
        <time>2012-08-09T11:52:22Z</time>
      </trkpt>
      <trkpt lat="45.0048" lon="5.54071">
        <ele>1794.44</ele>
        <time>2012-08-09T11:52:23Z</time>
      </trkpt>
      <trkpt lat="45.00481" lon="5.5407">
        <ele>1793.96</ele>
        <time>2012-08-09T11:52:24Z</time>
      </trkpt>
      <trkpt lat="45.00482" lon="5.54069">
        <ele>1793.96</ele>
        <time>2012-08-09T11:52:25Z</time>
      </trkpt>
      <trkpt lat="45.00482" lon="5.54057">
        <ele>1792.03</ele>
        <time>2012-08-09T11:52:37Z</time>
      </trkpt>
      <trkpt lat="45.0048" lon="5.54044">
        <ele>1791.07</ele>
        <time>2012-08-09T11:52:50Z</time>
      </trkpt>
      <trkpt lat="45.00474" lon="5.54021">
        <ele>1789.15</ele>
        <time>2012-08-09T11:53:07Z</time>
      </trkpt>
      <trkpt lat="45.0047" lon="5.54013">
        <ele>1787.71</ele>
        <time>2012-08-09T11:53:14Z</time>
      </trkpt>
      <trkpt lat="45.00469" lon="5.54011">
        <ele>1787.23</ele>
        <time>2012-08-09T11:53:15Z</time>
      </trkpt>
      <trkpt lat="45.00459" lon="5.53996">
        <ele>1784.82</ele>
        <time>2012-08-09T11:53:28Z</time>
      </trkpt>
      <trkpt lat="45.00458" lon="5.53995">
        <ele>1784.34</ele>
        <time>2012-08-09T11:53:29Z</time>
      </trkpt>
      <trkpt lat="45.00456" lon="5.53991">
        <ele>1783.86</ele>
        <time>2012-08-09T11:53:32Z</time>
      </trkpt>
      <trkpt lat="45.00454" lon="5.53981">
        <ele>1783.38</ele>
        <time>2012-08-09T11:53:38Z</time>
      </trkpt>
      <trkpt lat="45.00448" lon="5.53968">
        <ele>1781.94</ele>
        <time>2012-08-09T11:53:50Z</time>
      </trkpt>
      <trkpt lat="45.00436" lon="5.53948">
        <ele>1780.02</ele>
        <time>2012-08-09T11:54:05Z</time>
      </trkpt>
      <trkpt lat="45.00435" lon="5.53939">
        <ele>1778.58</ele>
        <time>2012-08-09T11:54:11Z</time>
      </trkpt>
      <trkpt lat="45.00435" lon="5.53937">
        <ele>1778.1</ele>
        <time>2012-08-09T11:54:12Z</time>
      </trkpt>
      <trkpt lat="45.00434" lon="5.53933">
        <ele>1777.61</ele>
        <time>2012-08-09T11:54:14Z</time>
      </trkpt>
      <trkpt lat="45.00425" lon="5.53911">
        <ele>1773.29</ele>
        <time>2012-08-09T11:54:29Z</time>
      </trkpt>
      <trkpt lat="45.00419" lon="5.53902">
        <ele>1771.37</ele>
        <time>2012-08-09T11:54:36Z</time>
      </trkpt>
      <trkpt lat="45.00416" lon="5.53896">
        <ele>1770.41</ele>
        <time>2012-08-09T11:54:40Z</time>
      </trkpt>
      <trkpt lat="45.00408" lon="5.53875">
        <ele>1767.04</ele>
        <time>2012-08-09T11:54:55Z</time>
      </trkpt>
      <trkpt lat="45.004" lon="5.53858">
        <ele>1763.2</ele>
        <time>2012-08-09T11:55:08Z</time>
      </trkpt>
      <trkpt lat="45.00392" lon="5.53842">
        <ele>1760.31</ele>
        <time>2012-08-09T11:55:23Z</time>
      </trkpt>
      <trkpt lat="45.00382" lon="5.53822">
        <ele>1759.35</ele>
        <time>2012-08-09T11:55:40Z</time>
      </trkpt>
      <trkpt lat="45.00377" lon="5.53814">
        <ele>1757.91</ele>
        <time>2012-08-09T11:55:47Z</time>
      </trkpt>
      <trkpt lat="45.00369" lon="5.53799">
        <ele>1755.02</ele>
        <time>2012-08-09T11:56:03Z</time>
      </trkpt>
      <trkpt lat="45.00362" lon="5.53786">
        <ele>1751.18</ele>
        <time>2012-08-09T11:56:18Z</time>
      </trkpt>
      <trkpt lat="45.00356" lon="5.53771">
        <ele>1748.29</ele>
        <time>2012-08-09T11:56:32Z</time>
      </trkpt>
      <trkpt lat="45.00354" lon="5.53768">
        <ele>1746.37</ele>
        <time>2012-08-09T11:56:37Z</time>
      </trkpt>
      <trkpt lat="45.00345" lon="5.53758">
        <ele>1742.53</ele>
        <time>2012-08-09T11:56:50Z</time>
      </trkpt>
      <trkpt lat="45.00341" lon="5.53752">
        <ele>1741.08</ele>
        <time>2012-08-09T11:56:59Z</time>
      </trkpt>
      <trkpt lat="45.00338" lon="5.53739">
        <ele>1738.2</ele>
        <time>2012-08-09T11:57:14Z</time>
      </trkpt>
      <trkpt lat="45.00333" lon="5.53731">
        <ele>1737.72</ele>
        <time>2012-08-09T11:57:26Z</time>
      </trkpt>
      <trkpt lat="45.00326" lon="5.53718">
        <ele>1737.72</ele>
        <time>2012-08-09T11:57:42Z</time>
      </trkpt>
      <trkpt lat="45.00317" lon="5.53707">
        <ele>1731.47</ele>
        <time>2012-08-09T11:57:57Z</time>
      </trkpt>
      <trkpt lat="45.00311" lon="5.53699">
        <ele>1730.03</ele>
        <time>2012-08-09T11:58:12Z</time>
      </trkpt>
      <trkpt lat="45.00307" lon="5.53691">
        <ele>1729.07</ele>
        <time>2012-08-09T11:58:20Z</time>
      </trkpt>
      <trkpt lat="45.00306" lon="5.53687">
        <ele>1727.63</ele>
        <time>2012-08-09T11:58:24Z</time>
      </trkpt>
      <trkpt lat="45.00306" lon="5.53686">
        <ele>1727.15</ele>
        <time>2012-08-09T11:58:25Z</time>
      </trkpt>
      <trkpt lat="45.00303" lon="5.53678">
        <ele>1724.26</ele>
        <time>2012-08-09T11:58:38Z</time>
      </trkpt>
      <trkpt lat="45.00303" lon="5.53677">
        <ele>1723.3</ele>
        <time>2012-08-09T11:58:39Z</time>
      </trkpt>
      <trkpt lat="45.003" lon="5.53674">
        <ele>1720.42</ele>
        <time>2012-08-09T11:58:53Z</time>
      </trkpt>
      <trkpt lat="45.003" lon="5.53672">
        <ele>1715.61</ele>
        <time>2012-08-09T11:59:09Z</time>
      </trkpt>
      <trkpt lat="45.00295" lon="5.53665">
        <ele>1713.21</ele>
        <time>2012-08-09T11:59:25Z</time>
      </trkpt>
      <trkpt lat="45.00287" lon="5.53654">
        <ele>1713.21</ele>
        <time>2012-08-09T11:59:40Z</time>
      </trkpt>
      <trkpt lat="45.00285" lon="5.53646">
        <ele>1712.25</ele>
        <time>2012-08-09T11:59:47Z</time>
      </trkpt>
      <trkpt lat="45.0028" lon="5.53639">
        <ele>1711.28</ele>
        <time>2012-08-09T11:59:56Z</time>
      </trkpt>
      <trkpt lat="45.00279" lon="5.53639">
        <ele>1711.28</ele>
        <time>2012-08-09T11:59:57Z</time>
      </trkpt>
      <trkpt lat="45.00274" lon="5.53626">
        <ele>1709.84</ele>
        <time>2012-08-09T12:00:11Z</time>
      </trkpt>
      <trkpt lat="45.00275" lon="5.53611">
        <ele>1705.52</ele>
        <time>2012-08-09T12:00:26Z</time>
      </trkpt>
      <trkpt lat="45.00275" lon="5.53601">
        <ele>1702.63</ele>
        <time>2012-08-09T12:00:45Z</time>
      </trkpt>
      <trkpt lat="45.0027" lon="5.53587">
        <ele>1695.9</ele>
        <time>2012-08-09T12:01:01Z</time>
      </trkpt>
      <trkpt lat="45.00267" lon="5.53574">
        <ele>1687.25</ele>
        <time>2012-08-09T12:01:20Z</time>
      </trkpt>
      <trkpt lat="45.00267" lon="5.53567">
        <ele>1679.08</ele>
        <time>2012-08-09T12:01:39Z</time>
      </trkpt>
      <trkpt lat="45.00266" lon="5.53564">
        <ele>1676.2</ele>
        <time>2012-08-09T12:01:55Z</time>
      </trkpt>
      <trkpt lat="45.00265" lon="5.53551">
        <ele>1673.79</ele>
        <time>2012-08-09T12:02:11Z</time>
      </trkpt>
      <trkpt lat="45.00266" lon="5.53528">
        <ele>1670.91</ele>
        <time>2012-08-09T12:02:27Z</time>
      </trkpt>
      <trkpt lat="45.00265" lon="5.53515">
        <ele>1664.66</ele>
        <time>2012-08-09T12:02:44Z</time>
      </trkpt>
      <trkpt lat="45.00266" lon="5.53506">
        <ele>1659.37</ele>
        <time>2012-08-09T12:03:01Z</time>
      </trkpt>
      <trkpt lat="45.00262" lon="5.53494">
        <ele>1656.49</ele>
        <time>2012-08-09T12:03:21Z</time>
      </trkpt>
      <trkpt lat="45.0026" lon="5.53478">
        <ele>1652.64</ele>
        <time>2012-08-09T12:03:36Z</time>
      </trkpt>
      <trkpt lat="45.00257" lon="5.53463">
        <ele>1650.72</ele>
        <time>2012-08-09T12:03:51Z</time>
      </trkpt>
      <trkpt lat="45.0026" lon="5.53459">
        <ele>1651.68</ele>
        <time>2012-08-09T12:04:05Z</time>
      </trkpt>
      <trkpt lat="45.00269" lon="5.53452">
        <ele>1647.36</ele>
        <time>2012-08-09T12:04:18Z</time>
      </trkpt>
      <trkpt lat="45.00273" lon="5.53447">
        <ele>1644.95</ele>
        <time>2012-08-09T12:04:29Z</time>
      </trkpt>
      <trkpt lat="45.00274" lon="5.5344">
        <ele>1644.47</ele>
        <time>2012-08-09T12:04:46Z</time>
      </trkpt>
      <trkpt lat="45.00273" lon="5.53428">
        <ele>1642.55</ele>
        <time>2012-08-09T12:05:05Z</time>
      </trkpt>
      <trkpt lat="45.00281" lon="5.53418">
        <ele>1638.7</ele>
        <time>2012-08-09T12:05:22Z</time>
      </trkpt>
      <trkpt lat="45.00289" lon="5.5341">
        <ele>1634.38</ele>
        <time>2012-08-09T12:05:41Z</time>
      </trkpt>
      <trkpt lat="45.00294" lon="5.53405">
        <ele>1631.98</ele>
        <time>2012-08-09T12:05:57Z</time>
      </trkpt>
      <trkpt lat="45.00296" lon="5.53397">
        <ele>1629.09</ele>
        <time>2012-08-09T12:06:08Z</time>
      </trkpt>
      <trkpt lat="45.00303" lon="5.53382">
        <ele>1626.21</ele>
        <time>2012-08-09T12:06:24Z</time>
      </trkpt>
      <trkpt lat="45.00311" lon="5.53375">
        <ele>1626.21</ele>
        <time>2012-08-09T12:06:40Z</time>
      </trkpt>
      <trkpt lat="45.00318" lon="5.53376">
        <ele>1623.32</ele>
        <time>2012-08-09T12:06:55Z</time>
      </trkpt>
      <trkpt lat="45.00317" lon="5.53375">
        <ele>1619</ele>
        <time>2012-08-09T12:07:10Z</time>
      </trkpt>
      <trkpt lat="45.00328" lon="5.5338">
        <ele>1614.19</ele>
        <time>2012-08-09T12:07:30Z</time>
      </trkpt>
      <trkpt lat="45.00331" lon="5.53377">
        <ele>1608.42</ele>
        <time>2012-08-09T12:07:49Z</time>
      </trkpt>
      <trkpt lat="45.00341" lon="5.5338">
        <ele>1605.54</ele>
        <time>2012-08-09T12:08:06Z</time>
      </trkpt>
      <trkpt lat="45.00348" lon="5.53381">
        <ele>1601.69</ele>
        <time>2012-08-09T12:08:23Z</time>
      </trkpt>
      <trkpt lat="45.0035" lon="5.53382">
        <ele>1601.21</ele>
        <time>2012-08-09T12:08:25Z</time>
      </trkpt>
      <trkpt lat="45.00355" lon="5.53391">
        <ele>1598.33</ele>
        <time>2012-08-09T12:08:39Z</time>
      </trkpt>
      <trkpt lat="45.00361" lon="5.53387">
        <ele>1594.96</ele>
        <time>2012-08-09T12:08:53Z</time>
      </trkpt>
      <trkpt lat="45.00357" lon="5.53384">
        <ele>1592.56</ele>
        <time>2012-08-09T12:09:09Z</time>
      </trkpt>
      <trkpt lat="45.00356" lon="5.53383">
        <ele>1592.08</ele>
        <time>2012-08-09T12:09:10Z</time>
      </trkpt>
      <trkpt lat="45.00361" lon="5.53373">
        <ele>1583.91</ele>
        <time>2012-08-09T12:09:27Z</time>
      </trkpt>
      <trkpt lat="45.00372" lon="5.53373">
        <ele>1580.06</ele>
        <time>2012-08-09T12:09:44Z</time>
      </trkpt>
      <trkpt lat="45.00381" lon="5.53374">
        <ele>1578.14</ele>
        <time>2012-08-09T12:10:01Z</time>
      </trkpt>
      <trkpt lat="45.00388" lon="5.53378">
        <ele>1576.7</ele>
        <time>2012-08-09T12:10:17Z</time>
      </trkpt>
      <trkpt lat="45.00398" lon="5.53379">
        <ele>1576.22</ele>
        <time>2012-08-09T12:10:31Z</time>
      </trkpt>
      <trkpt lat="45.00406" lon="5.5337">
        <ele>1571.41</ele>
        <time>2012-08-09T12:10:50Z</time>
      </trkpt>
      <trkpt lat="45.00407" lon="5.53359">
        <ele>1563.24</ele>
        <time>2012-08-09T12:11:08Z</time>
      </trkpt>
      <trkpt lat="45.00413" lon="5.53357">
        <ele>1556.99</ele>
        <time>2012-08-09T12:11:24Z</time>
      </trkpt>
      <trkpt lat="45.00423" lon="5.53357">
        <ele>1554.11</ele>
        <time>2012-08-09T12:11:43Z</time>
      </trkpt>
      <trkpt lat="45.00433" lon="5.53364">
        <ele>1551.22</ele>
        <time>2012-08-09T12:11:59Z</time>
      </trkpt>
      <trkpt lat="45.00443" lon="5.53363">
        <ele>1547.38</ele>
        <time>2012-08-09T12:12:15Z</time>
      </trkpt>
      <trkpt lat="45.00449" lon="5.5336">
        <ele>1546.42</ele>
        <time>2012-08-09T12:12:33Z</time>
      </trkpt>
      <trkpt lat="45.00447" lon="5.53361">
        <ele>1546.42</ele>
        <time>2012-08-09T12:12:50Z</time>
      </trkpt>
      <trkpt lat="45.00444" lon="5.53359">
        <ele>1547.86</ele>
        <time>2012-08-09T12:13:14Z</time>
      </trkpt>
      <trkpt lat="45.00451" lon="5.53361">
        <ele>1551.71</ele>
        <time>2012-08-09T12:13:30Z</time>
      </trkpt>
      <trkpt lat="45.00456" lon="5.53362">
        <ele>1550.74</ele>
        <time>2012-08-09T12:13:46Z</time>
      </trkpt>
      <trkpt lat="45.00473" lon="5.53365">
        <ele>1547.86</ele>
        <time>2012-08-09T12:14:05Z</time>
      </trkpt>
      <trkpt lat="45.00475" lon="5.53366">
        <ele>1547.38</ele>
        <time>2012-08-09T12:14:07Z</time>
      </trkpt>
      <trkpt lat="45.00476" lon="5.53367">
        <ele>1546.9</ele>
        <time>2012-08-09T12:14:08Z</time>
      </trkpt>
      <trkpt lat="45.00488" lon="5.53369">
        <ele>1543.05</ele>
        <time>2012-08-09T12:14:23Z</time>
      </trkpt>
      <trkpt lat="45.00503" lon="5.53369">
        <ele>1539.69</ele>
        <time>2012-08-09T12:14:39Z</time>
      </trkpt>
      <trkpt lat="45.00516" lon="5.53366">
        <ele>1535.84</ele>
        <time>2012-08-09T12:14:56Z</time>
      </trkpt>
      <trkpt lat="45.00525" lon="5.53368">
        <ele>1532.96</ele>
        <time>2012-08-09T12:15:10Z</time>
      </trkpt>
      <trkpt lat="45.00537" lon="5.53368">
        <ele>1527.67</ele>
        <time>2012-08-09T12:15:28Z</time>
      </trkpt>
      <trkpt lat="45.00547" lon="5.5336">
        <ele>1522.39</ele>
        <time>2012-08-09T12:15:44Z</time>
      </trkpt>
      <trkpt lat="45.00564" lon="5.53352">
        <ele>1519.02</ele>
        <time>2012-08-09T12:16:01Z</time>
      </trkpt>
      <trkpt lat="45.00577" lon="5.53346">
        <ele>1515.66</ele>
        <time>2012-08-09T12:16:17Z</time>
      </trkpt>
      <trkpt lat="45.0059" lon="5.53347">
        <ele>1511.33</ele>
        <time>2012-08-09T12:16:32Z</time>
      </trkpt>
      <trkpt lat="45.00605" lon="5.53342">
        <ele>1508.93</ele>
        <time>2012-08-09T12:16:48Z</time>
      </trkpt>
      <trkpt lat="45.00616" lon="5.53346">
        <ele>1506.52</ele>
        <time>2012-08-09T12:17:03Z</time>
      </trkpt>
      <trkpt lat="45.0062" lon="5.53346">
        <ele>1490.18</ele>
        <time>2012-08-09T12:20:09Z</time>
      </trkpt>
      <trkpt lat="45.00724" lon="5.53331">
        <ele>1486.82</ele>
        <time>2012-08-09T12:20:27Z</time>
      </trkpt>
      <trkpt lat="45.00738" lon="5.53329">
        <ele>1484.41</ele>
        <time>2012-08-09T12:20:42Z</time>
      </trkpt>
      <trkpt lat="45.00754" lon="5.53329">
        <ele>1485.37</ele>
        <time>2012-08-09T12:20:58Z</time>
      </trkpt>
      <trkpt lat="45.00765" lon="5.53322">
        <ele>1482.01</ele>
        <time>2012-08-09T12:21:18Z</time>
      </trkpt>
      <trkpt lat="45.00772" lon="5.53322">
        <ele>1480.09</ele>
        <time>2012-08-09T12:21:36Z</time>
      </trkpt>
      <trkpt lat="45.00786" lon="5.53313">
        <ele>1479.13</ele>
        <time>2012-08-09T12:21:56Z</time>
      </trkpt>
      <trkpt lat="45.0081" lon="5.53311">
        <ele>1475.28</ele>
        <time>2012-08-09T12:22:18Z</time>
      </trkpt>
      <trkpt lat="45.00828" lon="5.53319">
        <ele>1474.32</ele>
        <time>2012-08-09T12:22:43Z</time>
      </trkpt>
      <trkpt lat="45.00834" lon="5.53319">
        <ele>1477.2</ele>
        <time>2012-08-09T12:23:09Z</time>
      </trkpt>
      <trkpt lat="45.00849" lon="5.53319">
        <ele>1472.88</ele>
        <time>2012-08-09T12:23:32Z</time>
      </trkpt>
      <trkpt lat="45.00858" lon="5.53327">
        <ele>1467.11</ele>
        <time>2012-08-09T12:23:55Z</time>
      </trkpt>
      <trkpt lat="45.00868" lon="5.53336">
        <ele>1461.34</ele>
        <time>2012-08-09T12:24:13Z</time>
      </trkpt>
      <trkpt lat="45.00875" lon="5.53335">
        <ele>1455.09</ele>
        <time>2012-08-09T12:24:32Z</time>
      </trkpt>
      <trkpt lat="45.00877" lon="5.53345">
        <ele>1449.32</ele>
        <time>2012-08-09T12:24:50Z</time>
      </trkpt>
      <trkpt lat="45.00896" lon="5.53354">
        <ele>1443.56</ele>
        <time>2012-08-09T12:25:07Z</time>
      </trkpt>
      <trkpt lat="45.00907" lon="5.53358">
        <ele>1439.23</ele>
        <time>2012-08-09T12:25:21Z</time>
      </trkpt>
      <trkpt lat="45.00916" lon="5.53358">
        <ele>1439.71</ele>
        <time>2012-08-09T12:25:35Z</time>
      </trkpt>
      <trkpt lat="45.00932" lon="5.53355">
        <ele>1437.31</ele>
        <time>2012-08-09T12:25:51Z</time>
      </trkpt>
      <trkpt lat="45.00934" lon="5.53354">
        <ele>1436.35</ele>
        <time>2012-08-09T12:25:53Z</time>
      </trkpt>
      <trkpt lat="45.00946" lon="5.53349">
        <ele>1431.54</ele>
        <time>2012-08-09T12:26:07Z</time>
      </trkpt>
      <trkpt lat="45.00954" lon="5.53345">
        <ele>1427.7</ele>
        <time>2012-08-09T12:26:21Z</time>
      </trkpt>
      <trkpt lat="45.00965" lon="5.53345">
        <ele>1420.97</ele>
        <time>2012-08-09T12:26:40Z</time>
      </trkpt>
      <trkpt lat="45.00979" lon="5.53339">
        <ele>1416.16</ele>
        <time>2012-08-09T12:26:58Z</time>
      </trkpt>
      <trkpt lat="45.00987" lon="5.53348">
        <ele>1415.2</ele>
        <time>2012-08-09T12:27:11Z</time>
      </trkpt>
      <trkpt lat="45.01005" lon="5.53351">
        <ele>1418.56</ele>
        <time>2012-08-09T12:27:26Z</time>
      </trkpt>
      <trkpt lat="45.01029" lon="5.53346">
        <ele>1421.45</ele>
        <time>2012-08-09T12:27:45Z</time>
      </trkpt>
      <trkpt lat="45.0104" lon="5.53337">
        <ele>1420</ele>
        <time>2012-08-09T12:28:03Z</time>
      </trkpt>
      <trkpt lat="45.01045" lon="5.5333">
        <ele>1419.04</ele>
        <time>2012-08-09T12:28:12Z</time>
      </trkpt>
      <trkpt lat="45.01055" lon="5.53315">
        <ele>1418.56</ele>
        <time>2012-08-09T12:28:31Z</time>
      </trkpt>
      <trkpt lat="45.01068" lon="5.5331">
        <ele>1416.64</ele>
        <time>2012-08-09T12:28:46Z</time>
      </trkpt>
      <trkpt lat="45.01079" lon="5.53299">
        <ele>1414.24</ele>
        <time>2012-08-09T12:29:06Z</time>
      </trkpt>
      <trkpt lat="45.01089" lon="5.5328">
        <ele>1413.76</ele>
        <time>2012-08-09T12:29:25Z</time>
      </trkpt>
      <trkpt lat="45.01101" lon="5.5327">
        <ele>1410.87</ele>
        <time>2012-08-09T12:29:44Z</time>
      </trkpt>
      <trkpt lat="45.0112" lon="5.53268">
        <ele>1403.18</ele>
        <time>2012-08-09T12:30:03Z</time>
      </trkpt>
      <trkpt lat="45.01134" lon="5.5326">
        <ele>1396.93</ele>
        <time>2012-08-09T12:30:24Z</time>
      </trkpt>
      <trkpt lat="45.01157" lon="5.5326">
        <ele>1393.57</ele>
        <time>2012-08-09T12:30:43Z</time>
      </trkpt>
      <trkpt lat="45.01167" lon="5.53257">
        <ele>1390.2</ele>
        <time>2012-08-09T12:31:01Z</time>
      </trkpt>
      <trkpt lat="45.01186" lon="5.53254">
        <ele>1387.8</ele>
        <time>2012-08-09T12:31:21Z</time>
      </trkpt>
      <trkpt lat="45.01196" lon="5.53247">
        <ele>1382.51</ele>
        <time>2012-08-09T12:31:40Z</time>
      </trkpt>
      <trkpt lat="45.01211" lon="5.5324">
        <ele>1378.67</ele>
        <time>2012-08-09T12:31:59Z</time>
      </trkpt>
      <trkpt lat="45.01224" lon="5.53228">
        <ele>1373.38</ele>
        <time>2012-08-09T12:32:16Z</time>
      </trkpt>
      <trkpt lat="45.01239" lon="5.53211">
        <ele>1369.54</ele>
        <time>2012-08-09T12:32:31Z</time>
      </trkpt>
      <trkpt lat="45.01252" lon="5.53201">
        <ele>1367.13</ele>
        <time>2012-08-09T12:32:47Z</time>
      </trkpt>
      <trkpt lat="45.01273" lon="5.53199">
        <ele>1361.36</ele>
        <time>2012-08-09T12:33:02Z</time>
      </trkpt>
      <trkpt lat="45.01292" lon="5.53198">
        <ele>1355.12</ele>
        <time>2012-08-09T12:33:21Z</time>
      </trkpt>
      <trkpt lat="45.01305" lon="5.53193">
        <ele>1351.27</ele>
        <time>2012-08-09T12:33:35Z</time>
      </trkpt>
      <trkpt lat="45.01319" lon="5.53193">
        <ele>1350.79</ele>
        <time>2012-08-09T12:33:46Z</time>
      </trkpt>
      <trkpt lat="45.0134" lon="5.53191">
        <ele>1349.83</ele>
        <time>2012-08-09T12:34:02Z</time>
      </trkpt>
      <trkpt lat="45.01355" lon="5.53184">
        <ele>1350.31</ele>
        <time>2012-08-09T12:34:15Z</time>
      </trkpt>
      <trkpt lat="45.01378" lon="5.53178">
        <ele>1347.43</ele>
        <time>2012-08-09T12:34:33Z</time>
      </trkpt>
      <trkpt lat="45.01392" lon="5.53175">
        <ele>1345.5</ele>
        <time>2012-08-09T12:34:48Z</time>
      </trkpt>
      <trkpt lat="45.01407" lon="5.53174">
        <ele>1343.1</ele>
        <time>2012-08-09T12:34:59Z</time>
      </trkpt>
      <trkpt lat="45.01423" lon="5.53167">
        <ele>1343.1</ele>
        <time>2012-08-09T12:35:14Z</time>
      </trkpt>
      <trkpt lat="45.01445" lon="5.53161">
        <ele>1340.22</ele>
        <time>2012-08-09T12:35:30Z</time>
      </trkpt>
      <trkpt lat="45.01457" lon="5.5316">
        <ele>1338.29</ele>
        <time>2012-08-09T12:35:41Z</time>
      </trkpt>
      <trkpt lat="45.0147" lon="5.53158">
        <ele>1337.81</ele>
        <time>2012-08-09T12:35:50Z</time>
      </trkpt>
      <trkpt lat="45.01487" lon="5.53141">
        <ele>1336.85</ele>
        <time>2012-08-09T12:36:09Z</time>
      </trkpt>
      <trkpt lat="45.01492" lon="5.53136">
        <ele>1336.85</ele>
        <time>2012-08-09T12:36:16Z</time>
      </trkpt>
      <trkpt lat="45.01501" lon="5.53141">
        <ele>1331.08</ele>
        <time>2012-08-09T12:36:33Z</time>
      </trkpt>
      <trkpt lat="45.01504" lon="5.53139">
        <ele>1330.6</ele>
        <time>2012-08-09T12:36:36Z</time>
      </trkpt>
      <trkpt lat="45.01515" lon="5.5312">
        <ele>1327.24</ele>
        <time>2012-08-09T12:36:53Z</time>
      </trkpt>
      <trkpt lat="45.01529" lon="5.53108">
        <ele>1323.87</ele>
        <time>2012-08-09T12:37:10Z</time>
      </trkpt>
      <trkpt lat="45.01547" lon="5.53106">
        <ele>1317.14</ele>
        <time>2012-08-09T12:37:27Z</time>
      </trkpt>
      <trkpt lat="45.0155" lon="5.53102">
        <ele>1313.3</ele>
        <time>2012-08-09T12:37:43Z</time>
      </trkpt>
      <trkpt lat="45.01556" lon="5.53092">
        <ele>1308.01</ele>
        <time>2012-08-09T12:38:00Z</time>
      </trkpt>
      <trkpt lat="45.01578" lon="5.5309">
        <ele>1302.24</ele>
        <time>2012-08-09T12:38:15Z</time>
      </trkpt>
      <trkpt lat="45.01583" lon="5.53079">
        <ele>1297.44</ele>
        <time>2012-08-09T12:38:32Z</time>
      </trkpt>
      <trkpt lat="45.01595" lon="5.53074">
        <ele>1295.03</ele>
        <time>2012-08-09T12:38:48Z</time>
      </trkpt>
      <trkpt lat="45.01608" lon="5.53068">
        <ele>1291.19</ele>
        <time>2012-08-09T12:39:06Z</time>
      </trkpt>
      <trkpt lat="45.0162" lon="5.53067">
        <ele>1285.42</ele>
        <time>2012-08-09T12:39:19Z</time>
      </trkpt>
      <trkpt lat="45.01631" lon="5.53056">
        <ele>1284.46</ele>
        <time>2012-08-09T12:39:36Z</time>
      </trkpt>
      <trkpt lat="45.0165" lon="5.53052">
        <ele>1284.46</ele>
        <time>2012-08-09T12:39:53Z</time>
      </trkpt>
      <trkpt lat="45.01652" lon="5.53052">
        <ele>1284.46</ele>
        <time>2012-08-09T12:39:55Z</time>
      </trkpt>
      <trkpt lat="45.01677" lon="5.53048">
        <ele>1285.42</ele>
        <time>2012-08-09T12:40:12Z</time>
      </trkpt>
      <trkpt lat="45.01692" lon="5.5304">
        <ele>1284.46</ele>
        <time>2012-08-09T12:40:30Z</time>
      </trkpt>
      <trkpt lat="45.01712" lon="5.53035">
        <ele>1283.02</ele>
        <time>2012-08-09T12:40:47Z</time>
      </trkpt>
      <trkpt lat="45.01728" lon="5.53027">
        <ele>1274.85</ele>
        <time>2012-08-09T12:41:03Z</time>
      </trkpt>
      <trkpt lat="45.01739" lon="5.53023">
        <ele>1267.64</ele>
        <time>2012-08-09T12:41:16Z</time>
      </trkpt>
      <trkpt lat="45.01759" lon="5.53032">
        <ele>1262.35</ele>
        <time>2012-08-09T12:41:30Z</time>
      </trkpt>
      <trkpt lat="45.01776" lon="5.53038">
        <ele>1258.5</ele>
        <time>2012-08-09T12:41:43Z</time>
      </trkpt>
      <trkpt lat="45.01794" lon="5.53045">
        <ele>1256.1</ele>
        <time>2012-08-09T12:41:58Z</time>
      </trkpt>
      <trkpt lat="45.0181" lon="5.53036">
        <ele>1250.33</ele>
        <time>2012-08-09T12:42:14Z</time>
      </trkpt>
      <trkpt lat="45.01816" lon="5.53035">
        <ele>1250.81</ele>
        <time>2012-08-09T12:42:18Z</time>
      </trkpt>
      <trkpt lat="45.01833" lon="5.53026">
        <ele>1245.04</ele>
        <time>2012-08-09T12:42:34Z</time>
      </trkpt>
      <trkpt lat="45.01853" lon="5.53018">
        <ele>1242.64</ele>
        <time>2012-08-09T12:42:50Z</time>
      </trkpt>
      <trkpt lat="45.01872" lon="5.5302">
        <ele>1236.39</ele>
        <time>2012-08-09T12:43:05Z</time>
      </trkpt>
      <trkpt lat="45.01875" lon="5.53022">
        <ele>1236.39</ele>
        <time>2012-08-09T12:43:07Z</time>
      </trkpt>
      <trkpt lat="45.01892" lon="5.53033">
        <ele>1237.35</ele>
        <time>2012-08-09T12:43:22Z</time>
      </trkpt>
      <trkpt lat="45.01894" lon="5.53035">
        <ele>1237.35</ele>
        <time>2012-08-09T12:43:25Z</time>
      </trkpt>
      <trkpt lat="45.01907" lon="5.53058">
        <ele>1239.76</ele>
        <time>2012-08-09T12:43:41Z</time>
      </trkpt>
      <trkpt lat="45.0192" lon="5.53069">
        <ele>1240.24</ele>
        <time>2012-08-09T12:43:56Z</time>
      </trkpt>
      <trkpt lat="45.01921" lon="5.53072">
        <ele>1240.72</ele>
        <time>2012-08-09T12:44:02Z</time>
      </trkpt>
      <trkpt lat="45.01923" lon="5.53076">
        <ele>1241.2</ele>
        <time>2012-08-09T12:44:05Z</time>
      </trkpt>
      <trkpt lat="45.01926" lon="5.53082">
        <ele>1241.68</ele>
        <time>2012-08-09T12:44:09Z</time>
      </trkpt>
      <trkpt lat="45.01933" lon="5.53092">
        <ele>1243.6</ele>
        <time>2012-08-09T12:44:23Z</time>
      </trkpt>
    </trkseg>
  </trk>
</gpx>